[[{"header":{"parameterUnit":"m.s-1","parameterCategory":1,"la1":31.0,"la2":29.5877,"lo1":-88.7671,"lo2":-86.6584,"dy":0.0162,"dx":0.0185,"nx":115,"ny":88,"refTime":"2024-07-10T06:00:00:Z","depth":0,"parameterNumber":2,"parameterNumberName":"U-component_of_WINDS"},"data":[0.0,0.0,0.0,0.0,0.0,0.0,0.0,0.0,0.0,0.0,0.0,0.0,0.0,0.0,0.0,0.0,0.0,0.0,0.0,0.0,0.0,0.0,0.0,0.0,0.0,0.0,0.0,0.0,0.0,0.0,0.0,0.0,0.0,0.0,0.0,0.0,0.0,0.0,0.0,0.0,0.0,0.0,0.0,0.0,0.0,0.0,0.0,0.0,0.0,0.0,0.0,0.0,0.0,0.0,0.0,0.0,0.0,0.0,0.0,0.0,0.0,0.0,0.0,0.0,0.0,0.0,0.0,0.0,0.0,0.0,0.0,0.0,0.0,0.0,0.0,0.0,0.0,0.0,0.0,0.0,0.0,0.0,0.0,0.0,0.0,0.0,0.0,0.0,0.0,0.0,0.0,0.0,0.0,0.0,0.0,0.0,0.0,0.0,0.0,0.0,0.0,0.0,0.0,0.0,0.0,0.0,0.0,0.0,0.0,0.0,0.0,0.0,0.0,0.0,0.0,0.0,0.0,0.0,0.0,0.0,0.0,0.0,0.0,0.0,0.0,0.0,0.0,0.0,0.0,0.0,0.0,0.0,0.0,0.0,0.0,0.0,0.0,0.0,0.0,0.0,0.0,0.0,0.0,0.0,0.0,0.0,0.0,0.0,0.0,0.0,0.0,0.0,0.0,0.0,0.0,0.0,0.0,0.0,0.0,0.0,0.0,0.0,0.0,0.0,0.0,0.0,0.0,0.0,0.0,0.0,0.0,0.0,0.0,0.0,0.0,0.0,0.0,0.0,0.0,0.0,0.0,0.0,0.0,0.0,0.0,0.0,0.0,0.0,0.0,0.0,0.0,0.0,0.0,0.0,0.0,0.0,0.0,0.0,0.0,0.0,0.0,0.0,0.0,0.0,0.0,0.0,0.0,0.0,0.0,0.0,0.0,0.0,0.0,0.0,0.0,0.0,0.0,0.0,0.0,0.0,0.0,0.0,0.0,0.0,0.0,0.0,0.0,0.0,0.0,0.0,0.0,0.0,0.0,0.0,0.0,0.0,0.0,0.0,0.0,0.0,0.0,0.0,0.0,0.0,0.0,0.0,0.0,0.0,0.0,0.0,0.0,0.0,0.0,0.0,0.0,0.0,0.0,0.0,0.0,0.0,0.0,0.0,0.0,0.0,0.0,0.0,0.0,0.0,0.0,0.0,0.0,0.0,0.0,0.0,0.0,0.0,0.0,0.0,0.0,0.0,0.0,0.0,0.0,0.0,0.0,0.0,0.0,0.0,0.0,0.0,0.0,0.0,0.0,0.0,0.0,0.0,0.0,0.0,0.0,0.0,0.0,0.0,0.0,0.0,0.0,0.0,0.0,0.0,0.0,0.0,0.0,0.0,0.0,0.0,0.0,0.0,0.0,0.0,0.0,0.0,0.0,0.0,0.0,0.0,0.0,0.0,0.0,0.0,0.0,0.0,0.0,0.0,0.0,0.0,0.0,0.0,0.0,0.0,0.0,0.0,0.0,0.0,0.0,0.0,0.0,0.0,0.0,0.0,0.0,0.0,0.0,0.0,0.0,0.0,0.0,0.0,0.0,0.0,0.0,0.0,0.0,0.0,0.0,0.0,0.0,0.0,0.0,0.0,0.0,0.0,0.0,0.0,0.0,0.0,0.0,0.0,0.0,0.0,0.0,0.0,0.0,0.0,0.0,0.0,0.0,0.0,0.0,0.0,0.0,0.0,0.0,0.0,0.0,0.0,0.0,0.0,0.0,0.0,0.0,0.0,0.0,0.0,0.0,0.0,0.0,0.0,0.0,0.0,0.0,0.0,0.0,0.0,0.0,0.0,0.0,0.0,0.0,0.0,0.0,0.0,0.0,0.0,0.0,0.0,0.0,0.0,0.0,0.0,0.0,0.0,0.0,0.0,0.0,0.0,0.0,0.0,0.0,0.0,0.0,0.0,0.0,0.0,0.0,0.0,0.0,0.0,0.0,0.0,0.0,0.0,0.0,0.0,0.0,0.0,0.0,0.0,0.0,0.0,0.0,0.0,0.0,0.0,0.0,0.0,0.0,0.0,0.0,0.0,0.0,0.0,0.0,0.0,0.0,0.0,0.0,0.0,0.0,0.0,0.0,0.0,0.0,0.0,0.0,0.0,0.0,0.0,0.0,0.0,0.0,0.0,0.0,0.0,0.0,0.0,0.0,0.0,0.0,0.0,0.0,0.0,0.0,0.0,0.0,0.0,0.0,0.0,0.0,0.0,0.0,0.0,0.0,0.0,0.0,0.0,0.0,0.0,0.0,0.0,0.0,0.0,0.0,0.0,0.0,0.0,0.0,0.0,0.0,0.0,0.0,0.0,0.0,0.0,0.0,0.0,0.0,0.0,0.0,0.0,0.0,0.0,0.0,0.0,0.0,0.0,0.0,0.0,0.0,0.0,0.0,0.0,0.0,0.0,0.0,0.0,0.0,0.0,0.0,0.0,0.0,0.0,0.0,0.0,0.0,0.0,0.0,0.0,0.0,0.0,0.0,0.0,0.0,0.0,0.0,0.0,0.0,0.0,0.0,0.0,0.0,0.0,0.0,0.0,0.0,0.0,0.0,0.0,0.0,0.0,0.0,0.0,0.0,0.0,0.0,0.0,0.0,0.0,0.0,0.0,0.0,0.0,0.0,0.0,0.0,0.0,0.0,0.0,0.0,0.0,0.0,0.0,0.0,0.0,0.0,0.0,0.0,0.0,0.0,0.0,0.0,0.0,0.0,0.0,0.0,0.0,0.0,0.0,0.0,0.0,0.0,0.0,0.0,0.0,0.0,0.0,0.0,0.0,0.0,0.0,0.0,0.0,0.0,0.0,0.0,0.0,0.0,0.0,0.0,0.0,0.0,0.0,0.0,0.0,0.0,0.0,0.0,0.0,0.0,0.0,0.0,0.0,0.0,0.0,0.0,0.0,0.0,0.0,0.0,0.0,0.0,0.0,0.0,0.0,0.0,0.0,0.0,0.0,0.0,0.0,0.0,0.0,0.0,0.0,0.0,0.0,0.0,0.0,0.0,0.0,0.0,0.0,0.0,0.0,0.0,0.0,0.0,0.0,0.0,0.0,0.0,0.0,0.0,0.0,0.0,0.0,0.0,0.0,0.0,0.0,0.0,0.0,0.0,0.0,0.0,0.0,0.0,0.0,0.0,0.0,0.0,0.0,0.0,0.0,0.0,0.0,0.0,0.0,0.0,0.0,0.0,0.0,0.0,0.0,0.0,0.0,0.0,0.0,0.0,0.0,0.0,0.0,0.0,0.0,0.0,0.0,0.0,0.0,0.0,0.0,0.0,0.0,0.0,0.0,0.0,0.0,0.0,0.0,0.0,0.0,0.0,0.0,0.0,0.0,0.0,0.0,0.0,0.0,0.0,0.0,0.0,0.0,0.0,0.0,0.0,0.0,0.0,0.0,0.0,0.0,0.0,0.0,0.0,0.0,0.0,0.0,0.0,0.0,0.0,0.0,0.0,0.0,0.0,0.0,0.0,0.0,0.0,0.0,0.0,0.0,0.0,0.0,0.0,0.0,0.0,0.0,0.0,0.0,0.0,0.0,0.0,0.0,0.0,0.0,0.0,0.0,0.0,0.0,0.0,0.0,0.0,0.0,0.0,0.0,0.0,0.0,0.0,0.0,0.0,0.0,0.0,0.0,0.0,0.0,0.0,0.0,0.0,0.0,0.0,0.0,0.0,0.0,0.0,0.0,0.0,0.0,0.0,0.0,0.0,0.0,0.0,0.0,0.0,0.0,0.0,0.0,0.0,0.0,0.0,0.0,0.0,0.0,0.0,0.0,0.0,0.0,0.0,0.0,0.0,0.0,0.0,0.0,0.0,0.0,0.0,0.0,0.0,0.0,0.0,0.0,0.0,0.0,0.0,0.0,0.0,0.0,0.0,0.0,0.0,0.0,0.0,0.0,0.0,0.0,0.0,0.0,0.0,0.0,0.0,0.0,0.0,0.0,0.0,0.0,0.0,0.0,0.0,0.0,0.0,0.0,0.0,0.0,0.0,0.0,0.0,0.0,0.0,0.0,0.0,0.0,0.0,0.0,0.0,0.0,0.0,0.0,0.0,0.0,0.0,0.0,0.0,0.0,0.0,0.0,0.0,0.0,0.0,0.0,0.0,0.0,0.0,0.0,0.0,0.0,0.0,0.0,0.0,0.0,0.0,0.0,0.0,0.0,0.0,0.0,0.0,0.0,0.0,0.0,0.0,0.0,0.0,0.0,0.0,0.0,0.0,0.0,0.0,0.0,0.1319,0.0,0.0,0.0,0.0,0.0,0.0,0.0,0.0,0.0,0.0,0.0,0.0,0.0,0.0,0.0,0.0,0.0,0.0,0.0,0.0,0.0,0.0,0.0,0.0,0.0,0.0,0.0,0.0,0.0,0.0,0.0,0.0,0.0,0.0,0.0,0.0,0.0,0.0,0.0,0.0,0.0,0.0,0.0,0.0,0.0,0.0,0.0,0.0,0.0,0.0,0.0,0.0,0.0,0.0,0.0,0.0,0.0,0.0,0.0,0.0,0.0,0.0,0.0,0.0,0.0,0.0,0.0,0.0,0.0,0.0,0.0,0.0,0.0,0.0,0.0,0.0,0.0,0.0,0.0,0.0,0.0,0.0,0.0,0.0,0.0,0.0,0.0,0.0,0.0,0.0,0.0,0.0,0.0,0.0,0.0,0.0,0.0,0.0,0.0,0.0,0.0,0.0,0.0,0.0,0.0,0.0,0.0,0.0,0.0,0.0,0.1116,0.1183,0.1388,0.1477,0.141,0.0,0.0,0.0,0.0,0.0,0.0,0.0,0.0,0.0,0.0,0.0,0.0,0.0,0.0,0.0,0.0,0.0,0.0,0.0,0.0,0.0,0.0,0.0,0.0,0.0,0.0,0.0,0.0,0.0,0.0,0.0,0.0,0.0,0.0,0.0,0.0,0.0,0.0,0.0,0.0,0.0,0.0,0.0,0.0,0.0,0.0,0.0,0.0,0.0,0.0,0.0,0.0,0.0,0.0,0.0,0.0,0.0,0.0,0.0,0.0,0.0,0.0,0.0,0.0,0.0,0.0,0.0,0.0,0.0,0.0,0.0,0.0,0.0,0.0,0.0,0.0,0.0,0.0,0.0,0.0,0.0,0.0,0.0,0.0,0.0,0.0,0.0,0.0,0.0,0.0,0.0,0.0,0.0,0.0,0.0,0.0,0.0,0.0,0.0,0.0,0.0,0.0,0.0,0.0,0.0,0.0,0.0,0.0,0.0,0.0,0.0,0.0,0.1705,0.1658,0.1561,0.0,0.0,0.0,0.0,0.0,0.0,0.0,0.0,0.0,0.0,0.0,0.0,0.0,0.0,0.0,0.0,0.0,0.0,0.0,0.0,0.0,0.0,0.0,0.0,0.0,0.0,0.0,0.0,0.0,0.0,0.0,0.0,0.0,0.0,0.0,0.0,0.0,0.0,0.0,0.0,0.0,0.0,0.0,0.0,0.0,0.0,0.0,0.0,0.0,0.0,0.0,0.0,0.0,0.0,0.0,0.0,0.0,0.0,0.0,0.0,0.0,0.0,0.0,0.0,0.0,0.0,0.0,0.0,0.0,0.0,0.0,0.0,0.0,0.0,0.0,0.0,0.0,0.0,0.0,0.0,0.0,0.0,0.0,0.0,0.0,0.0,0.0,0.0,0.0,0.0,0.0,0.0,0.0,0.0,0.0,0.0,0.0,0.0,0.0,0.0,0.0,0.0,0.0,0.0,0.0,0.0,0.0,0.0,0.0,0.0,0.161,0.1856,0.2001,0.0,0.2034,0.0,0.0,0.0,0.0,0.0,0.0,0.0,0.0,0.0,0.0,0.0,0.0,0.0,0.0,0.0,0.0,0.0,0.0,0.0,0.0,0.0,0.0,0.0,0.0,0.0,0.0,0.0,0.0,0.0,0.0,0.0,0.0,0.0,0.0,0.0,0.0,0.0,0.0,0.0,0.0,0.0,0.0,0.0,0.0,0.0,0.0,0.0,0.0,0.0,0.0,0.0,0.0,0.0,0.0,0.0,0.0,0.0,0.0,0.0,0.0,0.0,0.0,0.0,0.0,0.0,0.0,0.0,0.0,0.0,0.0,0.0,0.0,0.0,0.0,0.0,0.0,0.0,0.0,0.0,0.0,0.0,0.0,0.0,0.0,0.0,0.0,0.0,0.0,0.0,0.0,0.0,0.0,0.0,0.0,0.0,0.0,0.0,0.0,0.0,0.0,0.0,0.0,0.0,0.0,0.0,0.0,0.0,0.0,0.0,0.0,0.0,0.2038,0.2069,0.2097,0.0,0.0,0.0,0.0,0.0,0.0,0.0,0.0,0.0,0.0,0.0,0.0,0.0,0.0,0.0,0.0,0.0,0.0,0.0,0.0,0.0,0.0,0.0,0.0,0.0,0.0,0.0,0.0,0.0,0.0,0.0,0.0,0.0,0.0,0.0,0.0,0.0,0.0,0.0,0.0,0.0,0.0,0.0,0.0,0.0,0.0,0.0,0.0,0.0,0.0,0.0,0.0,0.0,0.0,0.0,0.0,0.0,0.0,0.0,0.0,0.0,0.0,0.0,0.0,0.0,0.0,0.0,0.0,0.0,0.0,0.0,0.0,0.0,0.0,0.0,0.0,0.0,0.0,0.0,0.0,0.0,0.0,0.0,0.0,0.0,0.0,0.0,0.0,0.0,0.0,0.0,0.0,0.0,0.0,0.0,0.0,0.0,0.0,0.0,0.0,0.0,0.0,0.0,0.0,0.0,0.0,0.0,0.0,0.0,0.0,0.1979,0.0,0.2263,0.227,0.2205,0.2155,0.0,0.0,0.0,0.0,0.0,0.0,0.0,0.0,0.0,0.0,0.0,0.0,0.0,0.0,0.0,0.0,0.0,0.0,0.0,0.0,0.0,0.0,0.0,0.0,0.0,0.0,0.0,0.0,0.0,0.0,0.0,0.0,0.0,0.0,0.0,0.0,0.0,0.0,0.0,0.0,0.0,0.0,0.0,0.0,0.0,0.0,0.0,0.0,0.0,0.0,0.0,0.0,0.0,0.0,0.0,0.0,0.0,0.0,0.0,0.0,0.0,0.0,0.0,0.0,0.0,0.0,0.0,0.0,0.0,0.0,0.0,0.0,0.0,0.0,0.0,0.0,0.0,0.0,0.0,0.0,0.0,0.0,0.0,0.0,0.0,0.0,0.0,0.0,0.0,0.0,0.0,0.0,0.0,0.0,0.0,0.0,0.0,0.0,0.0,0.0,0.0,0.0,0.0,0.0,0.0,0.0,0.0,0.0,0.0,0.2165,0.2257,0.2652,0.2659,0.2527,0.0,0.0,0.0,0.0,0.0,0.0,0.0,0.0,0.0,0.0,0.0,0.0,0.0,0.0,0.0,0.0,0.0,0.0,0.0,0.0,0.0,0.0,0.0,0.0,0.0,0.0,0.0,0.0,0.0,0.0,0.0,0.0,0.0,0.0,0.0,0.0,0.0,0.0,0.0,0.0,0.0,0.0,0.0,0.0,0.0,0.0,0.0,0.0,0.0,0.0,0.0,0.0,0.0,0.0,0.0,0.0,0.0,0.0,0.0,0.0,0.0,0.0,0.0,0.0,0.0,0.0,0.0,0.0,0.0,0.0,0.0,0.0,0.0,0.0,0.0,0.0,0.0,0.0,0.0,0.0,0.0,0.0,0.0,0.0,0.0,0.0,0.0,0.0,0.0,0.0,0.0,0.0,0.0,0.0,0.0,0.0,0.0,0.0,0.0,0.0,0.0,0.0,0.0,0.0,0.0,0.0,0.0,0.0,0.0,0.1845,0.2058,0.2408,0.2924,0.2566,0.2435,0.0,0.0,0.0,0.0,0.0,0.0,0.0,0.0,0.0,0.0,0.0,0.0,0.0,0.0,0.0,0.0,0.0,0.0,0.0,0.0,0.0,0.0,0.0,0.0,0.0,0.0,0.0,0.0,0.0,0.0,0.0,0.0,0.0,0.0,0.0,0.0,0.0,0.0,0.0,0.0,0.0,0.0,0.0,0.0,0.0,0.0,0.0,0.0,0.0,0.0,0.0,0.0,0.0,0.0,0.0,0.0,0.0,0.0,0.0,0.0,0.0,0.0,0.0,0.0,0.0,0.0,0.0,0.0,0.0,0.0,0.0,0.0,0.0,0.0,0.0,0.0,0.0,0.0,0.0,0.0,0.0,0.0,0.0,0.0,0.0,0.0,0.0,0.0,0.0,0.0,0.0,0.0,0.0,0.0,0.0,0.0,0.0,0.0,0.0,0.0,0.0,0.0,0.0,0.0,0.0,0.0,0.0,0.0,0.0,0.1921,0.0,0.2838,0.0,0.2812,0.2671,0.0,0.0,0.0,0.0,0.0,0.0,0.0,0.0,0.0,0.0,0.0,0.0,0.0,0.0,0.0,0.0,0.0,0.0,0.0,0.0,0.0,0.0,0.0,0.0,0.0,0.0,0.0,0.0,0.0,0.0,0.0,0.0,0.0,0.0,0.0,0.0,0.0,0.0,0.0,0.0,0.0,0.0,0.0,0.0,0.0,0.0,0.0,0.0,0.0,0.0,0.0,0.0,0.0,0.0,0.0,0.0,0.0,0.0,0.0,0.0,0.0,0.0,0.0,0.0,0.0,0.0,0.0,0.0,0.0,0.0,0.0,0.0,0.0,0.0,0.0,0.0,0.0,0.0,0.0,0.0,0.0,0.0,0.0,0.0,0.0,0.0,0.0,0.0,0.0,0.0,0.0,0.0,0.0,0.0,0.0,0.0,0.0,0.0,0.0,0.0,0.0,0.0,0.0,0.0,0.0,0.0,0.0,0.0,0.1902,0.2573,0.3332,0.3493,0.3062,0.3436,0.3288,0.0,0.0,0.0,0.0,0.0,0.0,0.0,0.0,0.0,0.0,0.0,0.0,0.0,0.0,0.0,0.0,0.0,0.0,0.0,0.0,0.0,0.0,0.0,0.0,0.0,0.0,0.0,0.0,0.0,0.0,0.0,0.0,0.0,0.0,0.0,0.0,0.0,0.0,0.0,0.0,0.0,0.0,0.0,0.0,0.0,0.0,0.0,0.0,0.0,0.0,0.0,0.0,0.0,0.0,0.0,0.0,0.0,0.0,0.0,0.0,0.0,0.0,0.0,0.0,0.0,0.0,0.0,0.0,0.0,0.0,0.0,0.0,0.0,0.0,0.0,0.0,0.0,0.0,0.0,0.0,0.0,0.0,0.0,0.0,0.0,0.0,0.0,0.0,0.0,0.0,0.0,0.0,0.0,0.0,0.0,0.0,0.0,0.0,0.0,0.0,0.0,0.0,0.0,0.0,0.0,0.0,0.0,0.0,0.0,0.3033,0.3156,0.3479,0.4003,0.3454,0.3216,0.0,0.0,0.0,0.0,0.0,0.0,0.0,0.0,0.0,0.0,0.0,0.0,0.0,0.0,0.0,0.0,0.0,0.0,0.0,0.0,0.0,0.0,0.0,0.0,0.0,0.0,0.0,0.0,0.0,0.0,0.0,0.0,0.0,0.0,0.0,0.0,0.0,0.0,0.0,0.0,0.0,0.0,0.0,0.0,0.0,0.0,0.0,0.0,0.0,0.0,0.0,0.0,0.0,0.0,0.0,0.0,0.0,0.0,0.0,0.0,0.0,0.0,0.0,0.0,0.0,0.0,0.0,0.0,0.0,0.0,0.0,0.0,0.0,0.0,0.0,0.0,0.0,0.0,0.0,0.0,0.0,0.0,0.0,0.0,0.0,0.0,0.0,0.0,0.0,0.0,0.0,0.0,0.0,0.0,0.0,0.0,0.0,0.0,0.0,0.0,0.0,0.0,0.0,0.0,0.0,0.0,0.0,0.0,0.0,0.4086,0.4043,0.4209,0.4646,0.3972,0.3605,0.3642,0.0,0.0,0.0,0.0,0.0,0.0,0.0,0.0,0.0,0.0,0.0,0.0,0.0,0.0,0.0,0.0,0.0,0.0,0.0,0.0,0.0,0.0,0.0,0.0,0.0,0.0,0.0,0.0,0.0,0.0,0.0,0.0,0.0,0.0,0.0,0.0,0.0,0.0,0.0,0.0,0.0,0.0,0.0,0.0,0.0,0.0,0.0,0.0,0.0,0.0,0.0,0.0,0.0,0.0,0.0,0.0,0.0,0.0,0.0,0.0,0.0,0.0,0.0,0.0,0.0,0.0,0.0,0.0,0.0,0.0,0.0,0.0,0.0,0.0,0.0,0.0,0.0,0.0,0.0,0.0,0.0,0.0,0.0,0.0,0.0,0.0,0.0,0.0,0.0,0.0,0.0,0.0,0.0,0.0,0.0,0.0,0.0,0.0,0.0,0.0,0.0,0.0,0.0,0.0,0.0,0.0,0.0,0.0,0.5557,0.5661,0.5475,0.5034,0.4882,0.4466,0.0,0.0,0.0,0.0,0.0,0.0,0.0,0.0,0.0,0.0,0.0,0.0,0.0,0.0,0.0,0.0,0.0,0.0,0.0,0.0,0.0,0.0,0.0,0.0,0.0,0.0,0.0,0.0,0.0,0.0,0.0,0.0,0.0,0.0,0.0,0.0,0.0,0.0,0.0,0.0,0.0,0.0,0.0,0.0,0.0,0.0,0.0,0.0,0.0,0.0,0.0,0.0,0.0,0.0,0.0,0.0,0.0,0.0,0.0,0.0,0.0,0.0,0.0,0.0,0.0,0.0,0.0,0.0,0.0,0.0,0.0,0.0,0.0,0.0,0.0,0.0,0.0,0.0,0.0,0.0,0.0,0.0,0.0,0.0,0.0,0.0,0.0,0.0,0.0,0.0,0.0,0.0,0.0,0.0,0.0,0.0,0.0,0.0,0.0,0.0,0.0,0.0,0.0,0.0,0.0,0.0,0.0,0.0,0.0,0.5464,0.549,0.5723,0.6267,0.5515,0.4909,0.0,0.0,0.0,0.0,0.0,0.0,0.0,0.0,0.0,0.0,0.0,0.0,0.0,0.0,0.0,0.0,0.0,0.0,0.0,0.0,0.0,0.0,0.0,0.0,0.0,0.0,0.0,0.0,0.0,0.0,0.0,0.0,0.0,0.0,0.0,0.0,0.0,0.0,0.0,0.0,0.0,0.0,0.0,0.0,0.0,0.0,0.0,0.0,0.0,0.0,0.0,0.0,0.0,0.0,0.0,0.0,0.0,0.0,0.0,0.0,0.0,0.0,0.0,0.0,0.0,0.0,0.0,0.0,0.0,0.0,0.0,0.0,0.0,0.0,0.0,0.0,0.0,0.0,0.0,0.0,0.0,0.0,0.0,0.0,0.0,0.0,0.0,0.0,0.0,0.0,0.0,0.0,0.0,0.0,0.0,0.0,0.0,0.0,0.0,0.0,0.0,0.0,0.0,0.0,0.0,0.0,0.0,0.0,0.5002,0.572,0.599,0.6463,0.7092,0.5961,0.5166,0.0,0.0,0.0,0.0,0.0,0.0,0.0,0.0,0.0,0.0,0.0,0.0,0.0,0.0,0.0,0.0,0.0,0.0,0.0,0.0,0.0,0.0,0.0,0.0,0.0,0.0,0.0,0.0,0.0,0.0,0.0,0.0,0.0,0.0,0.0,0.0,0.0,0.0,0.0,0.0,0.0,0.0,0.0,0.0,0.0,0.0,0.0,0.0,0.0,0.0,0.0,0.0,0.0,0.0,0.0,0.0,0.0,0.0,0.0,0.0,0.0,0.0,0.0,0.0,0.0,0.0,0.0,0.0,0.0,0.0,0.0,0.0,0.0,0.0,0.0,0.0,0.0,0.0,0.0,0.0,0.0,0.0,0.0,0.0,0.0,0.0,0.0,0.0,0.0,0.0,0.0,0.0,0.0,0.0,0.0,0.0,0.0,0.0,0.0,0.0,0.0,0.0,0.0,0.0,0.0,0.0,0.0,0.0,0.5387,0.6108,0.6729,0.7189,0.7524,0.6309,0.5391,0.0,0.0,0.0,0.0,0.0,0.0,0.0,0.0,0.0,0.0,0.0,0.0,0.0,0.0,0.0,0.0,0.0,0.0,0.0,0.0,0.0,0.0,0.0,0.0,0.0,0.0,0.0,0.0,0.0,0.0,0.0,0.0,0.0,0.0,0.0,0.0,0.0,0.0,0.0,0.0,0.0,0.0,0.0,0.0,0.0,0.0,0.0,0.0,0.0,0.0,0.0,0.0,0.0,0.0,0.0,0.0,0.0,0.0,0.0,0.0,0.0,0.0,0.0,0.0,0.0,0.0,0.0,0.0,0.0,0.0,0.0,0.0,0.0,0.0,0.0,0.0,0.0,0.0,0.0,0.0,0.0,0.0,0.0,0.0,0.0,0.0,0.0,0.0,0.0,0.0,0.0,0.0,0.0,0.0,0.0,0.0,0.0,0.0,0.0,0.0,0.0,0.0,0.0,0.0,0.0,0.0,0.0,0.0,0.5196,0.6229,0.6333,0.6676,0.7217,0.6758,0.6187,0.0,0.0,0.0,0.0,0.0,0.0,0.0,0.0,0.0,0.0,0.0,0.0,0.0,0.0,0.0,0.0,0.0,0.0,0.0,0.0,0.0,0.0,0.0,0.0,0.0,0.0,0.0,0.0,0.0,0.0,0.0,0.0,0.0,0.0,0.0,0.0,0.0,0.0,0.0,0.0,0.0,0.0,0.0,0.0,0.0,0.0,0.0,0.0,0.4699,0.0,0.0,0.0,0.0,0.0,0.0,0.0,0.0,0.0,0.0,0.0,0.0,0.0,0.0,0.0,0.0,0.0,0.0,0.0,0.0,0.0,0.0,0.0,0.0,0.0,0.0,0.0,0.0,0.0,0.0,0.0,0.0,0.0,0.0,0.0,0.0,0.0,0.0,0.0,0.0,0.0,0.0,0.0,0.0,0.0,0.0,0.0,0.0,0.0,0.0,0.0,0.0,0.0,0.0,0.0,0.0,0.0,0.0,0.0,0.5656,0.6519,0.6623,0.6918,0.7444,0.7268,0.6738,0.0,0.0,0.0,0.0,0.0,0.0,0.0,0.0,0.0,0.0,0.0,0.0,0.0,0.0,0.0,0.0,0.0,0.0,0.0,0.0,0.0,0.0,0.0,0.0,0.0,0.0,0.0,0.0,0.0,0.0,0.0,0.0,0.0,0.0,0.0,0.0,0.0,0.0,0.0,0.0,0.0,0.0,0.0,0.0,0.0,0.0,0.0,0.0,0.0,0.0,0.0,0.0,0.0,0.0,0.0,0.0,0.0,0.0,0.0,0.0,0.0,0.0,0.0,0.0,0.0,0.0,0.0,0.0,0.0,0.0,0.0,0.0,0.0,0.0,0.0,0.0,0.0,0.0,0.0,0.0,0.0,0.0,0.0,0.0,0.0,0.0,0.0,0.0,0.0,0.0,0.0,0.0,0.0,0.0,0.0,0.0,0.0,0.0,0.0,0.0,0.0,0.0,0.0,0.0,0.0,0.0,0.0,0.5481,0.6238,0.7019,0.7136,0.7467,0.7901,0.7725,0.7158,0.61,0.0,0.0,0.0,0.0,0.0,0.0,0.0,0.0,0.0,0.0,0.0,0.0,0.0,0.0,0.0,0.0,0.0,0.0,0.0,0.0,0.0,0.0,0.0,0.0,0.0,0.0,0.0,0.0,0.0,0.0,0.0,0.0,0.0,0.0,0.0,0.0,0.0,0.0,0.3806,0.4435,0.0,0.0,0.0,0.0,0.0,0.0,0.0,0.0,0.5718,0.0,0.0,0.0,0.0,0.0,0.0,0.0,0.0,0.0,0.0,0.0,0.0,0.0,0.0,0.0,0.0,0.0,0.0,0.0,0.0,0.0,0.0,0.0,0.0,0.0,0.0,0.0,0.0,0.0,0.0,0.0,0.0,0.0,0.0,0.0,0.0,0.0,0.0,0.0,0.0,0.0,0.0,0.0,0.0,0.0,0.0,0.0,0.0,0.0,0.0,0.0,0.0,0.0,0.0,0.0,0.0,0.6062,0.5661,0.622,0.7694,0.7771,0.7794,0.7901,0.7859,0.7387,0.6386,0.0,0.0,0.0,0.0,0.0,0.0,0.0,0.0,0.0,0.0,0.0,0.0,0.0,0.0,0.0,0.0,0.0,0.0,0.0,0.0,0.0,0.0,0.0,0.0,0.0,0.0,0.0,0.0,0.0,0.0,0.0,0.0,0.0,0.0,0.0,0.0,0.0,0.0,0.0,0.4913,0.5484,0.0,0.0,0.0,0.0,0.0,0.0,0.0,0.0,0.5904,0.0,0.0,0.0,0.0,0.0,0.0,0.0,0.0,0.0,0.0,0.0,0.0,0.0,0.0,0.0,0.0,0.0,0.0,0.0,0.0,0.0,0.0,0.0,0.0,0.0,0.0,0.0,0.0,0.0,0.0,0.0,0.0,0.0,0.0,0.0,0.0,0.0,0.0,0.0,0.0,0.0,0.0,0.0,0.0,0.0,0.0,0.0,0.0,0.0,0.0,0.0,0.0,0.0,0.0,0.0,0.5903,0.6233,0.6836,0.7865,0.7901,0.7901,0.7895,0.7506,0.7031,0.0,0.0,0.0,0.0,0.0,0.0,0.0,0.0,0.0,0.0,0.0,0.0,0.0,0.0,0.0,0.0,0.0,0.0,0.0,0.0,0.0,0.0,0.0,0.0,0.0,0.0,0.0,0.0,0.0,0.0,0.0,0.0,0.0,0.0,0.0,0.0,0.0,0.0,0.0,0.0,0.5226,0.5897,0.5908,0.0,0.0,0.0,0.0,0.0,0.0,0.6474,0.6402,0.0,0.0,0.0,0.0,0.0,0.0,0.0,0.0,0.0,0.0,0.0,0.0,0.0,0.0,0.0,0.0,0.0,0.0,0.0,0.0,0.0,0.0,0.0,0.0,0.0,0.0,0.0,0.0,0.0,0.0,0.0,0.0,0.0,0.0,0.0,0.0,0.0,0.0,0.0,0.0,0.0,0.0,0.0,0.0,0.0,0.0,0.0,0.0,0.0,0.0,0.0,0.0,0.0,0.0,0.0,0.5602,0.655,0.7309,0.7865,0.7901,0.7901,0.7889,0.7279,0.6769,0.0,0.0,0.0,0.0,0.0,0.0,0.0,0.0,0.0,0.0,0.0,0.0,0.0,0.0,0.0,0.0,0.0,0.0,0.0,0.0,0.0,0.0,0.0,0.0,0.0,0.0,0.0,0.0,0.0,0.0,0.0,0.0,0.0,0.0,0.0,0.0,0.0,0.0,0.0,0.0,0.0,0.6559,0.6753,0.6673,0.0,0.0,0.0,0.0,0.7577,0.7217,0.0,0.0,0.0,0.0,0.0,0.0,0.0,0.0,0.0,0.0,0.0,0.0,0.0,0.0,0.0,0.0,0.0,0.0,0.0,0.0,0.0,0.0,0.0,0.0,0.0,0.0,0.0,0.0,0.0,0.0,0.0,0.0,0.0,0.0,0.0,0.0,0.0,0.0,0.0,0.0,0.0,0.0,0.0,0.0,0.0,0.0,0.0,0.0,0.0,0.0,0.0,0.0,0.0,0.0,0.0,0.0,0.5572,0.6191,0.6947,0.7841,0.7901,0.7901,0.7901,0.7629,0.7042,0.0,0.0,0.0,0.0,0.0,0.0,0.0,0.0,0.0,0.0,0.0,0.0,0.0,0.0,0.0,0.0,0.0,0.0,0.0,0.0,0.0,0.0,0.0,0.0,0.0,0.0,0.0,0.0,0.0,0.0,0.0,0.0,0.0,0.0,0.0,0.0,0.0,0.0,0.0,0.0,0.0,0.7847,0.7772,0.7873,0.7732,0.0,0.0,0.7885,0.7577,0.7709,0.0,0.0,0.0,0.0,0.0,0.0,0.0,0.0,0.0,0.0,0.0,0.0,0.0,0.0,0.0,0.0,0.0,0.0,0.0,0.0,0.0,0.0,0.0,0.0,0.0,0.0,0.0,0.0,0.0,0.0,0.0,0.0,0.0,0.0,0.0,0.0,0.0,0.0,0.0,0.0,0.0,0.0,0.0,0.0,0.0,0.0,0.0,0.0,0.0,0.0,0.0,0.0,0.0,0.0,0.0,0.4431,0.5145,0.603,0.6892,0.7871,0.7901,0.7901,0.7901,0.7255,0.6635,0.0,0.0,0.0,0.0,0.0,0.0,0.0,0.0,0.0,0.0,0.0,0.0,0.0,0.0,0.0,0.0,0.0,0.0,0.0,0.0,0.0,0.0,0.0,0.0,0.0,0.0,0.0,0.0,0.0,0.0,0.0,0.0,0.0,0.0,0.0,0.0,0.0,0.0,0.0,0.0,0.0,0.0,0.8319,0.8331,0.0,0.0,0.0,0.8252,0.8134,0.0,0.0,0.0,0.0,0.0,0.0,0.0,0.0,0.0,0.0,0.0,0.0,0.0,0.0,0.0,0.0,0.0,0.0,0.0,0.0,0.0,0.0,0.0,0.0,0.0,0.0,0.0,0.0,0.0,0.0,0.0,0.0,0.0,0.0,0.0,0.0,0.0,0.0,0.0,0.0,0.0,0.0,0.0,0.0,0.0,0.0,0.0,0.0,0.0,0.0,0.0,0.0,0.0,0.0,0.0,0.0,0.0,0.483,0.5918,0.6962,0.7877,0.7901,0.7901,0.7889,0.7049,0.0,0.0,0.0,0.0,0.0,0.0,0.0,0.0,0.0,0.0,0.0,0.0,0.0,0.0,0.0,0.0,0.0,0.0,0.0,0.0,0.0,0.0,0.0,0.0,0.0,0.0,0.0,0.3063,0.0,0.0,0.0,0.0,0.0,0.0,0.0,0.0,0.0,0.0,0.0,0.0,0.0,0.0,0.7787,0.8692,0.8629,0.8407,0.0,0.0,0.8538,0.8628,0.8179,0.7838,0.0,0.0,0.0,0.0,0.0,0.0,0.0,0.0,0.0,0.0,0.0,0.0,0.0,0.0,0.0,0.0,0.0,0.0,0.0,0.0,0.0,0.0,0.0,0.0,0.0,0.0,0.0,0.0,0.0,0.0,0.0,0.0,0.0,0.0,0.0,0.0,0.0,0.0,0.0,0.0,0.0,0.0,0.0,0.0,0.0,0.0,0.0,0.0,0.0,0.0,0.0,0.0,0.0,0.0,0.0,0.4835,0.5913,0.6962,0.7877,0.7901,0.7901,0.7889,0.7406,0.6665,0.0,0.0,0.0,0.0,0.0,0.0,0.0,0.0,0.0,0.0,0.0,0.0,0.0,0.0,0.0,0.0,0.0,0.0,0.0,0.0,0.0,0.0,0.0,0.0,0.0,0.0,0.0,0.0,0.0,0.0,0.0,0.0,0.0,0.0,0.0,0.0,0.0,0.0,0.0,0.0,0.0,0.854,0.8787,0.8866,0.8898,0.0,0.0,0.8898,0.8802,0.8756,0.8641,0.8549,0.0,0.0,0.0,0.0,0.0,0.0,0.0,0.0,0.0,0.0,0.0,0.0,0.0,0.0,0.0,0.0,0.0,0.0,0.0,0.0,0.0,0.0,0.0,0.0,0.0,0.0,0.0,0.0,0.0,0.0,0.0,0.0,0.0,0.0,0.0,0.0,0.0,0.0,0.0,0.0,0.0,0.0,0.0,0.0,0.0,0.0,0.0,0.0,0.0,0.0,0.0,0.0,0.0,0.3845,0.396,0.5423,0.6756,0.7866,0.7913,0.7901,0.7901,0.7587,0.6939,0.0,0.0,0.0,0.0,0.0,0.0,0.0,0.0,0.0,0.0,0.0,0.0,0.0,0.0,0.0,0.0,0.0,0.0,0.0,0.0,0.0,0.0,0.0,0.0,0.0,0.0,0.0,0.0,0.3434,0.3386,0.3472,0.0,0.0,0.0,0.0,0.0,0.0,0.0,0.0,0.0,0.0,0.8311,0.876,0.9133,0.0,0.0,0.9113,0.9226,0.8837,0.8504,0.8228,0.8268,0.7866,0.0,0.0,0.0,0.0,0.0,0.0,0.0,0.0,0.0,0.0,0.0,0.0,0.0,0.0,0.0,0.0,0.0,0.0,0.0,0.0,0.0,0.0,0.0,0.0,0.0,0.0,0.0,0.0,0.0,0.0,0.0,0.0,0.0,0.0,0.0,0.0,0.0,0.0,0.0,0.0,0.0,0.0,0.0,0.0,0.0,0.0,0.0,0.0,0.0,0.0,0.0,0.0,0.3585,0.353,0.4966,0.643,0.7901,0.7758,0.7735,0.7895,0.7689,0.7127,0.0,0.0,0.0,0.0,0.0,0.0,0.0,0.0,0.0,0.0,0.0,0.0,0.0,0.0,0.0,0.0,0.0,0.0,0.0,0.0,0.0,0.0,0.0,0.0,0.0,0.0,0.0,0.0,0.3605,0.3506,0.3506,0.0,0.0,0.0,0.0,0.0,0.0,0.0,0.0,0.0,0.0,0.8243,0.8738,0.9106,0.9211,0.8857,0.9113,0.9211,0.8857,0.8406,0.8131,0.8293,0.0,0.0,0.0,0.0,0.0,0.0,0.0,0.0,0.0,0.0,0.0,0.0,0.0,0.0,0.0,0.0,0.0,0.0,0.0,0.0,0.0,0.0,0.0,0.0,0.0,0.0,0.0,0.257,0.0,0.0,0.2843,0.0,0.0,0.0,0.0,0.0,0.0,0.0,0.0,0.0,0.0,0.0,0.0,0.0,0.0,0.0,0.0,0.0,0.0,0.0,0.0,0.0,0.0,0.3668,0.3833,0.4694,0.601,0.7728,0.7376,0.7354,0.7836,0.7689,0.7224,0.6379,0.0,0.0,0.0,0.0,0.0,0.0,0.0,0.0,0.0,0.0,0.0,0.0,0.0,0.0,0.0,0.0,0.0,0.0,0.0,0.0,0.0,0.0,0.0,0.0,0.0,0.0,0.3506,0.3506,0.3506,0.0,0.0,0.0,0.0,0.0,0.0,0.0,0.0,0.0,0.0,0.7794,0.847,0.8771,0.8811,0.8824,0.8824,0.8818,0.8811,0.8818,0.8672,0.8605,0.0,0.0,0.0,0.0,0.0,0.0,0.0,0.0,0.0,0.0,0.0,0.0,0.0,0.0,0.0,0.0,0.0,0.0,0.0,0.0,0.0,0.0,0.0,0.0,0.0,0.0,0.0,0.3013,0.2934,0.0,0.0,0.0,0.0,0.0,0.0,0.0,0.0,0.0,0.0,0.0,0.4487,0.4574,0.0,0.0,0.0,0.0,0.0,0.0,0.0,0.0,0.0,0.0,0.0,0.0,0.3914,0.4325,0.493,0.5375,0.5647,0.6199,0.6593,0.675,0.6732,0.6252,0.5348,0.0,0.0,0.0,0.0,0.0,0.0,0.0,0.0,0.0,0.0,0.0,0.0,0.0,0.0,0.0,0.0,0.0,0.0,0.0,0.0,0.0,0.0,0.0,0.0,0.0,0.3506,0.0,0.0,0.0,0.0,0.0,0.0,0.0,0.0,0.0,0.0,0.0,0.7557,0.7775,0.8197,0.8652,0.8895,0.8934,0.8951,0.0,0.0,0.0,0.0,0.0,0.0,0.0,0.0,0.0,0.0,0.0,0.0,0.0,0.0,0.7952,0.7497,0.7378,0.734,0.7347,0.0,0.0,0.0,0.0,0.0,0.0,0.0,0.0,0.0,0.0,0.0,0.0,0.0,0.0,0.3048,0.0,0.2579,0.0,0.0,0.0,0.0,0.0,0.0,0.0,0.0,0.4278,0.4569,0.4853,0.49,0.4934,0.0,0.4498,0.4191,0.0,0.0,0.0,0.0,0.0,0.0,0.0,0.0,0.4235,0.4613,0.4879,0.4944,0.4937,0.5542,0.5987,0.6209,0.6084,0.5715,0.5029,0.4597,0.4184,0.0,0.0,0.0,0.0,0.0,0.0,0.0,0.0,0.0,0.0,0.0,0.0,0.0,0.0,0.0,0.0,0.0,0.0,0.0,0.0,0.0,0.0,0.0,0.3592,0.0,0.0,0.0,0.0,0.0,0.0,0.0,0.0,0.0,0.8387,0.8342,0.827,0.8435,0.8756,0.9007,0.9097,0.0,0.0,0.0,0.0,0.0,0.0,0.0,0.8545,0.8943,0.8878,0.8977,0.9538,0.9294,0.9084,0.9365,0.0,0.0,0.8039,0.807,0.8133,0.814,0.8544,0.8867,0.866,0.915,0.9509,0.0,0.0,0.0,0.0,0.0,0.0,0.0,0.0,0.2971,0.287,0.0,0.2442,0.0,0.0,0.0,0.0,0.0,0.3749,0.0,0.0,0.4353,0.4647,0.4901,0.4897,0.4758,0.4497,0.4613,0.4544,0.4287,0.3882,0.0,0.0,0.0,0.0,0.0,0.0,0.4592,0.4622,0.4581,0.4849,0.5508,0.5395,0.555,0.6095,0.5862,0.5617,0.5363,0.5065,0.4692,0.4043,0.4158,0.0,0.0,0.0,0.0,0.0,0.0,0.0,0.0,0.0,0.0,0.0,0.0,0.0,0.0,0.0,0.0,0.0,0.0,0.0,0.0,0.3519,0.0,0.0,0.0,0.0,0.0,0.0,0.0,0.0,0.0,0.0,0.9514,0.9194,0.8869,0.8978,0.0,0.0,0.0,0.0,0.935,0.92,0.9187,0.9181,0.9174,0.9097,0.8961,0.9032,0.0,0.0,0.9686,0.9227,0.8946,0.9635,0.9187,0.8699,0.8739,0.8915,0.9117,0.9117,0.9589,1.0082,1.0206,1.0623,1.1376,0.4129,0.0,0.0,0.0,0.0,0.3415,0.3579,0.3854,0.3633,0.3439,0.3286,0.3242,0.0,0.0,0.0,0.0,0.0,0.0,0.42,0.4379,0.4397,0.4467,0.4543,0.4668,0.4623,0.4548,0.4773,0.4821,0.4695,0.4417,0.4108,0.3901,0.0,0.0,0.0,0.0,0.4495,0.4939,0.4635,0.4574,0.4794,0.4739,0.4791,0.4956,0.491,0.4755,0.4547,0.4496,0.4338,0.4095,0.3943,0.0,0.0,0.0,0.0,0.0,0.0,0.0,0.0,0.0,0.0,0.0,0.0,0.0,0.0,0.0,0.0,0.0,0.0,0.0,0.3896,0.3726,0.3798,0.0,0.0,0.0,0.0,0.0,0.0,0.0,0.0,0.0,0.9852,0.9595,0.9315,0.0,0.0,0.9284,0.9494,0.9446,0.9394,0.9419,0.9395,0.0,0.9138,0.9038,0.9036,0.9047,0.918,0.9313,0.9562,0.9375,0.9313,0.9556,0.9444,0.925,0.9289,0.8992,0.8875,0.8844,0.9016,0.9189,0.931,0.9599,0.9891,0.4424,0.3884,0.3716,0.376,0.3901,0.3716,0.384,0.4055,0.392,0.3801,0.3666,0.3591,0.351,0.3444,0.3935,0.0,0.0,0.0,0.4352,0.4445,0.4445,0.4452,0.4577,0.4646,0.4681,0.4631,0.4755,0.4726,0.4668,0.4679,0.4506,0.4168,0.0,0.0,0.4339,0.4351,0.4537,0.4854,0.4634,0.4463,0.4463,0.4463,0.4463,0.4463,0.4463,0.4419,0.4338,0.4334,0.4282,0.4135,0.3995,0.385,0.0,0.0,0.0,0.0,0.0,0.0,0.0,0.0,0.0,0.0,0.0,0.3595,0.0,0.0,0.0,0.0,0.3389,0.3628,0.3909,0.3841,0.0,0.0,0.0,0.0,0.0,0.0,0.0,0.7955,0.7984,0.8276,0.9463,0.9468,0.9475,0.9704,0.964,0.9581,0.9693,0.0,0.974,0.9814,0.9782,0.9731,0.9602,0.9533,0.9548,0.9578,0.958,0.9634,0.9634,0.9562,0.9526,0.9604,0.9634,0.967,0.9778,0.9436,0.9106,0.9022,0.8998,0.9059,0.9181,0.9417,0.9599,0.4753,0.4737,0.4447,0.4281,0.4162,0.4159,0.4096,0.3993,0.3993,0.3985,0.3977,0.3727,0.3787,0.3974,0.434,0.0,0.3997,0.4302,0.4493,0.4487,0.4487,0.4608,0.4843,0.4846,0.4772,0.4638,0.4641,0.464,0.4522,0.4755,0.4743,0.4419,0.4128,0.4039,0.4277,0.4658,0.4785,0.4536,0.4536,0.4532,0.4463,0.4463,0.4463,0.4463,0.4463,0.4463,0.446,0.4463,0.4389,0.418,0.4251,0.4003,0.332,0.0,0.0,0.0,0.0,0.0,0.0,0.0,0.0,0.0,0.0,0.0,0.0,0.0,0.0,0.0,0.3479,0.0,0.3734,0.3932,0.0,0.0,0.0,0.4789,0.5417,0.5714,0.6538,0.8193,0.0,0.0,0.8668,0.9073,0.9405,0.9604,1.0071,1.0226,0.9898,0.9959,1.0117,0.9984,1.0031,1.0107,1.0036,1.0179,1.0236,1.0242,1.006,0.991,0.9959,0.973,0.967,0.9862,0.9971,1.0043,1.0233,1.0042,0.9832,0.961,0.9532,0.9508,0.9602,0.9957,1.0301,0.4931,0.4925,0.4868,0.4724,0.4526,0.4526,0.451,0.4482,0.4552,0.4431,0.4344,0.4206,0.4273,0.4561,0.4725,0.4843,0.4782,0.4909,0.5123,0.523,0.5087,0.505,0.5189,0.5189,0.511,0.4979,0.5107,0.5222,0.5182,0.5018,0.4882,0.4774,0.4568,0.4545,0.4592,0.4814,0.4834,0.4636,0.4636,0.4582,0.4522,0.4463,0.4463,0.4463,0.4463,0.4463,0.4463,0.4463,0.4341,0.404,0.4052,0.3813,0.3185,0.2996,0.0,0.0,0.0,0.0,0.0,0.0,0.0,0.0,0.0,0.3672,0.3284,0.0,0.4115,0.0,0.3989,0.4447,0.4306,0.4385,0.0,0.0,0.5517,0.5708,0.5469,0.6311,0.7067,0.7269,0.7494,0.7803,0.8309,0.8492,0.8494,0.8379,0.9496,1.0093,0.9599,0.9391,0.913,0.8629,0.8579,0.8704,0.9357,0.9904,1.0275,1.0333,1.0209,1.0167,1.0167,1.0125,1.017,1.0224,1.0167,1.0315,1.0502,1.0369,1.0284,1.0303,1.0085,0.991,1.0097,1.0117,1.0036,0.5143,0.5094,0.5094,0.4985,0.4811,0.4757,0.4705,0.4726,0.4726,0.4684,0.455,0.4548,0.4582,0.4809,0.495,0.4912,0.4844,0.4982,0.5087,0.5162,0.5012,0.4973,0.5047,0.5047,0.4975,0.4845,0.4916,0.4953,0.4897,0.4885,0.4847,0.4779,0.4705,0.4697,0.4742,0.4694,0.4693,0.4792,0.4724,0.465,0.4565,0.4553,0.4463,0.4463,0.4408,0.4408,0.4463,0.4411,0.4304,0.4134,0.4006,0.3836,0.3442,0.3179,0.2907,0.0,0.0,0.0,0.0,0.0,0.0,0.0,0.0,0.0,0.0,0.0,0.4163,0.3745,0.4286,0.4754,0.4878,0.4777,0.479,0.506,0.5469,0.5624,0.5405,0.6081,0.6647,0.6895,0.6937,0.7153,0.7614,0.7877,0.7886,0.7777,0.8787,0.9403,0.9016,0.8781,0.8596,0.833,0.8281,0.8422,0.8865,0.959,1.0102,1.0168,1.0296,1.0502,1.0502,1.0335,1.0293,1.0478,1.0502,1.0574,1.0767,1.0647,1.0574,1.0713,1.0544,1.0327,1.0251,1.0212,1.0048,0.5391,0.5211,0.5211,0.5154,0.5053,0.4931,0.4811,0.4773,0.4773,0.4773,0.4773,0.4773,0.4848,0.4994,0.4924,0.4848,0.4773,0.4846,0.4846,0.4773,0.4773,0.4764,0.4823,0.482,0.4753,0.4566,0.456,0.4505,0.4392,0.4654,0.4709,0.4625,0.4691,0.4694,0.4752,0.4529,0.4528,0.4884,0.4736,0.4653,0.4632,0.4558,0.4484,0.4463,0.4301,0.4245,0.4467,0.4301,0.4181,0.4148,0.407,0.3978,0.3822,0.3541,0.3336,0.0,0.3258,0.0,0.0,0.0,0.0,0.0,0.0,0.0,0.0,0.3867,0.4085,0.4664,0.4664,0.4809,0.5366,0.5164,0.5037,0.5156,0.5178,0.527,0.5403,0.5555,0.5906,0.6678,0.6334,0.6279,0.6947,0.7235,0.733,0.7383,0.7905,0.8223,0.8087,0.812,0.8259,0.8376,0.8475,0.842,0.8585,0.921,0.9739,0.9809,1.0183,1.0556,1.0556,1.0521,1.0514,1.0641,1.0701,1.0773,1.1001,1.0845,1.0779,1.0965,1.0827,1.0695,1.052,1.0417,1.0375,0.5441,0.5336,0.5333,0.5322,0.5292,0.517,0.5056,0.4947,0.495,0.4947,0.495,0.4947,0.495,0.5027,0.495,0.495,0.4947,0.495,0.5024,0.5172,0.5172,0.5194,0.5247,0.5247,0.5176,0.5051,0.5045,0.498,0.4861,0.4927,0.4801,0.4628,0.4625,0.4625,0.4622,0.0,0.0,0.0,0.4639,0.4571,0.4455,0.4484,0.4472,0.4467,0.4187,0.0,0.4249,0.4193,0.4126,0.4042,0.4115,0.0,0.0,0.0,0.0,0.0,0.0,0.0,0.0,0.0,0.0,0.0,0.3897,0.3832,0.3751,0.3858,0.4677,0.633,0.5747,0.5251,0.5374,0.5434,0.5411,0.5353,0.5511,0.5688,0.5725,0.585,0.6033,0.6131,0.6197,0.629,0.644,0.6475,0.6567,0.6567,0.6644,0.6707,0.6751,0.7271,0.7439,0.6945,0.733,0.771,0.771,0.8399,0.8927,0.8998,0.9588,0.9996,1.0054,1.0553,1.0807,1.0804,1.0742,1.0742,1.0657,1.0691,1.0816,1.0875,1.092,1.1021,1.0966,1.0791,1.0647,0.5513,0.0,0.5458,0.5426,0.0,0.5303,0.5243,0.5181,0.5067,0.5018,0.5018,0.5018,0.5018,0.5018,0.5018,0.5018,0.5018,0.5018,0.5093,0.5168,0.5168,0.5214,0.5228,0.5228,0.5162,0.4964,0.5038,0.4968,0.485,0.4784,0.4648,0.4515,0.4459,0.4431,0.4431,0.4364,0.44,0.4593,0.4589,0.455,0.4476,0.4408,0.4365,0.4349,0.4058,0.0,0.0,0.0,0.0,0.0,0.0,0.0,0.0,0.0,0.0,0.4058,0.387,0.3866,0.3993,0.3997,0.4098,0.4323,0.4292,0.4172,0.3966,0.4234,0.4812,0.5671,0.5643,0.5627,0.5614,0.5652,0.5652,0.5658,0.5779,0.5915,0.5928,0.6051,0.6142,0.6149,0.6213,0.6261,0.6261,0.6261,0.6261,0.6261,0.6261,0.6261,0.6338,0.6644,0.6718,0.6338,0.6567,0.6872,0.6949,0.7557,0.8089,0.8084,0.8618,0.9074,0.9003,0.9453,0.9825,1.0126,1.0288,1.0363,1.0738,1.0887,1.0962,1.0962,1.1043,1.1117,1.1111,1.1009,1.0912,0.5673,0.5586,0.5497,0.5526,0.5431,0.5409,0.539,0.5355,0.0,0.0,0.0,0.508,0.5069,0.5048,0.5048,0.5037,0.5018,0.5018,0.5018,0.5018,0.5018,0.5018,0.5018,0.5018,0.4963,0.4868,0.4866,0.4806,0.4686,0.4583,0.4523,0.4496,0.4387,0.4319,0.4303,0.4303,0.4367,0.4556,0.4584,0.4583,0.4559,0.4351,0.4219,0.4229,0.3945,0.3878,0.3965,0.3852,0.3802,0.3806,0.38,0.3909,0.4015,0.4018,0.4177,0.4398,0.4467,0.4467,0.4463,0.4487,0.4514,0.4541,0.4684,0.4656,0.4355,0.4667,0.481,0.4666,0.5359,0.5827,0.5856,0.583,0.584,0.5844,0.5976,0.6071,0.6078,0.6179,0.6251,0.6261,0.6257,0.6261,0.6261,0.6261,0.6261,0.6261,0.6261,0.6261,0.6261,0.6338,0.6335,0.6338,0.6335,0.6335,0.6335,0.6718,0.7096,0.7015,0.7621,0.8075,0.8003,0.8156,0.8609,0.9372,0.9609,1.0067,1.0663,1.0887,1.0962,1.1037,1.1037,1.1117,1.1117,1.1111,1.1099,0.5722,0.5706,0.5706,0.5697,0.5676,0.557,0.5469,0.5368,0.5333,0.532,0.5237,0.5237,0.526,0.5245,0.5082,0.5028,0.5021,0.5018,0.5018,0.5018,0.5018,0.5018,0.5018,0.5018,0.5007,0.4991,0.4993,0.4925,0.4817,0.4787,0.4732,0.4695,0.4507,0.4398,0.4308,0.4303,0.43,0.4364,0.4544,0.448,0.4379,0.4345,0.4279,0.4182,0.3914,0.3792,0.3802,0.3796,0.379,0.3825,0.3883,0.3993,0.3993,0.4103,0.4174,0.4245,0.4249,0.4249,0.4252,0.4415,0.4594,0.4847,0.4989,0.4991,0.4843,0.4839,0.5021,0.5267,0.5624,0.5943,0.6151,0.6061,0.6,0.6006,0.6135,0.6227,0.6217,0.6244,0.6261,0.6261,0.6261,0.6261,0.6271,0.6268,0.6274,0.6268,0.623,0.6274,0.6288,0.6261,0.6261,0.6261,0.6261,0.618,0.6022,0.6018,0.6096,0.5867,0.6556,0.7092,0.7015,0.7548,0.8156,0.8922,0.8998,0.9306,0.9986,1.0368,1.0513,1.0588,1.0887,1.1037,1.1037,1.1111,1.1117,0.5733,0.5733,0.5738,0.5738,0.573,0.5678,0.5629,0.5583,0.5581,0.5502,0.5296,0.5293,0.5347,0.5303,0.5131,0.4989,0.5042,0.5042,0.501,0.5026,0.5018,0.5021,0.5023,0.5018,0.5018,0.5018,0.5018,0.4988,0.4931,0.4868,0.4806,0.4738,0.4564,0.4444,0.4393,0.433,0.4303,0.4303,0.4367,0.4403,0.4284,0.4282,0.4193,0.4139,0.3889,0.3787,0.3789,0.3725,0.3691,0.3691,0.3747,0.3802,0.391,0.3965,0.4021,0.4082,0.4151,0.4194,0.4194,0.4373,0.4511,0.4712,0.4779,0.4913,0.5192,0.5135,0.5215,0.5428,0.5788,0.6165,0.6247,0.6221,0.6156,0.6156,0.622,0.6257,0.6261,0.6261,0.6261,0.6257,0.6177,0.6132,0.6212,0.6136,0.6096,0.6154,0.6176,0.6173,0.617,0.6173,0.6115,0.6061,0.6022,0.587,0.5792,0.5709,0.5634,0.5476,0.5783,0.5938,0.5941,0.6325,0.6857,0.7464,0.7774,0.8313,0.9301,0.9679,0.9981,1.0438,1.0594,1.0812,1.0887,1.1037,1.1111,0.5191,0.5193,0.4931,0.4926,0.4924,0.4928,0.4846,0.4851,0.4851,0.4757,0.4531,0.5037,0.5199,0.4751,0.4153,0.4101,0.4433,0.4426,0.4451,0.4437,0.4427,0.4653,0.4951,0.4628,0.4626,0.4943,0.5018,0.5018,0.5004,0.492,0.486,0.4819,0.4645,0.4539,0.4577,0.4398,0.4338,0.4338,0.4311,0.4303,0.4298,0.4208,0.4148,0.4107,0.3939,0.3822,0.3795,0.371,0.3661,0.3664,0.3661,0.3718,0.3826,0.3886,0.3942,0.4068,0.4155,0.4231,0.4264,0.4348,0.4463,0.4659,0.4669,0.4798,0.5199,0.5252,0.5305,0.5434,0.5783,0.6126,0.6122,0.6106,0.6103,0.618,0.6183,0.6106,0.6106,0.6183,0.6183,0.6106,0.6048,0.5956,0.5968,0.5938,0.5912,0.5995,0.6031,0.6031,0.6031,0.5951,0.5937,0.5882,0.5726,0.5741,0.565,0.5662,0.5583,0.5331,0.5337,0.5351,0.5266,0.5241,0.5599,0.6373,0.6648,0.7322,0.8537,0.8917,0.9221,0.983,1.0137,1.0282,1.0663,1.0812,1.1037,0.3667,0.3398,0.2771,0.2411,0.2412,0.2502,0.2502,0.2413,0.2412,0.2142,0.2043,0.4463,0.4588,0.3032,0.1382,0.1366,0.268,0.2761,0.2727,0.275,0.2749,0.3519,0.4638,0.3446,0.3526,0.4711,0.4862,0.4859,0.5018,0.5004,0.4942,0.4771,0.4811,0.4741,0.4635,0.4515,0.4524,0.445,0.4352,0.4303,0.4303,0.4289,0.423,0.4121,0.4096,0.4031,0.3925,0.3845,0.384,0.3843,0.3892,0.3898,0.3895,0.4082,0.4143,0.42,0.4157,0.4279,0.4391,0.4408,0.4534,0.4725,0.4743,0.4797,0.4849,0.4833,0.5009,0.5337,0.5548,0.5696,0.5696,0.5709,0.5718,0.5715,0.5715,0.5637,0.5715,0.5637,0.5637,0.5637,0.5899,0.6064,0.586,0.5876,0.5945,0.5987,0.5999,0.5999,0.5993,0.5829,0.5742,0.577,0.5835,0.5826,0.5735,0.567,0.5556,0.5397,0.541,0.5391,0.5363,0.5308,0.5491,0.6035,0.6277,0.668,0.735,0.7846,0.825,0.9009,0.9382,0.9711,1.0299,1.0634,1.0802,0.268,0.2502,0.1967,0.1073,0.0268,0.0984,0.0894,0.0089,-0.0,-0.009,-0.009,0.0986,0.1338,0.115,0.0354,0.0437,0.103,0.1029,0.1009,0.1058,0.1055,0.1363,0.1964,0.2427,0.2427,0.2192,0.3052,0.3992,0.4859,0.5018,0.4993,0.4947,0.4882,0.4894,0.4836,0.4718,0.4613,0.4471,0.4425,0.4368,0.4311,0.4303,0.4276,0.4227,0.4156,0.4099,0.4042,0.3977,0.3933,0.3933,0.3933,0.3933,0.3933,0.3994,0.3997,0.4,0.4069,0.4226,0.435,0.4355,0.4375,0.4495,0.4563,0.456,0.4535,0.463,0.4864,0.5114,0.5225,0.5246,0.5246,0.5482,0.5562,0.5562,0.5562,0.5562,0.5562,0.5562,0.5662,0.5738,0.5719,0.5825,0.588,0.5846,0.5835,0.5843,0.584,0.5832,0.5837,0.5759,0.5673,0.5673,0.5757,0.5769,0.5588,0.5541,0.546,0.5457,0.5371,0.5371,0.5371,0.5341,0.5459,0.5785,0.5804,0.6089,0.6837,0.7057,0.7373,0.8162,0.9053,0.9691,1.0567,1.0807,1.0964,0.1348,0.1073,0.0716,-0.0179,-0.1256,-0.0179,-0.0358,-0.1346,-0.1436,-0.1436,-0.1436,-0.1436,-0.0987,-0.0448,-0.009,-0.0,-0.0,-0.0,-0.0,-0.0,-0.0,-0.0,-0.0,0.119,0.1186,0.0395,0.1256,0.2895,0.4704,0.4465,0.4311,0.4304,0.4469,0.4665,0.4958,0.4842,0.4659,0.4572,0.451,0.4428,0.4357,0.4317,0.4303,0.4295,0.4216,0.4167,0.4164,0.408,0.4034,0.4034,0.4037,0.3974,0.4034,0.4034,0.4034,0.4042,0.4115,0.4205,0.4298,0.4303,0.4314,0.4349,0.4428,0.4499,0.4488,0.4618,0.4795,0.4949,0.5043,0.5015,0.501,0.5246,0.5404,0.5404,0.5407,0.5404,0.5407,0.5506,0.5489,0.5571,0.558,0.5616,0.5726,0.5755,0.5716,0.5716,0.5725,0.5733,0.5733,0.5725,0.5725,0.5733,0.573,0.5659,0.5504,0.5491,0.5469,0.5469,0.5488,0.5494,0.5458,0.545,0.542,0.5667,0.5479,0.5527,0.6055,0.6325,0.6767,0.7671,0.8655,0.9639,1.0562,1.0858,1.102,-0.0457,-0.1168,-0.1256,-0.1256,-0.1346,-0.1256,-0.1256,-0.1436,-0.1436,-0.1436,-0.1436,-0.1436,-0.1346,-0.1256,-0.0448,-0.0,-0.0,-0.0,-0.0,-0.0,-0.0,-0.0,-0.0,0.0082,-0.0,-0.0,-0.0,0.1804,0.4557,0.3448,0.2582,0.2659,0.3041,0.3902,0.4828,0.4885,0.4822,0.4776,0.4599,0.4471,0.4447,0.4357,0.4308,0.43,0.4295,0.4284,0.4287,0.4284,0.4276,0.4281,0.4268,0.4273,0.4278,0.4276,0.4268,0.4273,0.4284,0.4292,0.4306,0.4311,0.4352,0.4444,0.4488,0.4572,0.4678,0.4727,0.4779,0.4982,0.5007,0.5018,0.5018,0.5096,0.5096,0.5096,0.5018,0.5015,0.5023,0.5192,0.517,0.5317,0.5393,0.5553,0.57,0.573,0.5733,0.5733,0.5733,0.5733,0.5733,0.5733,0.5733,0.5733,0.5733,0.5727,0.5711,0.5659,0.5673,0.5667,0.5638,0.5687,0.5667,0.5638,0.5581,0.5523,0.5474,0.5428,0.5471,0.5794,0.6482,0.7322,0.8251,0.9243,1.0228,1.0529,1.0713,-0.1119,-0.1463,-0.1443,-0.1436,-0.1436,-0.1436,-0.1436,-0.1436,-0.1436,-0.1436,-0.1436,-0.1436,-0.1436,-0.1346,-0.1076,-0.0538,-0.0,-0.0,-0.0,-0.0,-0.0,-0.0,-0.0,-0.0,-0.0,-0.0,-0.0,0.0637,0.1885,0.3219,0.2982,0.1176,0.1096,0.2425,0.4543,0.4977,0.4915,0.4836,0.4741,0.4629,0.4488,0.4431,0.4379,0.4306,0.4303,0.4303,0.4303,0.4303,0.4303,0.4303,0.4303,0.4303,0.4303,0.4303,0.4303,0.4303,0.4303,0.433,0.4395,0.4406,0.4461,0.4649,0.4662,0.4727,0.4819,0.4863,0.4925,0.4996,0.5018,0.5018,0.5018,0.5018,0.5018,0.5018,0.5021,0.505,0.5113,0.5167,0.5241,0.5401,0.5483,0.5684,0.5716,0.5733,0.5733,0.5733,0.5733,0.5733,0.5733,0.5733,0.5733,0.5733,0.5733,0.5733,0.5733,0.573,0.573,0.573,0.5725,0.5719,0.5706,0.57,0.5654,0.564,0.5581,0.5567,0.5553,0.5642,0.6239,0.7015,0.7955,0.8776,0.9809,1.0144,1.0506,-0.15,-0.1477,-0.1448,-0.1436,-0.1436,-0.1436,-0.1436,-0.1436,-0.1436,-0.1436,-0.1436,-0.1436,-0.1436,-0.1436,-0.1436,-0.1076,-0.0448,-0.0,-0.0,-0.0176,-0.0264,-0.0174,-0.0258,-0.0256,-0.0253,-0.0,-0.0246,-0.0242,-0.0,0.2048,0.1962,-0.0079,0.0314,0.1723,0.3767,0.4628,0.4974,0.4901,0.4857,0.4751,0.4673,0.4618,0.4493,0.4431,0.4414,0.4374,0.4308,0.4303,0.4303,0.4303,0.4303,0.4303,0.4303,0.4303,0.4303,0.4303,0.4303,0.4349,0.445,0.4469,0.4539,0.4697,0.4784,0.4847,0.489,0.4972,0.501,0.5018,0.4937,0.4867,0.4907,0.4836,0.4912,0.4993,0.5072,0.5118,0.5227,0.5281,0.5398,0.5564,0.567,0.5725,0.5733,0.5733,0.5733,0.5733,0.5733,0.5733,0.5733,0.5733,0.5733,0.5733,0.5733,0.5733,0.5733,0.5733,0.5733,0.5733,0.5733,0.5733,0.5733,0.5733,0.5733,0.5733,0.5733,0.5733,0.5733,0.5733,0.6174,0.6877,0.745,0.8088,0.9005,0.9908,1.0312,-0.1485,-0.1481,-0.1448,-0.1439,-0.144,-0.1436,-0.1436,-0.1436,-0.1436,-0.1436,-0.1436,-0.1436,-0.1436,-0.1436,-0.1436,-0.1346,-0.1256,-0.0897,-0.0717,-0.0715,-0.0716,-0.0715,-0.0713,-0.0702,-0.0695,-0.0691,-0.0665,-0.057,-0.0567,-0.0239,-0.0394,-0.0236,0.0784,0.1489,0.1959,0.3686,0.4787,0.475,0.468,0.4771,0.4975,0.4562,0.4352,0.4413,0.448,0.4388,0.4196,0.425,0.4314,0.4303,0.4303,0.4303,0.4314,0.4317,0.4314,0.4333,0.4319,0.4371,0.4471,0.4499,0.4541,0.4712,0.4766,0.4822,0.49,0.4929,0.494,0.494,0.4794,0.4668,0.4676,0.4622,0.4705,0.5109,0.5109,0.5241,0.5355,0.5477,0.5507,0.5695,0.573,0.5733,0.5733,0.5733,0.5733,0.5733,0.5733,0.5733,0.5733,0.5733,0.5733,0.5733,0.5733,0.5733,0.5733,0.5733,0.5733,0.5733,0.5733,0.5733,0.5733,0.5733,0.5733,0.5733,0.5733,0.5733,0.5733,0.5733,0.5997,0.6612,0.6962,0.7401,0.8277,0.924,1.012,-0.1543,-0.1536,-0.1488,-0.1467,-0.1463,-0.1444,-0.1436,-0.1436,-0.1436,-0.1436,-0.1436,-0.1436,-0.1436,-0.1436,-0.1436,-0.1436,-0.1346,-0.1256,-0.1166,-0.1166,-0.1166,-0.1166,-0.1164,-0.1159,-0.1146,-0.1216,-0.1184,-0.1157,-0.1061,-0.1051,-0.1039,-0.0945,-0.055,0.0235,0.1097,0.1802,0.2506,0.3363,0.3108,0.3074,0.3408,0.2923,0.2591,0.2548,0.3051,0.3383,0.3335,0.4042,0.4382,0.4314,0.4303,0.4271,0.4267,0.4216,0.4255,0.4323,0.4336,0.4456,0.4627,0.457,0.4553,0.4688,0.4724,0.466,0.4613,0.4621,0.4701,0.487,0.4688,0.4513,0.4299,0.4531,0.4731,0.5067,0.5069,0.5196,0.5395,0.5597,0.5684,0.5722,0.5733,0.5733,0.5733,0.5733,0.5733,0.5733,0.5733,0.5733,0.5733,0.5733,0.5733,0.5733,0.5733,0.5733,0.5733,0.5733,0.5733,0.5733,0.5733,0.5733,0.5733,0.5733,0.5733,0.5733,0.5733,0.5733,0.5733,0.5822,0.5997,0.5997,0.626,0.6874,0.7753,0.854,0.9331,-0.1572,-0.1565,-0.1506,-0.148,-0.1477,-0.1448,-0.1436,-0.1436,-0.1436,-0.1436,-0.1436,-0.1436,-0.1436,-0.1436,-0.1436,-0.1436,-0.1436,-0.1436,-0.1436,-0.1436,-0.1436,-0.1436,-0.1436,-0.1436,-0.1427,-0.1407,-0.1378,-0.1354,-0.1335,-0.1313,-0.1292,-0.1277,-0.1342,-0.0864,-0.0,0.0078,0.0549,0.1251,0.1407,0.1475,0.1458,0.1607,0.1747,0.1798,0.2466,0.2677,0.2505,0.3407,0.3982,0.4168,0.4188,0.4148,0.4104,0.4087,0.4106,0.4123,0.423,0.434,0.4515,0.4448,0.4427,0.4595,0.4621,0.4543,0.4462,0.4384,0.4543,0.4719,0.4523,0.4277,0.4186,0.4242,0.4561,0.4906,0.4869,0.5069,0.5426,0.5505,0.5636,0.5644,0.5733,0.5733,0.5733,0.5733,0.5733,0.5733,0.5733,0.5733,0.5733,0.5733,0.5733,0.5733,0.5733,0.5733,0.5733,0.5733,0.5733,0.5733,0.5733,0.5733,0.5733,0.5733,0.5733,0.5733,0.5733,0.5733,0.5733,0.5733,0.5822,0.5733,0.5733,0.6438,0.7228,0.7577,0.8281,-0.1574,-0.1564,-0.1508,-0.1483,-0.1477,-0.1448,-0.1436,-0.1436,-0.1436,-0.1436,-0.1436,-0.1436,-0.1436,-0.1436,-0.1436,-0.1436,-0.1436,-0.1436,-0.1436,-0.1436,-0.1436,-0.1436,-0.1436,-0.1436,-0.1433,-0.1427,-0.1405,-0.1391,-0.1378,-0.1333,-0.1304,-0.1297,-0.1271,-0.1258,-0.11,-0.1258,-0.1099,-0.0784,0.0078,-0.0,-0.0858,0.0546,0.1561,0.1557,0.2177,0.2315,0.1821,0.2413,0.3204,0.3713,0.3756,0.39,0.3896,0.3914,0.3932,0.3965,0.4028,0.4084,0.4225,0.4261,0.4292,0.4373,0.4384,0.4384,0.4304,0.4307,0.4309,0.4318,0.4193,0.419,0.4161,0.4147,0.4308,0.4608,0.4741,0.5005,0.526,0.5369,0.546,0.5644,0.5733,0.5644,0.5644,0.5733,0.5644,0.5733,0.5733,0.5733,0.5733,0.5733,0.5733,0.5733,0.5733,0.5733,0.5733,0.5733,0.5733,0.5733,0.5733,0.5733,0.5733,0.5733,0.5733,0.5733,0.5733,0.5733,0.5733,0.5733,0.5733,0.5733,0.5911,0.626,0.6612,0.6962,0.7489,-0.1592,-0.1568,-0.153,-0.1502,-0.1478,-0.1448,-0.1436,-0.1436,-0.1436,-0.1436,-0.1436,-0.1436,-0.1436,-0.1436,-0.1436,-0.1436,-0.1436,-0.1436,-0.1436,-0.1436,-0.1436,-0.1436,-0.1436,-0.1436,-0.1436,-0.1433,-0.1425,-0.1411,-0.1388,-0.1352,-0.1324,-0.1302,-0.1273,-0.1336,-0.1336,-0.1336,-0.1335,-0.1335,-0.1021,-0.0863,-0.1099,-0.0784,-0.047,-0.0392,0.0392,-0.0,-0.0,0.1319,0.1824,0.2189,0.3254,0.3485,0.2955,0.3401,0.3804,0.3886,0.3993,0.4157,0.4255,0.419,0.4133,0.4151,0.4153,0.4153,0.3997,0.3997,0.3997,0.3944,0.3953,0.3975,0.413,0.4148,0.4333,0.4459,0.4712,0.4975,0.5092,0.5102,0.528,0.5555,0.5371,0.5371,0.5552,0.5555,0.5552,0.5644,0.5733,0.5733,0.5733,0.5733,0.5733,0.5733,0.5733,0.5733,0.5733,0.5733,0.5733,0.5733,0.5733,0.5733,0.5733,0.5733,0.5733,0.5733,0.5733,0.5733,0.5733,0.5733,0.5733,0.5733,0.5822,0.5997,0.6171,0.6523,0.6962,-0.1587,-0.1568,-0.1525,-0.1497,-0.1477,-0.1448,-0.1436,-0.1436,-0.1436,-0.1436,-0.1436,-0.1436,-0.1436,-0.1436,-0.1436,-0.1436,-0.1436,-0.1436,-0.1436,-0.1436,-0.1436,-0.1436,-0.1436,-0.1436,-0.1436,-0.1436,-0.1436,-0.1417,-0.139,-0.1362,-0.1333,-0.1303,-0.1352,-0.1337,-0.1336,-0.1336,-0.1336,-0.1336,-0.1336,-0.1336,-0.1336,-0.1336,-0.1258,-0.11,-0.0,-0.0,-0.0,0.047,0.0926,0.1507,0.2233,0.2534,0.2352,0.2877,0.3442,0.3754,0.3921,0.4075,0.4075,0.3999,0.3999,0.3999,0.3999,0.3921,0.3841,0.3841,0.3841,0.3855,0.382,0.3983,0.4143,0.4195,0.4283,0.4387,0.4565,0.4743,0.4835,0.4837,0.5015,0.5193,0.5191,0.501,0.5196,0.5282,0.5463,0.5552,0.5644,0.5644,0.5733,0.5733,0.5733,0.5733,0.5733,0.5733,0.5733,0.5733,0.5733,0.5733,0.5733,0.5733,0.5733,0.5733,0.5733,0.5733,0.5733,0.5733,0.5733,0.5733,0.5733,0.5733,0.5733,0.5733,0.5908,0.6083,0.6523,-0.1565,-0.1558,-0.1503,-0.1479,-0.1471,-0.1447,-0.1436,-0.1436,-0.1436,-0.1436,-0.1436,-0.1436,-0.1436,-0.1436,-0.1436,-0.1436,-0.1436,-0.1436,-0.1436,-0.1436,-0.1436,-0.1436,-0.1436,-0.1436,-0.1436,-0.1436,-0.1436,-0.1421,-0.1396,-0.1366,-0.1335,-0.1308,-0.1277,-0.1338,-0.1336,-0.1336,-0.1336,-0.1336,-0.1336,-0.1336,-0.1336,-0.1336,-0.1336,-0.1178,-0.0,-0.0,-0.0,-0.0078,0.0156,0.094,0.1074,0.1381,0.1792,0.1993,0.2918,0.3511,0.3684,0.3606,0.3763,0.3684,0.3684,0.3763,0.3841,0.3841,0.3841,0.3841,0.3849,0.3793,0.378,0.3977,0.4174,0.431,0.4283,0.4297,0.4297,0.4389,0.4569,0.4659,0.4748,0.4919,0.4921,0.4654,0.4656,0.4835,0.5371,0.5552,0.5644,0.5644,0.5644,0.5733,0.5733,0.5733,0.5733,0.5733,0.5733,0.5733,0.5733,0.5733,0.5733,0.5733,0.5733,0.5733,0.5733,0.5733,0.5733,0.5733,0.5733,0.5733,0.5733,0.5733,0.5733,0.5733,0.5733,0.5822,0.6086,-0.1522,-0.1499,-0.1487,-0.1467,-0.1446,-0.1438,-0.1436,-0.1436,-0.1436,-0.1436,-0.1436,-0.1436,-0.1436,-0.1436,-0.1436,-0.1436,-0.1436,-0.1436,-0.1436,-0.1436,-0.1436,-0.1436,-0.1436,-0.1436,-0.1436,-0.1436,-0.1436,-0.1431,-0.1413,-0.1372,-0.1344,-0.1331,-0.1283,-0.1336,-0.1336,-0.1336,-0.1336,-0.1336,-0.1336,-0.1336,-0.1336,-0.1336,-0.1336,-0.1257,-0.1099,-0.1021,-0.102,-0.1021,-0.0942,-0.047,0.039,0.0623,0.0156,0.1403,0.2649,0.3205,0.3057,0.3059,0.3528,0.3137,0.3059,0.3528,0.3606,0.3841,0.3763,0.3767,0.3801,0.378,0.3788,0.3984,0.4202,0.4269,0.4295,0.4297,0.4297,0.4297,0.4389,0.4389,0.4478,0.4478,0.4476,0.4387,0.4389,0.4569,0.5015,0.5463,0.5555,0.5552,0.5644,0.5644,0.5733,0.5733,0.5733,0.5733,0.5733,0.5733,0.5733,0.5733,0.5733,0.5733,0.5733,0.5733,0.5733,0.5733,0.5733,0.5733,0.5733,0.5733,0.5733,0.5733,0.5733,0.5733,0.5733,0.5733,0.5733,-0.1495,-0.1479,-0.1466,-0.145,-0.1437,-0.1436,-0.1436,-0.1436,-0.1436,-0.1436,-0.1436,-0.1436,-0.1436,-0.1436,-0.1436,-0.1436,-0.1436,-0.1436,-0.1436,-0.1436,-0.1436,-0.1436,-0.1436,-0.1436,-0.1436,-0.1436,-0.1436,-0.1429,-0.1406,-0.1372,-0.134,-0.1324,-0.1279,-0.1338,-0.1336,-0.1336,-0.1336,-0.1336,-0.1336,-0.1336,-0.1336,-0.1336,-0.1336,-0.1336,-0.1336,-0.1336,-0.1258,-0.1258,-0.1336,-0.11,-0.0392,-0.0235,-0.0863,0.0314,0.1645,0.235,0.2272,0.2117,0.2352,0.2273,0.2117,0.2586,0.2663,0.2899,0.3069,0.3242,0.3441,0.3668,0.3851,0.3984,0.4279,0.4297,0.4297,0.4297,0.4297,0.4297,0.4297,0.4297,0.4297,0.4297,0.4297,0.4297,0.4389,0.4569,0.4748,0.5107,0.5463,0.5463,0.5552,0.5555,0.5644,0.5733,0.5733,0.5733,0.5733,0.5733,0.5733,0.5733,0.5733,0.5733,0.5733,0.5733,0.5733,0.5733,0.5733,0.5733,0.5733,0.5733,0.5733,0.5733,0.5733,0.5733,0.5733,0.5733,0.5733,-0.1473,-0.1472,-0.1446,-0.1436,-0.1436,-0.1436,-0.1436,-0.1436,-0.1436,-0.1436,-0.1436,-0.1436,-0.1436,-0.1436,-0.1436,-0.1436,-0.1436,-0.1436,-0.1436,-0.1436,-0.1436,-0.1436,-0.1436,-0.1436,-0.1436,-0.1436,-0.1436,-0.1421,-0.1393,-0.1361,-0.1334,-0.1304,-0.1273,-0.1338,-0.1336,-0.1336,-0.1336,-0.1336,-0.1336,-0.1336,-0.1336,-0.1336,-0.1336,-0.1336,-0.1336,-0.1336,-0.1336,-0.1336,-0.1336,-0.1336,-0.1336,-0.1336,-0.1099,-0.047,0.0157,0.094,0.094,0.1332,0.1488,0.1332,0.1175,0.1254,0.1332,0.1646,0.2203,0.2476,0.2919,0.3562,0.3996,0.413,0.4291,0.43,0.43,0.4297,0.4297,0.4297,0.4297,0.4297,0.4297,0.4297,0.4297,0.4297,0.4389,0.4478,0.4569,0.475,0.5104,0.5371,0.5463,0.5552,0.5644,0.5733,0.5733,0.5733,0.5733,0.5733,0.5733,0.5733,0.5733,0.5733,0.5733,0.5733,0.5733,0.5733,0.5733,0.5733,0.5733,0.5733,0.5733,0.5733,0.5733,0.5733,0.5733,0.5733,0.5733,-0.1443,-0.1442,-0.1437,-0.1436,-0.1436,-0.1436,-0.1436,-0.1436,-0.1436,-0.1436,-0.1436,-0.1436,-0.1436,-0.1436,-0.1436,-0.1436,-0.1436,-0.1436,-0.1436,-0.1436,-0.1436,-0.1436,-0.1436,-0.1436,-0.1436,-0.1436,-0.1434,-0.1419,-0.1391,-0.1362,-0.1332,-0.1302,-0.1351,-0.1336,-0.1336,-0.1336,-0.1336,-0.1336,-0.1336,-0.1336,-0.1336,-0.1336,-0.1336,-0.1336,-0.1336,-0.1336,-0.1336,-0.1336,-0.1336,-0.1336,-0.1336,-0.1336,-0.1178,-0.0471,-0.0314,-0.0471,-0.0078,0.0392,0.0862,0.0549,0.0705,0.1096,0.1175,0.1175,0.1418,0.1605,0.2382,0.3461,0.3996,0.4109,0.4304,0.4034,0.4208,0.4208,0.4208,0.4208,0.4208,0.4297,0.4297,0.4297,0.4297,0.4297,0.4389,0.4389,0.4478,0.4569,0.4837,0.5104,0.5282,0.546,0.5552,0.5644,0.5733,0.5733,0.5733,0.5733,0.5733,0.5733,0.5733,0.5733,0.5733,0.5733,0.5733,0.5733,0.5733,0.5733,0.5733,0.5733,0.5733,0.5733,0.5733,0.5733,0.5733,0.5733,0.5733,-0.1436,-0.1436,-0.1436,-0.1436,-0.1436,-0.1436,-0.1436,-0.1436,-0.1436,-0.1436,-0.1436,-0.1436,-0.1436,-0.1436,-0.1436,-0.1436,-0.1436,-0.1436,-0.1436,-0.1436,-0.1436,-0.1436,-0.1436,-0.1436,-0.1436,-0.1436,-0.1433,-0.1419,-0.139,-0.1362,-0.1331,-0.1302,-0.1351,-0.1336,-0.1336,-0.1336,-0.1336,-0.1336,-0.1336,-0.1336,-0.1336,-0.1336,-0.1336,-0.1336,-0.1336,-0.1336,-0.1336,-0.1336,-0.1336,-0.1336,-0.1336,-0.1336,-0.1178,-0.1021,-0.0863,-0.1099,-0.0863,-0.0549,-0.0157,-0.0471,-0.0471,-0.0157,-0.0,0.0235,0.0554,0.0971,0.1759,0.3203,0.2635,0.2506,0.2686,0.2864,0.2773,0.2864,0.3223,0.3582,0.3673,0.4032,0.421,0.4297,0.4297,0.4297,0.4297,0.4389,0.4389,0.4478,0.4569,0.4837,0.5191,0.5282,0.546,0.5644,0.5733,0.5733,0.5733,0.5733,0.5733,0.5733,0.5733,0.5733,0.5733,0.5733,0.5733,0.5733,0.5733,0.5733,0.5733,0.5733,0.5733,0.5733,0.5733,0.5733,0.5733,0.5733,0.5733,-0.1436,-0.1436,-0.1436,-0.1436,-0.1436,-0.1436,-0.1436,-0.1436,-0.1436,-0.1436,-0.1436,-0.1436,-0.1436,-0.1436,-0.1436,-0.1436,-0.1436,-0.1436,-0.1436,-0.1436,-0.1436,-0.1436,-0.1436,-0.1436,-0.1436,-0.1436,-0.1435,-0.1416,-0.138,-0.1358,-0.1329,-0.1294,-0.1345,-0.1336,-0.1336,-0.1336,-0.1336,-0.1336,-0.1336,-0.1336,-0.1336,-0.1336,-0.1336,-0.1336,-0.1336,-0.1336,-0.1336,-0.1336,-0.1336,-0.1336,-0.1336,-0.1336,-0.1336,-0.1336,-0.1336,-0.1336,-0.1336,-0.1336,-0.1257,-0.1257,-0.11,-0.1021,-0.1258,-0.0866,-0.048,0.0082,0.0859,0.2309,0.1971,0.0626,0.0985,0.1253,0.1431,0.17,0.2237,0.2686,0.3135,0.3494,0.3941,0.4119,0.4208,0.4297,0.4208,0.4297,0.4389,0.4389,0.4478,0.4659,0.4926,0.5191,0.5371,0.5555,0.5733,0.5733,0.5733,0.5733,0.5733,0.5733,0.5733,0.5733,0.5733,0.5733,0.5733,0.5733,0.5733,0.5733,0.5733,0.5733,0.5733,0.5733,0.5733,0.5733,0.5733,0.5733,0.5733,-0.1436,-0.1436,-0.1436,-0.1436,-0.1436,-0.1436,-0.1436,-0.1436,-0.1436,-0.1436,-0.1436,-0.1436,-0.1436,-0.1436,-0.1436,-0.1436,-0.1436,-0.1436,-0.1436,-0.1436,-0.1436,-0.1436,-0.1436,-0.1436,-0.1436,-0.1436,-0.1436,-0.1402,-0.1371,-0.1356,-0.132,-0.1279,-0.1348,-0.1336,-0.1336,-0.1336,-0.1336,-0.1336,-0.1336,-0.1336,-0.1336,-0.1336,-0.1336,-0.1336,-0.1336,-0.1336,-0.1336,-0.1336,-0.1336,-0.1336,-0.1336,-0.1336,-0.1336,-0.1336,-0.1336,-0.1336,-0.1336,-0.1336,-0.1336,-0.1336,-0.134,-0.1341,-0.1341,-0.1272,-0.106,-0.1009,-0.0696,-0.0893,-0.0179,-0.0,-0.0269,0.0448,0.1074,0.1253,0.1343,0.197,0.2508,0.2686,0.3223,0.3492,0.3491,0.3851,0.4119,0.4208,0.4297,0.4297,0.4389,0.4569,0.4748,0.5015,0.5282,0.5555,0.5733,0.5733,0.5733,0.5733,0.5733,0.5733,0.5733,0.5733,0.5733,0.5733,0.5733,0.5733,0.5733,0.5733,0.5733,0.5733,0.5733,0.5733,0.5733,0.5733,0.5733,0.5733,0.5733,-0.1436,-0.1436,-0.1436,-0.1436,-0.1436,-0.1436,-0.1436,-0.1436,-0.1436,-0.1436,-0.1436,-0.1436,-0.1436,-0.1436,-0.1436,-0.1436,-0.1436,-0.1436,-0.1436,-0.1436,-0.1436,-0.1436,-0.1436,-0.1436,-0.1436,-0.1436,-0.1432,-0.1415,-0.1382,-0.1366,-0.1341,-0.1292,-0.1281,-0.1273,-0.1341,-0.1337,-0.1336,-0.1336,-0.1336,-0.1336,-0.1336,-0.1336,-0.1336,-0.1336,-0.1336,-0.1336,-0.1336,-0.1336,-0.1336,-0.1336,-0.1336,-0.1336,-0.1336,-0.1336,-0.1336,-0.1336,-0.1336,-0.1336,-0.1336,-0.1336,-0.1345,-0.1279,-0.1286,-0.1305,-0.1342,-0.137,-0.1399,-0.1343,-0.0897,-0.0897,-0.1256,-0.0628,-0.0358,-0.009,0.0358,0.0806,0.1433,0.1879,0.2148,0.2505,0.2774,0.3133,0.3582,0.3941,0.4119,0.4297,0.4389,0.4478,0.4748,0.5104,0.5374,0.5644,0.5733,0.5733,0.5733,0.5733,0.5733,0.5733,0.5733,0.5733,0.5733,0.5733,0.5733,0.5733,0.5733,0.5733,0.5733,0.5733,0.5733,0.5733,0.5733,0.5733,0.5733,0.5733,0.5733,-0.1436,-0.1436,-0.1436,-0.1436,-0.1436,-0.1436,-0.1436,-0.1436,-0.1436,-0.1436,-0.1436,-0.1436,-0.1436,-0.1436,-0.1436,-0.1436,-0.1436,-0.1436,-0.1436,-0.1436,-0.1436,-0.1436,-0.1525,-0.1525,-0.1525,-0.1615,-0.1705,-0.1689,-0.1586,-0.1482,-0.1372,-0.1316,-0.1302,-0.1291,-0.1273,-0.1341,-0.1336,-0.1336,-0.1336,-0.1336,-0.1336,-0.1336,-0.1336,-0.1336,-0.1336,-0.1336,-0.1336,-0.1336,-0.1336,-0.1336,-0.1336,-0.1336,-0.1336,-0.1336,-0.1336,-0.1336,-0.1336,-0.1336,-0.1336,-0.1339,-0.1275,-0.1296,-0.1323,-0.1344,-0.1289,-0.1387,-0.1398,-0.1434,-0.1345,-0.1346,-0.1346,-0.1346,-0.1166,-0.0897,-0.0628,-0.0359,-0.0,0.0717,0.1343,0.1878,0.2058,0.2058,0.2596,0.3403,0.3851,0.4208,0.4389,0.4389,0.4748,0.5104,0.5285,0.5552,0.5644,0.5733,0.5733,0.5733,0.5733,0.5733,0.5733,0.5733,0.5733,0.5733,0.5733,0.5733,0.5733,0.5733,0.5733,0.5733,0.5733,0.5733,0.5733,0.5733,0.5733,0.5733,0.5733,-0.1436,-0.1436,-0.1436,-0.1436,-0.1436,-0.1436,-0.1436,-0.1436,-0.1436,-0.1436,-0.1436,-0.1436,-0.1436,-0.1436,-0.1436,-0.1436,-0.1436,-0.1436,-0.1436,-0.1436,-0.1436,-0.1615,-0.1705,-0.1795,-0.1885,-0.2064,-0.2064,-0.2062,-0.2057,-0.1691,-0.148,-0.1351,-0.1497,-0.1392,-0.1371,-0.1354,-0.1348,-0.1348,-0.1346,-0.1342,-0.134,-0.1338,-0.1336,-0.1336,-0.1336,-0.1336,-0.1336,-0.1336,-0.1336,-0.1336,-0.1336,-0.1336,-0.1336,-0.1336,-0.1336,-0.1336,-0.1336,-0.1338,-0.1342,-0.1346,-0.1277,-0.1309,-0.1348,-0.1382,-0.1309,-0.1419,-0.1431,-0.1433,-0.1436,-0.1436,-0.1436,-0.1436,-0.1436,-0.1346,-0.1076,-0.0807,-0.0538,-0.0269,0.0448,0.1163,0.1342,0.1074,0.1432,0.215,0.2865,0.3223,0.3941,0.403,0.4567,0.4926,0.5193,0.5371,0.5644,0.5644,0.5733,0.5733,0.5733,0.5733,0.5733,0.5733,0.5733,0.5733,0.5733,0.5733,0.5733,0.5733,0.5733,0.5733,0.5733,0.5733,0.5733,0.5733,0.5733,0.5733,0.5733,-0.1436,-0.1436,-0.1436,-0.1436,-0.1436,-0.1436,-0.1436,-0.1436,-0.1436,-0.1436,-0.1436,-0.1436,-0.1436,-0.1436,-0.1436,-0.1436,-0.1436,-0.1615,-0.1615,-0.1705,-0.1795,-0.1974,-0.2064,-0.2064,-0.2064,-0.2244,-0.2244,-0.2155,-0.2153,-0.1974,-0.1963,-0.1833,-0.1793,-0.1831,-0.1718,-0.1538,-0.1457,-0.1382,-0.1375,-0.1446,-0.1362,-0.1423,-0.1415,-0.1336,-0.1336,-0.1336,-0.1336,-0.1336,-0.1336,-0.1336,-0.1336,-0.1336,-0.1336,-0.1336,-0.1336,-0.1337,-0.1338,-0.1347,-0.1282,-0.1288,-0.1306,-0.1354,-0.1393,-0.1416,-0.1326,-0.1429,-0.1434,-0.1436,-0.1436,-0.1436,-0.1436,-0.1436,-0.1436,-0.1436,-0.1346,-0.1077,-0.0987,-0.0718,-0.0538,0.009,-0.0,-0.0179,0.0269,0.0806,0.1522,0.2237,0.2955,0.3673,0.421,0.4837,0.5102,0.5282,0.5552,0.5644,0.5733,0.5733,0.5733,0.5733,0.5733,0.5733,0.5733,0.5733,0.5733,0.5733,0.5733,0.5733,0.5733,0.5733,0.5733,0.5733,0.5733,0.5733,0.5733,0.5733,0.5733,-0.1436,-0.1436,-0.1436,-0.1436,-0.1436,-0.1436,-0.1436,-0.1436,-0.1436,-0.1436,-0.1436,-0.1436,-0.1436,-0.1525,-0.1525,-0.1615,-0.1705,-0.1885,-0.1885,-0.1974,-0.2064,-0.2244,-0.2244,-0.2334,-0.2334,-0.2424,-0.2424,-0.2424,-0.2424,-0.2424,-0.2418,-0.2402,-0.2372,-0.2216,-0.2012,-0.1896,-0.1654,-0.1573,-0.1575,-0.1553,-0.1464,-0.1445,-0.1422,-0.134,-0.1336,-0.1336,-0.1336,-0.1336,-0.1336,-0.1336,-0.1336,-0.1336,-0.1336,-0.1336,-0.1336,-0.1338,-0.1347,-0.1281,-0.1299,-0.1326,-0.1345,-0.138,-0.1412,-0.1429,-0.1436,-0.1436,-0.1436,-0.1436,-0.1436,-0.1436,-0.1436,-0.1436,-0.1436,-0.1436,-0.1436,-0.1256,-0.1256,-0.1166,-0.1166,-0.1076,-0.1076,-0.0986,-0.0717,-0.0179,0.0627,0.1522,0.2686,0.3314,0.3673,0.4297,0.4924,0.5193,0.546,0.5552,0.5644,0.5733,0.5733,0.5733,0.5733,0.5733,0.5733,0.5733,0.5733,0.5733,0.5733,0.5733,0.5733,0.5733,0.5733,0.5733,0.5733,0.5733,0.5733,0.5733,0.5733,-0.1436,-0.1436,-0.1436,-0.1436,-0.1436,-0.1436,-0.1436,-0.1436,-0.1436,-0.1436,-0.1436,-0.1436,-0.1615,-0.1795,-0.1795,-0.1885,-0.2064,-0.2155,-0.2155,-0.2244,-0.2334,-0.2334,-0.2424,-0.2515,-0.2604,-0.2785,-0.2785,-0.2784,-0.2785,-0.2784,-0.2785,-0.2757,-0.2623,-0.2415,-0.2159,-0.212,-0.2077,-0.1965,-0.1829,-0.1732,-0.1632,-0.1455,-0.1435,-0.135,-0.1338,-0.1336,-0.1346,-0.1338,-0.1337,-0.1336,-0.1336,-0.1336,-0.1336,-0.1336,-0.1336,-0.1337,-0.1284,-0.1299,-0.1309,-0.1357,-0.1382,-0.1395,-0.1425,-0.1434,-0.1436,-0.1436,-0.1436,-0.1436,-0.1436,-0.1436,-0.1436,-0.1436,-0.1436,-0.1436,-0.1436,-0.1436,-0.1436,-0.1436,-0.1436,-0.1436,-0.1436,-0.1346,-0.1346,-0.1076,-0.0179,0.0806,0.2149,0.2865,0.3044,0.376,0.4385,0.4835,0.5102,0.5552,0.5644,0.5644,0.5733,0.5733,0.5733,0.5733,0.5733,0.5733,0.5733,0.5733,0.5733,0.5733,0.5733,0.5733,0.5733,0.5733,0.5733,0.5733,0.5733,0.5733,0.5733,-0.1436,-0.1436,-0.1436,-0.1436,-0.1436,-0.1436,-0.1436,-0.1436,-0.1436,-0.1525,-0.1615,-0.1705,-0.1795,-0.1974,-0.2064,-0.2155,-0.2244,-0.2424,-0.2424,-0.2424,-0.2515,-0.2694,-0.2784,-0.2784,-0.2785,-0.2875,-0.2875,-0.2875,-0.2875,-0.2875,-0.2845,-0.2809,-0.2756,-0.2555,-0.2281,-0.2168,-0.2135,-0.1987,-0.1985,-0.1965,-0.1709,-0.1688,-0.1598,-0.1363,-0.1348,-0.1348,-0.1284,-0.1273,-0.1341,-0.1339,-0.1339,-0.1336,-0.1336,-0.1336,-0.1336,-0.1342,-0.1286,-0.1322,-0.1347,-0.1384,-0.1399,-0.1414,-0.1427,-0.1436,-0.1436,-0.1436,-0.1436,-0.1436,-0.1436,-0.1436,-0.1436,-0.1436,-0.1436,-0.1436,-0.1436,-0.1436,-0.1436,-0.1436,-0.1436,-0.1436,-0.1436,-0.1436,-0.1436,-0.1436,-0.0717,-0.0358,0.0717,0.1522,0.1879,0.2862,0.3667,0.4206,0.4654,0.5282,0.5644,0.5644,0.5733,0.5733,0.5733,0.5733,0.5733,0.5733,0.5733,0.5733,0.5733,0.5733,0.5733,0.5733,0.5733,0.5733,0.5733,0.5733,0.5733,0.5733,0.5733,-0.1414,-0.1406,-0.1317,-0.1411,-0.1421,-0.1431,-0.1436,-0.1436,-0.1525,-0.1615,-0.1795,-0.1885,-0.2064,-0.2244,-0.2334,-0.2424,-0.2424,-0.2604,-0.2604,-0.2694,-0.2785,-0.2875,-0.2875,-0.2875,-0.2875,-0.2875,-0.2875,-0.2875,-0.2875,-0.2875,-0.2827,-0.2669,-0.2691,-0.2567,-0.2386,-0.2377,-0.231,-0.2239,-0.2225,-0.2055,-0.1872,-0.1692,-0.1606,-0.1372,-0.1289,-0.1287,-0.1301,-0.1294,-0.1352,-0.1349,-0.1343,-0.1338,-0.1336,-0.1336,-0.1336,-0.1345,-0.1288,-0.1326,-0.1358,-0.1371,-0.1385,-0.1411,-0.1427,-0.1435,-0.1436,-0.1436,-0.1436,-0.1436,-0.1436,-0.1436,-0.1436,-0.1436,-0.1436,-0.1436,-0.1436,-0.1436,-0.1436,-0.1436,-0.1436,-0.1436,-0.1436,-0.1436,-0.1436,-0.1436,-0.1166,-0.0987,-0.0807,-0.0,0.0806,0.1789,0.2861,0.3398,0.4115,0.4743,0.5282,0.5644,0.5644,0.5733,0.5733,0.5733,0.5733,0.5733,0.5733,0.5733,0.5733,0.5733,0.5733,0.5733,0.5733,0.5733,0.5733,0.5733,0.5733,0.5733,0.5733,-0.1373,-0.135,-0.1348,-0.1365,-0.1391,-0.1415,-0.1429,-0.1435,-0.1705,-0.1795,-0.1885,-0.2155,-0.2334,-0.2515,-0.2515,-0.2604,-0.2785,-0.2875,-0.2875,-0.2875,-0.2875,-0.2875,-0.2875,-0.2875,-0.2875,-0.2875,-0.2872,-0.2868,-0.2869,-0.282,-0.2677,-0.2615,-0.2628,-0.2504,-0.2495,-0.2514,-0.2538,-0.2448,-0.2372,-0.2205,-0.1947,-0.1786,-0.1549,-0.1393,-0.1313,-0.1322,-0.1328,-0.1317,-0.1302,-0.1289,-0.1274,-0.1342,-0.1336,-0.1336,-0.1336,-0.1346,-0.129,-0.1313,-0.1345,-0.1353,-0.1367,-0.1395,-0.1416,-0.1429,-0.1436,-0.1436,-0.1436,-0.1436,-0.1436,-0.1436,-0.1436,-0.1436,-0.1436,-0.1436,-0.1436,-0.1436,-0.1436,-0.1436,-0.1436,-0.1436,-0.1436,-0.1436,-0.1436,-0.1436,-0.1436,-0.1346,-0.1077,-0.0807,-0.0,0.0806,0.17,0.2592,0.3309,0.4115,0.4654,0.5282,0.5644,0.5644,0.5733,0.5733,0.5733,0.5733,0.5733,0.5733,0.5733,0.5733,0.5733,0.5733,0.5733,0.5733,0.5733,0.5733,0.5733,0.5733,0.5733,-0.1355,-0.1348,-0.1348,-0.1353,-0.1361,-0.1539,-0.1656,-0.1701,-0.1795,-0.1974,-0.2334,-0.2334,-0.2508,-0.2784,-0.2785,-0.2871,-0.2872,-0.2875,-0.2875,-0.2872,-0.2861,-0.2871,-0.2873,-0.2872,-0.2873,-0.2873,-0.2868,-0.2847,-0.2794,-0.2747,-0.2687,-0.254,-0.2575,-0.2533,-0.253,-0.2546,-0.2549,-0.2555,-0.2491,-0.2258,-0.2026,-0.1867,-0.1647,-0.142,-0.1339,-0.1352,-0.1358,-0.1328,-0.131,-0.13,-0.1274,-0.1337,-0.1336,-0.1337,-0.1341,-0.1286,-0.1288,-0.129,-0.1332,-0.1328,-0.1336,-0.1376,-0.1399,-0.1415,-0.1427,-0.1436,-0.1436,-0.1436,-0.1436,-0.1436,-0.1436,-0.1436,-0.1436,-0.1436,-0.1436,-0.1436,-0.1436,-0.1436,-0.1436,-0.1436,-0.1436,-0.1436,-0.1436,-0.1436,-0.1436,-0.1436,-0.1346,-0.1166,-0.0897,-0.009,0.0717,0.152,0.2324,0.322,0.4202,0.483,0.5282,0.5644,0.5644,0.5733,0.5733,0.5733,0.5733,0.5733,0.5733,0.5733,0.5733,0.5733,0.5733,0.5733,0.5733,0.5733,0.5733,0.5733,0.5733,-0.231,-0.2292,-0.2291,-0.2138,-0.191,-0.1843,-0.1882,-0.2008,-0.2013,-0.2195,-0.2479,-0.2545,-0.2739,-0.2861,-0.2826,-0.2808,-0.2831,-0.28,-0.279,-0.2794,-0.2828,-0.2831,-0.2839,-0.286,-0.2873,-0.2869,-0.2846,-0.2815,-0.2752,-0.267,-0.2604,-0.2518,-0.2541,-0.2518,-0.2514,-0.2519,-0.2515,-0.2515,-0.2442,-0.2218,-0.2079,-0.186,-0.1657,-0.1434,-0.1352,-0.1375,-0.138,-0.1337,-0.1323,-0.1312,-0.1284,-0.1337,-0.1336,-0.1337,-0.1339,-0.1277,-0.1351,-0.1275,-0.13,-0.1308,-0.1331,-0.1361,-0.1384,-0.1407,-0.1423,-0.1436,-0.1436,-0.1436,-0.1436,-0.1436,-0.1436,-0.1436,-0.1436,-0.1436,-0.1436,-0.1436,-0.1436,-0.1436,-0.1436,-0.1436,-0.1436,-0.1436,-0.1436,-0.1436,-0.1436,-0.1436,-0.1436,-0.1346,-0.1166,-0.0897,-0.0179,0.0537,0.1431,0.2235,0.3217,0.42,0.4741,0.5282,0.5644,0.5644,0.5733,0.5733,0.5733,0.5733,0.5733,0.5733,0.5733,0.5733,0.5733,0.5733,0.5733,0.5733,0.5733,0.5733,0.5733,-0.3832,-0.3839,-0.3832,-0.3337,-0.2916,-0.2313,-0.2254,-0.2343,-0.2259,-0.2375,-0.2496,-0.2635,-0.2759,-0.2807,-0.2758,-0.2744,-0.2755,-0.2738,-0.2725,-0.2698,-0.2753,-0.2775,-0.2792,-0.2826,-0.2822,-0.2827,-0.2809,-0.276,-0.273,-0.2649,-0.2578,-0.2509,-0.254,-0.2511,-0.251,-0.251,-0.2511,-0.2512,-0.2444,-0.2382,-0.207,-0.1849,-0.171,-0.1402,-0.135,-0.1383,-0.1377,-0.1361,-0.1344,-0.1324,-0.1296,-0.1339,-0.1336,-0.1336,-0.1338,-0.1338,-0.1338,-0.1341,-0.1277,-0.129,-0.1318,-0.1348,-0.1374,-0.1403,-0.1423,-0.1434,-0.1436,-0.1436,-0.1436,-0.1436,-0.1436,-0.1436,-0.1436,-0.1436,-0.1436,-0.1436,-0.1436,-0.1436,-0.1436,-0.1436,-0.1436,-0.1436,-0.1436,-0.1436,-0.1436,-0.1436,-0.1436,-0.1436,-0.1346,-0.1256,-0.0897,-0.0269,0.0537,0.1342,0.2146,0.3129,0.4022,0.4652,0.5102,0.5555,0.5552,0.5644,0.5733,0.5733,0.5733,0.5733,0.5733,0.5733,0.5733,0.5733,0.5733,0.5733,0.5733,0.5733,0.5733,-0.4012,-0.4384,-0.4146,-0.3614,-0.3081,-0.302,-0.2794,-0.2475,-0.2474,-0.2536,-0.2612,-0.2699,-0.2707,-0.273,-0.2702,-0.2694,-0.2699,-0.2683,-0.2692,-0.2685,-0.2707,-0.2714,-0.2717,-0.2743,-0.2747,-0.2732,-0.2714,-0.2692,-0.2727,-0.2579,-0.2534,-0.2533,-0.2511,-0.251,-0.251,-0.251,-0.2512,-0.2523,-0.2552,-0.241,-0.2181,-0.1945,-0.18,-0.1575,-0.1525,-0.1359,-0.135,-0.1332,-0.1318,-0.1304,-0.1277,-0.1339,-0.1336,-0.1336,-0.1336,-0.1336,-0.1336,-0.1336,-0.1344,-0.1285,-0.1316,-0.1345,-0.1374,-0.1403,-0.1423,-0.1431,-0.1436,-0.1436,-0.1436,-0.1436,-0.1436,-0.1436,-0.1436,-0.1436,-0.1436,-0.1436,-0.1436,-0.1436,-0.1436,-0.1436,-0.1436,-0.1436,-0.1436,-0.1436,-0.1436,-0.1436,-0.1436,-0.1436,-0.1436,-0.1346,-0.1346,-0.0807,-0.0269,0.0537,0.1253,0.1967,0.286,0.3664,0.4202,0.4741,0.5371,0.5555,0.5733,0.5733,0.5733,0.5733,0.5733,0.5733,0.5733,0.5733,0.5733,0.5733,0.5733,0.5733,0.5733,-0.5085,-0.5243,-0.4849,-0.446,-0.3992,-0.3522,-0.3134,-0.2901,-0.251,-0.2468,-0.2604,-0.2614,-0.2638,-0.2661,-0.2639,-0.2636,-0.264,-0.262,-0.2604,-0.2609,-0.2644,-0.2651,-0.2658,-0.2673,-0.2699,-0.2691,-0.2657,-0.2621,-0.2567,-0.2538,-0.2512,-0.251,-0.251,-0.251,-0.251,-0.2511,-0.2526,-0.2472,-0.2589,-0.2533,-0.2386,-0.2231,-0.1878,-0.1732,-0.1577,-0.1418,-0.1326,-0.131,-0.1307,-0.1295,-0.1273,-0.134,-0.1336,-0.1336,-0.1336,-0.1336,-0.1336,-0.1336,-0.1345,-0.1285,-0.1315,-0.1343,-0.1373,-0.1403,-0.1427,-0.1436,-0.1436,-0.1436,-0.1436,-0.1436,-0.1436,-0.1436,-0.1436,-0.1436,-0.1436,-0.1436,-0.1436,-0.1436,-0.1436,-0.1436,-0.1436,-0.1436,-0.1436,-0.1436,-0.1436,-0.1436,-0.1436,-0.1436,-0.1436,-0.1436,-0.1436,-0.1256,-0.0718,-0.0179,0.0448,0.1074,0.1609,0.2413,0.3218,0.4291,0.5102,0.5463,0.5733,0.5733,0.5733,0.5733,0.5733,0.5733,0.5733,0.5733,0.5733,0.5733,0.5733,0.5733,0.5733,-0.6261,-0.618,-0.5709,-0.5398,-0.5162,-0.399,-0.3366,-0.329,-0.2586,-0.2353,-0.2519,-0.252,-0.2579,-0.2597,-0.2572,-0.2572,-0.2567,-0.2557,-0.253,-0.2537,-0.2572,-0.2585,-0.2608,-0.2634,-0.264,-0.2634,-0.2606,-0.2567,-0.2522,-0.251,-0.251,-0.251,-0.251,-0.251,-0.2511,-0.2526,-0.2548,-0.2589,-0.2625,-0.2654,-0.2592,-0.2524,-0.206,-0.1798,-0.1635,-0.1571,-0.1392,-0.1299,-0.1298,-0.1288,-0.1351,-0.1342,-0.1336,-0.1336,-0.1336,-0.1336,-0.1336,-0.1336,-0.1343,-0.1285,-0.1312,-0.1339,-0.1371,-0.1399,-0.1423,-0.1434,-0.1434,-0.1436,-0.1436,-0.1436,-0.1436,-0.1436,-0.1436,-0.1436,-0.1436,-0.1436,-0.1436,-0.1436,-0.1436,-0.1436,-0.1436,-0.1436,-0.1436,-0.1436,-0.1436,-0.1436,-0.1436,-0.1436,-0.1436,-0.1436,-0.1436,-0.1436,-0.1166,-0.0628,-0.0269,0.009,0.0537,0.1253,0.2147,0.3576,0.4743,0.5193,0.5552,0.5733,0.5733,0.5733,0.5733,0.5733,0.5733,0.5733,0.5733,0.5733,0.5733,0.5733,0.5733,-0.6261,-0.6338,-0.6483,-0.6167,-0.5544,-0.4846,-0.43,-0.3677,-0.2821,-0.251,-0.251,-0.2511,-0.2531,-0.2546,-0.2529,-0.2526,-0.2533,-0.2514,-0.2512,-0.2519,-0.2533,-0.2531,-0.254,-0.2568,-0.2549,-0.2546,-0.2546,-0.2525,-0.251,-0.251,-0.251,-0.251,-0.251,-0.2512,-0.2519,-0.2544,-0.2586,-0.2627,-0.2687,-0.273,-0.2699,-0.2532,-0.2266,-0.1994,-0.1809,-0.1557,-0.1379,-0.1357,-0.1348,-0.1343,-0.1341,-0.1338,-0.1336,-0.1336,-0.1336,-0.1336,-0.1336,-0.1336,-0.1346,-0.1282,-0.1305,-0.1319,-0.135,-0.1387,-0.1409,-0.1428,-0.143,-0.1435,-0.1436,-0.1436,-0.1436,-0.1436,-0.1436,-0.1436,-0.1436,-0.1436,-0.1436,-0.1436,-0.1436,-0.1436,-0.1436,-0.1436,-0.1436,-0.1436,-0.1436,-0.1436,-0.1436,-0.1436,-0.1436,-0.1436,-0.1436,-0.1436,-0.1436,-0.1436,-0.1166,-0.0987,-0.0538,0.0179,0.1074,0.2504,0.3844,0.4921,0.5282,0.5552,0.5644,0.5733,0.5733,0.5733,0.5733,0.5733,0.5733,0.5733,0.5733,0.5733,0.5733]},{"header":{"parameterUnit":"m.s-1","parameterCategory":1,"la1":31.0,"la2":29.5877,"lo1":-88.7671,"lo2":-86.6584,"dy":0.0162,"dx":0.0185,"nx":115,"ny":88,"refTime":"2024-07-10T06:00:00:Z","depth":0,"parameterNumber":3,"parameterNumberName":"V-component_of_WINDS"},"data":[0.0,0.0,0.0,0.0,0.0,0.0,0.0,0.0,0.0,0.0,0.0,0.0,0.0,0.0,0.0,0.0,0.0,0.0,0.0,0.0,0.0,0.0,0.0,0.0,0.0,0.0,0.0,0.0,0.0,0.0,0.0,0.0,0.0,0.0,0.0,0.0,0.0,0.0,0.0,0.0,0.0,0.0,0.0,0.0,0.0,0.0,0.0,0.0,0.0,0.0,0.0,0.0,0.0,0.0,0.0,0.0,0.0,0.0,0.0,0.0,0.0,0.0,0.0,0.0,0.0,0.0,0.0,0.0,0.0,0.0,0.0,0.0,0.0,0.0,0.0,0.0,0.0,0.0,0.0,0.0,0.0,0.0,0.0,0.0,0.0,0.0,0.0,0.0,0.0,0.0,0.0,0.0,0.0,0.0,0.0,0.0,0.0,0.0,0.0,0.0,0.0,0.0,0.0,0.0,0.0,0.0,0.0,0.0,0.0,0.0,0.0,0.0,0.0,0.0,0.0,0.0,0.0,0.0,0.0,0.0,0.0,0.0,0.0,0.0,0.0,0.0,0.0,0.0,0.0,0.0,0.0,0.0,0.0,0.0,0.0,0.0,0.0,0.0,0.0,0.0,0.0,0.0,0.0,0.0,0.0,0.0,0.0,0.0,0.0,0.0,0.0,0.0,0.0,0.0,0.0,0.0,0.0,0.0,0.0,0.0,0.0,0.0,0.0,0.0,0.0,0.0,0.0,0.0,0.0,0.0,0.0,0.0,0.0,0.0,0.0,0.0,0.0,0.0,0.0,0.0,0.0,0.0,0.0,0.0,0.0,0.0,0.0,0.0,0.0,0.0,0.0,0.0,0.0,0.0,0.0,0.0,0.0,0.0,0.0,0.0,0.0,0.0,0.0,0.0,0.0,0.0,0.0,0.0,0.0,0.0,0.0,0.0,0.0,0.0,0.0,0.0,0.0,0.0,0.0,0.0,0.0,0.0,0.0,0.0,0.0,0.0,0.0,0.0,0.0,0.0,0.0,0.0,0.0,0.0,0.0,0.0,0.0,0.0,0.0,0.0,0.0,0.0,0.0,0.0,0.0,0.0,0.0,0.0,0.0,0.0,0.0,0.0,0.0,0.0,0.0,0.0,0.0,0.0,0.0,0.0,0.0,0.0,0.0,0.0,0.0,0.0,0.0,0.0,0.0,0.0,0.0,0.0,0.0,0.0,0.0,0.0,0.0,0.0,0.0,0.0,0.0,0.0,0.0,0.0,0.0,0.0,0.0,0.0,0.0,0.0,0.0,0.0,0.0,0.0,0.0,0.0,0.0,0.0,0.0,0.0,0.0,0.0,0.0,0.0,0.0,0.0,0.0,0.0,0.0,0.0,0.0,0.0,0.0,0.0,0.0,0.0,0.0,0.0,0.0,0.0,0.0,0.0,0.0,0.0,0.0,0.0,0.0,0.0,0.0,0.0,0.0,0.0,0.0,0.0,0.0,0.0,0.0,0.0,0.0,0.0,0.0,0.0,0.0,0.0,0.0,0.0,0.0,0.0,0.0,0.0,0.0,0.0,0.0,0.0,0.0,0.0,0.0,0.0,0.0,0.0,0.0,0.0,0.0,0.0,0.0,0.0,0.0,0.0,0.0,0.0,0.0,0.0,0.0,0.0,0.0,0.0,0.0,0.0,0.0,0.0,0.0,0.0,0.0,0.0,0.0,0.0,0.0,0.0,0.0,0.0,0.0,0.0,0.0,0.0,0.0,0.0,0.0,0.0,0.0,0.0,0.0,0.0,0.0,0.0,0.0,0.0,0.0,0.0,0.0,0.0,0.0,0.0,0.0,0.0,0.0,0.0,0.0,0.0,0.0,0.0,0.0,0.0,0.0,0.0,0.0,0.0,0.0,0.0,0.0,0.0,0.0,0.0,0.0,0.0,0.0,0.0,0.0,0.0,0.0,0.0,0.0,0.0,0.0,0.0,0.0,0.0,0.0,0.0,0.0,0.0,0.0,0.0,0.0,0.0,0.0,0.0,0.0,0.0,0.0,0.0,0.0,0.0,0.0,0.0,0.0,0.0,0.0,0.0,0.0,0.0,0.0,0.0,0.0,0.0,0.0,0.0,0.0,0.0,0.0,0.0,0.0,0.0,0.0,0.0,0.0,0.0,0.0,0.0,0.0,0.0,0.0,0.0,0.0,0.0,0.0,0.0,0.0,0.0,0.0,0.0,0.0,0.0,0.0,0.0,0.0,0.0,0.0,0.0,0.0,0.0,0.0,0.0,0.0,0.0,0.0,0.0,0.0,0.0,0.0,0.0,0.0,0.0,0.0,0.0,0.0,0.0,0.0,0.0,0.0,0.0,0.0,0.0,0.0,0.0,0.0,0.0,0.0,0.0,0.0,0.0,0.0,0.0,0.0,0.0,0.0,0.0,0.0,0.0,0.0,0.0,0.0,0.0,0.0,0.0,0.0,0.0,0.0,0.0,0.0,0.0,0.0,0.0,0.0,0.0,0.0,0.0,0.0,0.0,0.0,0.0,0.0,0.0,0.0,0.0,0.0,0.0,0.0,0.0,0.0,0.0,0.0,0.0,0.0,0.0,0.0,0.0,0.0,0.0,0.0,0.0,0.0,0.0,0.0,0.0,0.0,0.0,0.0,0.0,0.0,0.0,0.0,0.0,0.0,0.0,0.0,0.0,0.0,0.0,0.0,0.0,0.0,0.0,0.0,0.0,0.0,0.0,0.0,0.0,0.0,0.0,0.0,0.0,0.0,0.0,0.0,0.0,0.0,0.0,0.0,0.0,0.0,0.0,0.0,0.0,0.0,0.0,0.0,0.0,0.0,0.0,0.0,0.0,0.0,0.0,0.0,0.0,0.0,0.0,0.0,0.0,0.0,0.0,0.0,0.0,0.0,0.0,0.0,0.0,0.0,0.0,0.0,0.0,0.0,0.0,0.0,0.0,0.0,0.0,0.0,0.0,0.0,0.0,0.0,0.0,0.0,0.0,0.0,0.0,0.0,0.0,0.0,0.0,0.0,0.0,0.0,0.0,0.0,0.0,0.0,0.0,0.0,0.0,0.0,0.0,0.0,0.0,0.0,0.0,0.0,0.0,0.0,0.0,0.0,0.0,0.0,0.0,0.0,0.0,0.0,0.0,0.0,0.0,0.0,0.0,0.0,0.0,0.0,0.0,0.0,0.0,0.0,0.0,0.0,0.0,0.0,0.0,0.0,0.0,0.0,0.0,0.0,0.0,0.0,0.0,0.0,0.0,0.0,0.0,0.0,0.0,0.0,0.0,0.0,0.0,0.0,0.0,0.0,0.0,0.0,0.0,0.0,0.0,0.0,0.0,0.0,0.0,0.0,0.0,0.0,0.0,0.0,0.0,0.0,0.0,0.0,0.0,0.0,0.0,0.0,0.0,0.0,0.0,0.0,0.0,0.0,0.0,0.0,0.0,0.0,0.0,0.0,0.0,0.0,0.0,0.0,0.0,0.0,0.0,0.0,0.0,0.0,0.0,0.0,0.0,0.0,0.0,0.0,0.0,0.0,0.0,0.0,0.0,0.0,0.0,0.0,0.0,0.0,0.0,0.0,0.0,0.0,0.0,0.0,0.0,0.0,0.0,0.0,0.0,0.0,0.0,0.0,0.0,0.0,0.0,0.0,0.0,0.0,0.0,0.0,0.0,0.0,0.0,0.0,0.0,0.0,0.0,0.0,0.0,0.0,0.0,0.0,0.0,0.0,0.0,0.0,0.0,0.0,0.0,0.0,0.0,0.0,0.0,0.0,0.0,0.0,0.0,0.0,0.0,0.0,0.0,0.0,0.0,0.0,0.0,0.0,0.0,0.0,0.0,0.0,0.0,0.0,0.0,0.0,0.0,0.0,0.0,0.0,0.0,0.0,0.0,0.0,0.0,0.0,0.0,0.0,0.0,0.0,0.0,0.0,0.0,0.0,0.0,0.0,0.0,0.0,0.0,0.0,0.0,0.0,0.0,0.0,0.0,0.0,0.0,0.0,0.0,0.0,0.0,0.0,0.0,0.0,0.0,0.0,0.0,0.0,0.0,0.0,0.0,0.0,0.0,0.0,0.0,0.0,0.0,0.0,0.0,0.0,0.0,0.0,0.0,0.0,0.0,0.0,0.0,0.0,0.0,0.0,0.0,0.0,0.0,0.0,0.0,0.0,0.0,0.0,0.0,0.0,0.0,0.0,0.0,0.0,0.0,0.0,0.0,0.0,0.0,0.0,0.0,0.0,0.0,0.0,0.0,0.0,0.0,0.0,0.0,-1.0188,0.0,0.0,0.0,0.0,0.0,0.0,0.0,0.0,0.0,0.0,0.0,0.0,0.0,0.0,0.0,0.0,0.0,0.0,0.0,0.0,0.0,0.0,0.0,0.0,0.0,0.0,0.0,0.0,0.0,0.0,0.0,0.0,0.0,0.0,0.0,0.0,0.0,0.0,0.0,0.0,0.0,0.0,0.0,0.0,0.0,0.0,0.0,0.0,0.0,0.0,0.0,0.0,0.0,0.0,0.0,0.0,0.0,0.0,0.0,0.0,0.0,0.0,0.0,0.0,0.0,0.0,0.0,0.0,0.0,0.0,0.0,0.0,0.0,0.0,0.0,0.0,0.0,0.0,0.0,0.0,0.0,0.0,0.0,0.0,0.0,0.0,0.0,0.0,0.0,0.0,0.0,0.0,0.0,0.0,0.0,0.0,0.0,0.0,0.0,0.0,0.0,0.0,0.0,0.0,0.0,0.0,0.0,0.0,0.0,0.0,-1.0193,-1.0185,-1.0199,-1.0186,-1.0196,0.0,0.0,0.0,0.0,0.0,0.0,0.0,0.0,0.0,0.0,0.0,0.0,0.0,0.0,0.0,0.0,0.0,0.0,0.0,0.0,0.0,0.0,0.0,0.0,0.0,0.0,0.0,0.0,0.0,0.0,0.0,0.0,0.0,0.0,0.0,0.0,0.0,0.0,0.0,0.0,0.0,0.0,0.0,0.0,0.0,0.0,0.0,0.0,0.0,0.0,0.0,0.0,0.0,0.0,0.0,0.0,0.0,0.0,0.0,0.0,0.0,0.0,0.0,0.0,0.0,0.0,0.0,0.0,0.0,0.0,0.0,0.0,0.0,0.0,0.0,0.0,0.0,0.0,0.0,0.0,0.0,0.0,0.0,0.0,0.0,0.0,0.0,0.0,0.0,0.0,0.0,0.0,0.0,0.0,0.0,0.0,0.0,0.0,0.0,0.0,0.0,0.0,0.0,0.0,0.0,0.0,0.0,0.0,0.0,0.0,0.0,0.0,-1.0764,-1.0772,-1.0766,0.0,0.0,0.0,0.0,0.0,0.0,0.0,0.0,0.0,0.0,0.0,0.0,0.0,0.0,0.0,0.0,0.0,0.0,0.0,0.0,0.0,0.0,0.0,0.0,0.0,0.0,0.0,0.0,0.0,0.0,0.0,0.0,0.0,0.0,0.0,0.0,0.0,0.0,0.0,0.0,0.0,0.0,0.0,0.0,0.0,0.0,0.0,0.0,0.0,0.0,0.0,0.0,0.0,0.0,0.0,0.0,0.0,0.0,0.0,0.0,0.0,0.0,0.0,0.0,0.0,0.0,0.0,0.0,0.0,0.0,0.0,0.0,0.0,0.0,0.0,0.0,0.0,0.0,0.0,0.0,0.0,0.0,0.0,0.0,0.0,0.0,0.0,0.0,0.0,0.0,0.0,0.0,0.0,0.0,0.0,0.0,0.0,0.0,0.0,0.0,0.0,0.0,0.0,0.0,0.0,0.0,0.0,0.0,0.0,0.0,-1.0937,-1.2421,-1.2457,0.0,-1.2492,0.0,0.0,0.0,0.0,0.0,0.0,0.0,0.0,0.0,0.0,0.0,0.0,0.0,0.0,0.0,0.0,0.0,0.0,0.0,0.0,0.0,0.0,0.0,0.0,0.0,0.0,0.0,0.0,0.0,0.0,0.0,0.0,0.0,0.0,0.0,0.0,0.0,0.0,0.0,0.0,0.0,0.0,0.0,0.0,0.0,0.0,0.0,0.0,0.0,0.0,0.0,0.0,0.0,0.0,0.0,0.0,0.0,0.0,0.0,0.0,0.0,0.0,0.0,0.0,0.0,0.0,0.0,0.0,0.0,0.0,0.0,0.0,0.0,0.0,0.0,0.0,0.0,0.0,0.0,0.0,0.0,0.0,0.0,0.0,0.0,0.0,0.0,0.0,0.0,0.0,0.0,0.0,0.0,0.0,0.0,0.0,0.0,0.0,0.0,0.0,0.0,0.0,0.0,0.0,0.0,0.0,0.0,0.0,0.0,0.0,0.0,-1.2689,-1.2704,-1.2699,0.0,0.0,0.0,0.0,0.0,0.0,0.0,0.0,0.0,0.0,0.0,0.0,0.0,0.0,0.0,0.0,0.0,0.0,0.0,0.0,0.0,0.0,0.0,0.0,0.0,0.0,0.0,0.0,0.0,0.0,0.0,0.0,0.0,0.0,0.0,0.0,0.0,0.0,0.0,0.0,0.0,0.0,0.0,0.0,0.0,0.0,0.0,0.0,0.0,0.0,0.0,0.0,0.0,0.0,0.0,0.0,0.0,0.0,0.0,0.0,0.0,0.0,0.0,0.0,0.0,0.0,0.0,0.0,0.0,0.0,0.0,0.0,0.0,0.0,0.0,0.0,0.0,0.0,0.0,0.0,0.0,0.0,0.0,0.0,0.0,0.0,0.0,0.0,0.0,0.0,0.0,0.0,0.0,0.0,0.0,0.0,0.0,0.0,0.0,0.0,0.0,0.0,0.0,0.0,0.0,0.0,0.0,0.0,0.0,0.0,-1.2322,0.0,-1.3345,-1.3383,-1.3176,-1.2709,0.0,0.0,0.0,0.0,0.0,0.0,0.0,0.0,0.0,0.0,0.0,0.0,0.0,0.0,0.0,0.0,0.0,0.0,0.0,0.0,0.0,0.0,0.0,0.0,0.0,0.0,0.0,0.0,0.0,0.0,0.0,0.0,0.0,0.0,0.0,0.0,0.0,0.0,0.0,0.0,0.0,0.0,0.0,0.0,0.0,0.0,0.0,0.0,0.0,0.0,0.0,0.0,0.0,0.0,0.0,0.0,0.0,0.0,0.0,0.0,0.0,0.0,0.0,0.0,0.0,0.0,0.0,0.0,0.0,0.0,0.0,0.0,0.0,0.0,0.0,0.0,0.0,0.0,0.0,0.0,0.0,0.0,0.0,0.0,0.0,0.0,0.0,0.0,0.0,0.0,0.0,0.0,0.0,0.0,0.0,0.0,0.0,0.0,0.0,0.0,0.0,0.0,0.0,0.0,0.0,0.0,0.0,0.0,0.0,-1.348,-1.3484,-1.5041,-1.508,-1.433,0.0,0.0,0.0,0.0,0.0,0.0,0.0,0.0,0.0,0.0,0.0,0.0,0.0,0.0,0.0,0.0,0.0,0.0,0.0,0.0,0.0,0.0,0.0,0.0,0.0,0.0,0.0,0.0,0.0,0.0,0.0,0.0,0.0,0.0,0.0,0.0,0.0,0.0,0.0,0.0,0.0,0.0,0.0,0.0,0.0,0.0,0.0,0.0,0.0,0.0,0.0,0.0,0.0,0.0,0.0,0.0,0.0,0.0,0.0,0.0,0.0,0.0,0.0,0.0,0.0,0.0,0.0,0.0,0.0,0.0,0.0,0.0,0.0,0.0,0.0,0.0,0.0,0.0,0.0,0.0,0.0,0.0,0.0,0.0,0.0,0.0,0.0,0.0,0.0,0.0,0.0,0.0,0.0,0.0,0.0,0.0,0.0,0.0,0.0,0.0,0.0,0.0,0.0,0.0,0.0,0.0,0.0,0.0,0.0,-1.1988,-1.2468,-1.4013,-1.658,-1.4739,-1.381,0.0,0.0,0.0,0.0,0.0,0.0,0.0,0.0,0.0,0.0,0.0,0.0,0.0,0.0,0.0,0.0,0.0,0.0,0.0,0.0,0.0,0.0,0.0,0.0,0.0,0.0,0.0,0.0,0.0,0.0,0.0,0.0,0.0,0.0,0.0,0.0,0.0,0.0,0.0,0.0,0.0,0.0,0.0,0.0,0.0,0.0,0.0,0.0,0.0,0.0,0.0,0.0,0.0,0.0,0.0,0.0,0.0,0.0,0.0,0.0,0.0,0.0,0.0,0.0,0.0,0.0,0.0,0.0,0.0,0.0,0.0,0.0,0.0,0.0,0.0,0.0,0.0,0.0,0.0,0.0,0.0,0.0,0.0,0.0,0.0,0.0,0.0,0.0,0.0,0.0,0.0,0.0,0.0,0.0,0.0,0.0,0.0,0.0,0.0,0.0,0.0,0.0,0.0,0.0,0.0,0.0,0.0,0.0,0.0,-1.1798,0.0,-1.5127,0.0,-1.4635,-1.3428,0.0,0.0,0.0,0.0,0.0,0.0,0.0,0.0,0.0,0.0,0.0,0.0,0.0,0.0,0.0,0.0,0.0,0.0,0.0,0.0,0.0,0.0,0.0,0.0,0.0,0.0,0.0,0.0,0.0,0.0,0.0,0.0,0.0,0.0,0.0,0.0,0.0,0.0,0.0,0.0,0.0,0.0,0.0,0.0,0.0,0.0,0.0,0.0,0.0,0.0,0.0,0.0,0.0,0.0,0.0,0.0,0.0,0.0,0.0,0.0,0.0,0.0,0.0,0.0,0.0,0.0,0.0,0.0,0.0,0.0,0.0,0.0,0.0,0.0,0.0,0.0,0.0,0.0,0.0,0.0,0.0,0.0,0.0,0.0,0.0,0.0,0.0,0.0,0.0,0.0,0.0,0.0,0.0,0.0,0.0,0.0,0.0,0.0,0.0,0.0,0.0,0.0,0.0,0.0,0.0,0.0,0.0,0.0,-1.184,-1.4976,-1.6563,-1.6609,-1.5222,-1.4882,-1.3311,0.0,0.0,0.0,0.0,0.0,0.0,0.0,0.0,0.0,0.0,0.0,0.0,0.0,0.0,0.0,0.0,0.0,0.0,0.0,0.0,0.0,0.0,0.0,0.0,0.0,0.0,0.0,0.0,0.0,0.0,0.0,0.0,0.0,0.0,0.0,0.0,0.0,0.0,0.0,0.0,0.0,0.0,0.0,0.0,0.0,0.0,0.0,0.0,0.0,0.0,0.0,0.0,0.0,0.0,0.0,0.0,0.0,0.0,0.0,0.0,0.0,0.0,0.0,0.0,0.0,0.0,0.0,0.0,0.0,0.0,0.0,0.0,0.0,0.0,0.0,0.0,0.0,0.0,0.0,0.0,0.0,0.0,0.0,0.0,0.0,0.0,0.0,0.0,0.0,0.0,0.0,0.0,0.0,0.0,0.0,0.0,0.0,0.0,0.0,0.0,0.0,0.0,0.0,0.0,0.0,0.0,0.0,0.0,0.0,-1.3271,-1.4384,-1.5533,-1.6514,-1.3853,-1.2664,0.0,0.0,0.0,0.0,0.0,0.0,0.0,0.0,0.0,0.0,0.0,0.0,0.0,0.0,0.0,0.0,0.0,0.0,0.0,0.0,0.0,0.0,0.0,0.0,0.0,0.0,0.0,0.0,0.0,0.0,0.0,0.0,0.0,0.0,0.0,0.0,0.0,0.0,0.0,0.0,0.0,0.0,0.0,0.0,0.0,0.0,0.0,0.0,0.0,0.0,0.0,0.0,0.0,0.0,0.0,0.0,0.0,0.0,0.0,0.0,0.0,0.0,0.0,0.0,0.0,0.0,0.0,0.0,0.0,0.0,0.0,0.0,0.0,0.0,0.0,0.0,0.0,0.0,0.0,0.0,0.0,0.0,0.0,0.0,0.0,0.0,0.0,0.0,0.0,0.0,0.0,0.0,0.0,0.0,0.0,0.0,0.0,0.0,0.0,0.0,0.0,0.0,0.0,0.0,0.0,0.0,0.0,0.0,0.0,-1.425,-1.5356,-1.6422,-1.7338,-1.4201,-1.2783,-1.336,0.0,0.0,0.0,0.0,0.0,0.0,0.0,0.0,0.0,0.0,0.0,0.0,0.0,0.0,0.0,0.0,0.0,0.0,0.0,0.0,0.0,0.0,0.0,0.0,0.0,0.0,0.0,0.0,0.0,0.0,0.0,0.0,0.0,0.0,0.0,0.0,0.0,0.0,0.0,0.0,0.0,0.0,0.0,0.0,0.0,0.0,0.0,0.0,0.0,0.0,0.0,0.0,0.0,0.0,0.0,0.0,0.0,0.0,0.0,0.0,0.0,0.0,0.0,0.0,0.0,0.0,0.0,0.0,0.0,0.0,0.0,0.0,0.0,0.0,0.0,0.0,0.0,0.0,0.0,0.0,0.0,0.0,0.0,0.0,0.0,0.0,0.0,0.0,0.0,0.0,0.0,0.0,0.0,0.0,0.0,0.0,0.0,0.0,0.0,0.0,0.0,0.0,0.0,0.0,0.0,0.0,0.0,0.0,-1.7231,-1.8958,-1.9094,-1.7554,-1.5724,-1.3643,0.0,0.0,0.0,0.0,0.0,0.0,0.0,0.0,0.0,0.0,0.0,0.0,0.0,0.0,0.0,0.0,0.0,0.0,0.0,0.0,0.0,0.0,0.0,0.0,0.0,0.0,0.0,0.0,0.0,0.0,0.0,0.0,0.0,0.0,0.0,0.0,0.0,0.0,0.0,0.0,0.0,0.0,0.0,0.0,0.0,0.0,0.0,0.0,0.0,0.0,0.0,0.0,0.0,0.0,0.0,0.0,0.0,0.0,0.0,0.0,0.0,0.0,0.0,0.0,0.0,0.0,0.0,0.0,0.0,0.0,0.0,0.0,0.0,0.0,0.0,0.0,0.0,0.0,0.0,0.0,0.0,0.0,0.0,0.0,0.0,0.0,0.0,0.0,0.0,0.0,0.0,0.0,0.0,0.0,0.0,0.0,0.0,0.0,0.0,0.0,0.0,0.0,0.0,0.0,0.0,0.0,0.0,0.0,0.0,-1.9056,-2.0852,-2.1174,-1.9875,-1.7101,-1.4998,0.0,0.0,0.0,0.0,0.0,0.0,0.0,0.0,0.0,0.0,0.0,0.0,0.0,0.0,0.0,0.0,0.0,0.0,0.0,0.0,0.0,0.0,0.0,0.0,0.0,0.0,0.0,0.0,0.0,0.0,0.0,0.0,0.0,0.0,0.0,0.0,0.0,0.0,0.0,0.0,0.0,0.0,0.0,0.0,0.0,0.0,0.0,0.0,0.0,0.0,0.0,0.0,0.0,0.0,0.0,0.0,0.0,0.0,0.0,0.0,0.0,0.0,0.0,0.0,0.0,0.0,0.0,0.0,0.0,0.0,0.0,0.0,0.0,0.0,0.0,0.0,0.0,0.0,0.0,0.0,0.0,0.0,0.0,0.0,0.0,0.0,0.0,0.0,0.0,0.0,0.0,0.0,0.0,0.0,0.0,0.0,0.0,0.0,0.0,0.0,0.0,0.0,0.0,0.0,0.0,0.0,0.0,0.0,-1.8192,-2.0283,-2.2356,-2.2915,-2.1826,-1.905,-1.6638,0.0,0.0,0.0,0.0,0.0,0.0,0.0,0.0,0.0,0.0,0.0,0.0,0.0,0.0,0.0,0.0,0.0,0.0,0.0,0.0,0.0,0.0,0.0,0.0,0.0,0.0,0.0,0.0,0.0,0.0,0.0,0.0,0.0,0.0,0.0,0.0,0.0,0.0,0.0,0.0,0.0,0.0,0.0,0.0,0.0,0.0,0.0,0.0,0.0,0.0,0.0,0.0,0.0,0.0,0.0,0.0,0.0,0.0,0.0,0.0,0.0,0.0,0.0,0.0,0.0,0.0,0.0,0.0,0.0,0.0,0.0,0.0,0.0,0.0,0.0,0.0,0.0,0.0,0.0,0.0,0.0,0.0,0.0,0.0,0.0,0.0,0.0,0.0,0.0,0.0,0.0,0.0,0.0,0.0,0.0,0.0,0.0,0.0,0.0,0.0,0.0,0.0,0.0,0.0,0.0,0.0,0.0,0.0,-1.9423,-2.1127,-2.3468,-2.427,-2.3328,-2.1129,-1.8345,0.0,0.0,0.0,0.0,0.0,0.0,0.0,0.0,0.0,0.0,0.0,0.0,0.0,0.0,0.0,0.0,0.0,0.0,0.0,0.0,0.0,0.0,0.0,0.0,0.0,0.0,0.0,0.0,0.0,0.0,0.0,0.0,0.0,0.0,0.0,0.0,0.0,0.0,0.0,0.0,0.0,0.0,0.0,0.0,0.0,0.0,0.0,0.0,0.0,0.0,0.0,0.0,0.0,0.0,0.0,0.0,0.0,0.0,0.0,0.0,0.0,0.0,0.0,0.0,0.0,0.0,0.0,0.0,0.0,0.0,0.0,0.0,0.0,0.0,0.0,0.0,0.0,0.0,0.0,0.0,0.0,0.0,0.0,0.0,0.0,0.0,0.0,0.0,0.0,0.0,0.0,0.0,0.0,0.0,0.0,0.0,0.0,0.0,0.0,0.0,0.0,0.0,0.0,0.0,0.0,0.0,0.0,0.0,-1.9738,-2.1905,-2.3841,-2.47,-2.4364,-2.1932,-1.9327,0.0,0.0,0.0,0.0,0.0,0.0,0.0,0.0,0.0,0.0,0.0,0.0,0.0,0.0,0.0,0.0,0.0,0.0,0.0,0.0,0.0,0.0,0.0,0.0,0.0,0.0,0.0,0.0,0.0,0.0,0.0,0.0,0.0,0.0,0.0,0.0,0.0,0.0,0.0,0.0,0.0,0.0,0.0,0.0,0.0,0.0,0.0,0.0,-1.0135,0.0,0.0,0.0,0.0,0.0,0.0,0.0,0.0,0.0,0.0,0.0,0.0,0.0,0.0,0.0,0.0,0.0,0.0,0.0,0.0,0.0,0.0,0.0,0.0,0.0,0.0,0.0,0.0,0.0,0.0,0.0,0.0,0.0,0.0,0.0,0.0,0.0,0.0,0.0,0.0,0.0,0.0,0.0,0.0,0.0,0.0,0.0,0.0,0.0,0.0,0.0,0.0,0.0,0.0,0.0,0.0,0.0,0.0,0.0,-2.0747,-2.2736,-2.4086,-2.4734,-2.454,-2.2877,-2.0585,0.0,0.0,0.0,0.0,0.0,0.0,0.0,0.0,0.0,0.0,0.0,0.0,0.0,0.0,0.0,0.0,0.0,0.0,0.0,0.0,0.0,0.0,0.0,0.0,0.0,0.0,0.0,0.0,0.0,0.0,0.0,0.0,0.0,0.0,0.0,0.0,0.0,0.0,0.0,0.0,0.0,0.0,0.0,0.0,0.0,0.0,0.0,0.0,0.0,0.0,0.0,0.0,0.0,0.0,0.0,0.0,0.0,0.0,0.0,0.0,0.0,0.0,0.0,0.0,0.0,0.0,0.0,0.0,0.0,0.0,0.0,0.0,0.0,0.0,0.0,0.0,0.0,0.0,0.0,0.0,0.0,0.0,0.0,0.0,0.0,0.0,0.0,0.0,0.0,0.0,0.0,0.0,0.0,0.0,0.0,0.0,0.0,0.0,0.0,0.0,0.0,0.0,0.0,0.0,0.0,0.0,0.0,-1.9275,-2.1577,-2.3506,-2.4286,-2.4615,-2.45,-2.3776,-2.1866,-1.8636,0.0,0.0,0.0,0.0,0.0,0.0,0.0,0.0,0.0,0.0,0.0,0.0,0.0,0.0,0.0,0.0,0.0,0.0,0.0,0.0,0.0,0.0,0.0,0.0,0.0,0.0,0.0,0.0,0.0,0.0,0.0,0.0,0.0,0.0,0.0,0.0,0.0,0.0,-1.0045,-1.1478,0.0,0.0,0.0,0.0,0.0,0.0,0.0,0.0,-1.2333,0.0,0.0,0.0,0.0,0.0,0.0,0.0,0.0,0.0,0.0,0.0,0.0,0.0,0.0,0.0,0.0,0.0,0.0,0.0,0.0,0.0,0.0,0.0,0.0,0.0,0.0,0.0,0.0,0.0,0.0,0.0,0.0,0.0,0.0,0.0,0.0,0.0,0.0,0.0,0.0,0.0,0.0,0.0,0.0,0.0,0.0,0.0,0.0,0.0,0.0,0.0,0.0,0.0,0.0,0.0,0.0,-1.8936,-1.8958,-2.0666,-2.4217,-2.4459,-2.4534,-2.45,-2.4369,-2.2736,-1.9509,0.0,0.0,0.0,0.0,0.0,0.0,0.0,0.0,0.0,0.0,0.0,0.0,0.0,0.0,0.0,0.0,0.0,0.0,0.0,0.0,0.0,0.0,0.0,0.0,0.0,0.0,0.0,0.0,0.0,0.0,0.0,0.0,0.0,0.0,0.0,0.0,0.0,0.0,0.0,-1.4069,-1.5068,0.0,0.0,0.0,0.0,0.0,0.0,0.0,0.0,-1.2806,0.0,0.0,0.0,0.0,0.0,0.0,0.0,0.0,0.0,0.0,0.0,0.0,0.0,0.0,0.0,0.0,0.0,0.0,0.0,0.0,0.0,0.0,0.0,0.0,0.0,0.0,0.0,0.0,0.0,0.0,0.0,0.0,0.0,0.0,0.0,0.0,0.0,0.0,0.0,0.0,0.0,0.0,0.0,0.0,0.0,0.0,0.0,0.0,0.0,0.0,0.0,0.0,0.0,0.0,0.0,-1.8167,-1.962,-2.1682,-2.4388,-2.45,-2.45,-2.4481,-2.3273,-2.164,0.0,0.0,0.0,0.0,0.0,0.0,0.0,0.0,0.0,0.0,0.0,0.0,0.0,0.0,0.0,0.0,0.0,0.0,0.0,0.0,0.0,0.0,0.0,0.0,0.0,0.0,0.0,0.0,0.0,0.0,0.0,0.0,0.0,0.0,0.0,0.0,0.0,0.0,0.0,0.0,-1.4164,-1.5163,-1.6015,0.0,0.0,0.0,0.0,0.0,0.0,-1.4542,-1.3651,0.0,0.0,0.0,0.0,0.0,0.0,0.0,0.0,0.0,0.0,0.0,0.0,0.0,0.0,0.0,0.0,0.0,0.0,0.0,0.0,0.0,0.0,0.0,0.0,0.0,0.0,0.0,0.0,0.0,0.0,0.0,0.0,0.0,0.0,0.0,0.0,0.0,0.0,0.0,0.0,0.0,0.0,0.0,0.0,0.0,0.0,0.0,0.0,0.0,0.0,0.0,0.0,0.0,0.0,0.0,-1.7114,-2.001,-2.2495,-2.4388,-2.45,-2.45,-2.4462,-2.2402,-2.0678,0.0,0.0,0.0,0.0,0.0,0.0,0.0,0.0,0.0,0.0,0.0,0.0,0.0,0.0,0.0,0.0,0.0,0.0,0.0,0.0,0.0,0.0,0.0,0.0,0.0,0.0,0.0,0.0,0.0,0.0,0.0,0.0,0.0,0.0,0.0,0.0,0.0,0.0,0.0,0.0,0.0,-1.5739,-1.682,-1.6515,0.0,0.0,0.0,0.0,-1.7959,-1.6499,0.0,0.0,0.0,0.0,0.0,0.0,0.0,0.0,0.0,0.0,0.0,0.0,0.0,0.0,0.0,0.0,0.0,0.0,0.0,0.0,0.0,0.0,0.0,0.0,0.0,0.0,0.0,0.0,0.0,0.0,0.0,0.0,0.0,0.0,0.0,0.0,0.0,0.0,0.0,0.0,0.0,0.0,0.0,0.0,0.0,0.0,0.0,0.0,0.0,0.0,0.0,0.0,0.0,0.0,0.0,0.0,-1.7021,-1.8915,-2.138,-2.4314,-2.45,-2.45,-2.45,-2.3479,-2.1513,0.0,0.0,0.0,0.0,0.0,0.0,0.0,0.0,0.0,0.0,0.0,0.0,0.0,0.0,0.0,0.0,0.0,0.0,0.0,0.0,0.0,0.0,0.0,0.0,0.0,0.0,0.0,0.0,0.0,0.0,0.0,0.0,0.0,0.0,0.0,0.0,0.0,0.0,0.0,0.0,0.0,-1.918,-1.8089,-1.8215,-1.8551,0.0,0.0,-1.8804,-1.9999,-1.9823,0.0,0.0,0.0,0.0,0.0,0.0,0.0,0.0,0.0,0.0,0.0,0.0,0.0,0.0,0.0,0.0,0.0,0.0,0.0,0.0,0.0,0.0,0.0,0.0,0.0,0.0,0.0,0.0,0.0,0.0,0.0,0.0,0.0,0.0,0.0,0.0,0.0,0.0,0.0,0.0,0.0,0.0,0.0,0.0,0.0,0.0,0.0,0.0,0.0,0.0,0.0,0.0,0.0,0.0,0.0,-1.4841,-1.7094,-1.9724,-2.2197,-2.4407,-2.45,-2.45,-2.45,-2.2327,-2.027,0.0,0.0,0.0,0.0,0.0,0.0,0.0,0.0,0.0,0.0,0.0,0.0,0.0,0.0,0.0,0.0,0.0,0.0,0.0,0.0,0.0,0.0,0.0,0.0,0.0,0.0,0.0,0.0,0.0,0.0,0.0,0.0,0.0,0.0,0.0,0.0,0.0,0.0,0.0,0.0,0.0,0.0,-2.0084,-1.9867,0.0,0.0,0.0,-1.9921,-2.0916,0.0,0.0,0.0,0.0,0.0,0.0,0.0,0.0,0.0,0.0,0.0,0.0,0.0,0.0,0.0,0.0,0.0,0.0,0.0,0.0,0.0,0.0,0.0,0.0,0.0,0.0,0.0,0.0,0.0,0.0,0.0,0.0,0.0,0.0,0.0,0.0,0.0,0.0,0.0,0.0,0.0,0.0,0.0,0.0,0.0,0.0,0.0,0.0,0.0,0.0,0.0,0.0,0.0,0.0,0.0,0.0,0.0,-1.7125,-2.047,-2.2952,-2.4425,-2.45,-2.45,-2.4462,-2.1696,0.0,0.0,0.0,0.0,0.0,0.0,0.0,0.0,0.0,0.0,0.0,0.0,0.0,0.0,0.0,0.0,0.0,0.0,0.0,0.0,0.0,0.0,0.0,0.0,0.0,0.0,0.0,-0.7441,0.0,0.0,0.0,0.0,0.0,0.0,0.0,0.0,0.0,0.0,0.0,0.0,0.0,0.0,-1.9519,-2.1514,-2.1223,-2.1207,0.0,0.0,-2.1133,-2.2044,-2.117,-1.9899,0.0,0.0,0.0,0.0,0.0,0.0,0.0,0.0,0.0,0.0,0.0,0.0,0.0,0.0,0.0,0.0,0.0,0.0,0.0,0.0,0.0,0.0,0.0,0.0,0.0,0.0,0.0,0.0,0.0,0.0,0.0,0.0,0.0,0.0,0.0,0.0,0.0,0.0,0.0,0.0,0.0,0.0,0.0,0.0,0.0,0.0,0.0,0.0,0.0,0.0,0.0,0.0,0.0,0.0,0.0,-1.7144,-2.0451,-2.2952,-2.4425,-2.45,-2.45,-2.4462,-2.2792,-2.0363,0.0,0.0,0.0,0.0,0.0,0.0,0.0,0.0,0.0,0.0,0.0,0.0,0.0,0.0,0.0,0.0,0.0,0.0,0.0,0.0,0.0,0.0,0.0,0.0,0.0,0.0,0.0,0.0,0.0,0.0,0.0,0.0,0.0,0.0,0.0,0.0,0.0,0.0,0.0,0.0,0.0,-2.1406,-2.1749,-2.2222,-2.2881,0.0,0.0,-2.2881,-2.3858,-2.3895,-2.2959,-2.0263,0.0,0.0,0.0,0.0,0.0,0.0,0.0,0.0,0.0,0.0,0.0,0.0,0.0,0.0,0.0,0.0,0.0,0.0,0.0,0.0,0.0,0.0,0.0,0.0,0.0,0.0,0.0,0.0,0.0,0.0,0.0,0.0,0.0,0.0,0.0,0.0,0.0,0.0,0.0,0.0,0.0,0.0,0.0,0.0,0.0,0.0,0.0,0.0,0.0,0.0,0.0,0.0,0.0,-1.6491,-1.8047,-2.1353,-2.3562,-2.4572,-2.4537,-2.45,-2.45,-2.3349,-2.1198,0.0,0.0,0.0,0.0,0.0,0.0,0.0,0.0,0.0,0.0,0.0,0.0,0.0,0.0,0.0,0.0,0.0,0.0,0.0,0.0,0.0,0.0,0.0,0.0,0.0,0.0,0.0,0.0,-0.9184,-0.9368,-0.9669,0.0,0.0,0.0,0.0,0.0,0.0,0.0,0.0,0.0,0.0,-2.2081,-2.3123,-2.3335,0.0,0.0,-2.3741,-2.3571,-2.4115,-2.3364,-2.2154,-2.0463,-1.9108,0.0,0.0,0.0,0.0,0.0,0.0,0.0,0.0,0.0,0.0,0.0,0.0,0.0,0.0,0.0,0.0,0.0,0.0,0.0,0.0,0.0,0.0,0.0,0.0,0.0,0.0,0.0,0.0,0.0,0.0,0.0,0.0,0.0,0.0,0.0,0.0,0.0,0.0,0.0,0.0,0.0,0.0,0.0,0.0,0.0,0.0,0.0,0.0,0.0,0.0,0.0,0.0,-1.7049,-1.8594,-2.1945,-2.3997,-2.4684,-2.4607,-2.4532,-2.4481,-2.3665,-2.1773,0.0,0.0,0.0,0.0,0.0,0.0,0.0,0.0,0.0,0.0,0.0,0.0,0.0,0.0,0.0,0.0,0.0,0.0,0.0,0.0,0.0,0.0,0.0,0.0,0.0,0.0,0.0,0.0,-0.9641,-0.9698,-0.9698,0.0,0.0,0.0,0.0,0.0,0.0,0.0,0.0,0.0,0.0,-2.2648,-2.4006,-2.4036,-2.3996,-2.417,-2.4054,-2.3996,-2.417,-2.3254,-2.219,-2.1189,0.0,0.0,0.0,0.0,0.0,0.0,0.0,0.0,0.0,0.0,0.0,0.0,0.0,0.0,0.0,0.0,0.0,0.0,0.0,0.0,0.0,0.0,0.0,0.0,0.0,0.0,0.0,-1.0027,0.0,0.0,-0.9913,0.0,0.0,0.0,0.0,0.0,0.0,0.0,0.0,0.0,0.0,0.0,0.0,0.0,0.0,0.0,0.0,0.0,0.0,0.0,0.0,0.0,0.0,-1.7071,-1.8633,-2.2085,-2.4106,-2.4698,-2.4703,-2.4629,-2.4479,-2.3665,-2.207,-1.9634,0.0,0.0,0.0,0.0,0.0,0.0,0.0,0.0,0.0,0.0,0.0,0.0,0.0,0.0,0.0,0.0,0.0,0.0,0.0,0.0,0.0,0.0,0.0,0.0,0.0,0.0,-0.9698,-0.9698,-0.9698,0.0,0.0,0.0,0.0,0.0,0.0,0.0,0.0,0.0,0.0,-2.2476,-2.3272,-2.4098,-2.4208,-2.4245,-2.4245,-2.4226,-2.4208,-2.4226,-2.4154,-2.3805,0.0,0.0,0.0,0.0,0.0,0.0,0.0,0.0,0.0,0.0,0.0,0.0,0.0,0.0,0.0,0.0,0.0,0.0,0.0,0.0,0.0,0.0,0.0,0.0,0.0,0.0,0.0,-1.4175,-1.3373,0.0,0.0,0.0,0.0,0.0,0.0,0.0,0.0,0.0,0.0,0.0,-2.0031,-2.0011,0.0,0.0,0.0,0.0,0.0,0.0,0.0,0.0,0.0,0.0,0.0,0.0,-1.8217,-2.0346,-2.3193,-2.4755,-2.4955,-2.4864,-2.4823,-2.476,-2.4482,-2.2932,-1.996,0.0,0.0,0.0,0.0,0.0,0.0,0.0,0.0,0.0,0.0,0.0,0.0,0.0,0.0,0.0,0.0,0.0,0.0,0.0,0.0,0.0,0.0,0.0,0.0,0.0,-0.9698,0.0,0.0,0.0,0.0,0.0,0.0,0.0,0.0,0.0,0.0,0.0,-2.1048,-2.2421,-2.3308,-2.4099,-2.4946,-2.5056,-2.5278,0.0,0.0,0.0,0.0,0.0,0.0,0.0,0.0,0.0,0.0,0.0,0.0,0.0,0.0,-2.2772,-1.9277,-1.8147,-1.772,-1.7738,0.0,0.0,0.0,0.0,0.0,0.0,0.0,0.0,0.0,0.0,0.0,0.0,0.0,0.0,-1.6856,0.0,-1.5411,0.0,0.0,0.0,0.0,0.0,0.0,0.0,0.0,-2.0795,-2.2211,-2.3588,-2.3558,-2.3212,0.0,-2.1866,-1.9716,0.0,0.0,0.0,0.0,0.0,0.0,0.0,0.0,-1.9506,-2.1703,-2.3981,-2.5143,-2.5105,-2.4998,-2.4936,-2.4902,-2.4631,-2.3354,-2.0948,-1.9525,-1.7595,0.0,0.0,0.0,0.0,0.0,0.0,0.0,0.0,0.0,0.0,0.0,0.0,0.0,0.0,0.0,0.0,0.0,0.0,0.0,0.0,0.0,0.0,0.0,-0.9937,0.0,0.0,0.0,0.0,0.0,0.0,0.0,0.0,0.0,-2.2283,-2.2612,-2.3033,-2.4155,-2.4726,-2.5259,-2.5869,0.0,0.0,0.0,0.0,0.0,0.0,0.0,-2.4469,-2.4908,-2.4558,-2.4334,-2.4686,-2.5362,-2.5832,-2.5731,0.0,0.0,-2.239,-2.1442,-2.1188,-2.1206,-2.1552,-2.1674,-2.1168,-2.1556,-2.187,0.0,0.0,0.0,0.0,0.0,0.0,0.0,0.0,-1.9027,-1.8924,0.0,-1.794,0.0,0.0,0.0,0.0,0.0,-1.9983,0.0,0.0,-2.5332,-2.7045,-2.7794,-2.7775,-2.6986,-2.5505,-2.6159,-2.4822,-2.155,-1.8264,0.0,0.0,0.0,0.0,0.0,0.0,-2.0928,-2.2718,-2.4418,-2.5241,-2.5106,-2.5111,-2.5037,-2.491,-2.4183,-2.3398,-2.2555,-2.1722,-2.0124,-1.7688,-1.6677,0.0,0.0,0.0,0.0,0.0,0.0,0.0,0.0,0.0,0.0,0.0,0.0,0.0,0.0,0.0,0.0,0.0,0.0,0.0,0.0,-0.9735,0.0,0.0,0.0,0.0,0.0,0.0,0.0,0.0,0.0,0.0,-2.5447,-2.4921,-2.4872,-2.6447,0.0,0.0,0.0,0.0,-2.6774,-2.6908,-2.6871,-2.6853,-2.6834,-2.6799,-2.6783,-2.68,0.0,0.0,-2.6612,-2.6796,-2.6932,-2.6652,-2.6871,-2.6972,-2.6897,-2.5891,-2.5219,-2.5219,-2.4981,-2.4954,-2.4946,-2.5026,-2.5401,-2.5706,0.0,0.0,0.0,0.0,-2.2852,-2.3597,-2.5037,-2.4675,-2.3717,-2.2318,-2.1693,0.0,0.0,0.0,0.0,0.0,0.0,-2.4129,-2.5486,-2.6275,-2.7056,-2.7894,-2.7893,-2.7624,-2.7181,-2.742,-2.6995,-2.5966,-2.3832,-2.0889,-1.724,0.0,0.0,0.0,0.0,-2.1847,-2.349,-2.4706,-2.5293,-2.5252,-2.5262,-2.5233,-2.5201,-2.4971,-2.4464,-2.3669,-2.34,-2.2058,-1.9476,-1.855,0.0,0.0,0.0,0.0,0.0,0.0,0.0,0.0,0.0,0.0,0.0,0.0,0.0,0.0,0.0,0.0,0.0,0.0,0.0,-1.0491,-1.0594,-1.1519,0.0,0.0,0.0,0.0,0.0,0.0,0.0,0.0,0.0,-2.6885,-2.6542,-2.6123,0.0,0.0,-2.6962,-2.7571,-2.7629,-2.7874,-2.8565,-2.8079,0.0,-2.7712,-2.721,-2.7005,-2.7639,-2.8253,-2.8662,-2.8579,-2.8641,-2.8662,-2.8561,-2.8639,-2.8682,-2.8587,-2.7472,-2.6523,-2.6431,-2.6372,-2.6313,-2.6291,-2.6374,-2.6454,-3.0047,-2.7638,-2.6439,-2.6334,-2.6906,-2.6439,-2.6895,-2.7969,-2.7456,-2.6625,-2.5677,-2.5155,-2.3844,-2.2057,-2.2034,0.0,0.0,0.0,-2.6362,-2.7673,-2.7673,-2.8107,-2.8898,-2.8926,-2.8742,-2.8434,-2.8413,-2.824,-2.7893,-2.6881,-2.461,-2.1196,0.0,0.0,-2.0862,-2.1876,-2.3074,-2.4405,-2.5004,-2.5313,-2.5313,-2.5313,-2.5313,-2.5313,-2.5313,-2.5063,-2.4601,-2.4582,-2.3678,-2.1779,-2.0553,-1.851,0.0,0.0,0.0,0.0,0.0,0.0,0.0,0.0,0.0,0.0,0.0,-1.185,0.0,0.0,0.0,0.0,-1.1626,-1.2247,-1.3305,-1.3507,0.0,0.0,0.0,0.0,0.0,0.0,0.0,-2.3948,-2.5129,-2.645,-2.8283,-2.8713,-2.8526,-2.7788,-2.7996,-2.8429,-2.8968,0.0,-2.9323,-3.0203,-2.9885,-2.9511,-2.9553,-2.9124,-2.8955,-2.9479,-2.9704,-2.9872,-2.9872,-2.9649,-2.9537,-2.9779,-2.9872,-2.9983,-3.0318,-2.9258,-2.8236,-2.7976,-2.7901,-2.7881,-2.7842,-2.7742,-2.768,-3.3295,-3.3179,-3.1642,-3.0462,-2.9611,-2.9592,-2.9147,-2.8412,-2.8412,-2.8354,-2.8296,-2.831,-2.7829,-2.6994,-2.7017,0.0,-2.7149,-2.7952,-2.8772,-2.9583,-2.9583,-2.994,-3.0576,-3.0595,-3.0132,-2.9283,-2.9303,-2.8887,-2.8155,-2.8037,-2.7603,-2.6766,-2.434,-2.3503,-2.4255,-2.4244,-2.4617,-2.5399,-2.5399,-2.538,-2.5313,-2.5313,-2.5313,-2.5313,-2.5313,-2.5313,-2.5293,-2.5313,-2.4889,-2.4014,-2.2393,-2.0591,-1.8593,0.0,0.0,0.0,0.0,0.0,0.0,0.0,0.0,0.0,0.0,0.0,0.0,0.0,0.0,0.0,-1.4631,0.0,-1.7197,-1.7553,0.0,0.0,0.0,-2.0142,-2.2562,-2.3575,-2.4615,-2.5985,0.0,0.0,-2.9739,-3.1127,-3.1497,-2.9779,-3.0098,-3.0561,-3.0689,-3.0649,-3.0906,-3.1666,-3.1815,-3.1812,-3.1589,-3.1563,-3.1504,-3.1522,-3.1191,-3.0727,-3.0649,-3.0169,-2.9983,-3.0578,-3.0686,-3.0909,-3.173,-3.1136,-3.0485,-2.9797,-2.9556,-2.9481,-2.9553,-2.9333,-2.9089,-3.5085,-3.5046,-3.464,-3.3615,-3.2203,-3.2203,-3.2087,-3.1894,-3.1884,-3.1526,-3.0907,-3.0906,-3.0404,-2.9631,-3.0258,-3.0576,-3.0625,-3.1435,-3.1896,-3.2116,-3.2119,-3.1888,-3.143,-3.143,-3.0948,-3.0158,-3.0117,-2.9998,-2.9767,-2.9201,-2.8788,-2.8529,-2.7296,-2.6448,-2.6043,-2.6619,-2.6734,-2.6294,-2.6294,-2.5986,-2.5322,-2.5313,-2.5313,-2.5313,-2.5313,-2.5313,-2.5313,-2.5313,-2.462,-2.3206,-2.2688,-2.1084,-1.8061,-1.5971,0.0,0.0,0.0,0.0,0.0,0.0,0.0,0.0,0.0,-1.5147,-1.2586,0.0,-1.5357,0.0,-1.5853,-1.7672,-1.8289,-1.8993,0.0,0.0,-2.3201,-2.4239,-2.6293,-2.7067,-2.7827,-2.8885,-3.0056,-3.1006,-3.1561,-3.2543,-3.2845,-3.1826,-3.1551,-3.1529,-3.1643,-3.1705,-3.1842,-3.2204,-3.2298,-3.2204,-3.2102,-3.1896,-3.1861,-3.1801,-3.1656,-3.1526,-3.1526,-3.1396,-3.1299,-3.1467,-3.1526,-3.1745,-3.2321,-3.1912,-3.1652,-3.1708,-3.1039,-3.0501,-3.1076,-3.068,-3.0213,-3.6593,-3.6245,-3.6245,-3.5472,-3.4234,-3.3847,-3.3479,-3.3102,-3.3102,-3.2812,-3.2377,-3.2358,-3.2096,-3.1708,-3.216,-3.2383,-3.2413,-3.2847,-3.3048,-3.3056,-3.304,-3.2789,-3.2323,-3.2323,-3.186,-3.103,-3.1039,-3.0835,-3.0488,-2.9995,-2.9764,-2.9755,-2.9292,-2.8839,-2.8336,-2.8047,-2.7671,-2.7178,-2.6794,-2.637,-2.589,-2.5495,-2.5313,-2.5313,-2.5322,-2.5322,-2.5313,-2.5341,-2.4726,-2.3447,-2.3013,-2.1754,-1.9523,-1.7804,-1.6484,0.0,0.0,0.0,0.0,0.0,0.0,0.0,0.0,0.0,0.0,0.0,-1.768,-1.6894,-1.9135,-2.1012,-2.2005,-2.2965,-2.4079,-2.5439,-2.6293,-2.7338,-2.8814,-2.9557,-3.0295,-3.11,-3.1951,-3.2603,-3.298,-3.3781,-3.416,-3.3684,-3.3374,-3.3064,-3.2787,-3.277,-3.294,-3.3411,-3.3524,-3.3468,-3.3374,-3.3173,-3.3041,-3.3,-3.2654,-3.2321,-3.2321,-3.2046,-3.1916,-3.2247,-3.2321,-3.2544,-3.3138,-3.2767,-3.2544,-3.2971,-3.2451,-3.1782,-3.1786,-3.1429,-3.1154,-3.7762,-3.7077,-3.7077,-3.6671,-3.5955,-3.5085,-3.4234,-3.343,-3.343,-3.343,-3.343,-3.343,-3.3439,-3.3418,-3.3448,-3.3439,-3.343,-3.342,-3.342,-3.343,-3.343,-3.3372,-3.3265,-3.3246,-3.2782,-3.198,-3.1942,-3.1555,-3.0762,-3.0684,-3.0597,-3.0491,-3.0481,-3.05,-3.0432,-2.9004,-2.8193,-2.8055,-2.7208,-2.6727,-2.6611,-2.5851,-2.5428,-2.5313,-2.5361,-2.537,-2.5332,-2.5361,-2.4985,-2.4138,-2.3379,-2.2562,-2.1677,-2.0081,-1.9165,0.0,-1.8246,0.0,0.0,0.0,0.0,0.0,0.0,0.0,0.0,-1.9662,-2.0077,-2.1712,-2.3447,-2.503,-2.6374,-2.7528,-2.8206,-2.8165,-2.8994,-2.989,-3.0641,-3.1506,-3.2257,-3.2824,-3.3766,-3.4293,-3.4144,-3.4783,-3.5242,-3.5111,-3.4937,-3.4583,-3.4013,-3.3824,-3.4072,-3.4887,-3.4964,-3.4736,-3.4756,-3.4676,-3.4532,-3.4492,-3.3833,-3.3227,-3.3227,-3.2623,-3.2358,-3.2994,-3.318,-3.3403,-3.411,-3.3626,-3.3422,-3.3998,-3.3571,-3.2915,-3.2377,-3.2061,-3.1931,-3.811,-3.7967,-3.7947,-3.787,-3.7657,-3.6787,-3.5974,-3.5201,-3.522,-3.5201,-3.522,-3.5201,-3.522,-3.5209,-3.522,-3.522,-3.5201,-3.522,-3.519,-3.5129,-3.5129,-3.4751,-3.4091,-3.4091,-3.3627,-3.2817,-3.2778,-3.2353,-3.1581,-3.1551,-3.1195,-3.051,-3.0491,-3.0491,-3.0472,0.0,0.0,0.0,-2.8096,-2.7315,-2.6622,-2.6439,-2.6025,-2.5332,-2.536,0.0,-2.5389,-2.5398,-2.4994,-2.4156,-2.3946,0.0,0.0,0.0,0.0,0.0,0.0,0.0,0.0,0.0,0.0,0.0,-2.1029,-2.0425,-2.0241,-2.1334,-2.2986,-2.5153,-2.7631,-2.8683,-2.7647,-2.8967,-2.9925,-2.9975,-3.1256,-3.2256,-3.2468,-3.3179,-3.3782,-3.3903,-3.4705,-3.5224,-3.5177,-3.5369,-3.5432,-3.5432,-3.5417,-3.5326,-3.5139,-3.4955,-3.4999,-3.532,-3.5242,-3.5141,-3.5141,-3.4982,-3.4831,-3.4793,-3.4574,-3.4295,-3.4217,-3.3985,-3.3762,-3.4008,-3.4069,-3.4069,-3.4321,-3.4167,-3.4046,-3.4232,-3.4115,-3.3918,-3.3751,-3.3213,-3.2767,-3.9224,0.0,-3.8837,-3.8605,0.0,-3.7735,-3.7309,-3.6864,-3.6052,-3.5704,-3.5704,-3.5704,-3.5704,-3.5704,-3.5704,-3.5704,-3.5704,-3.5704,-3.5673,-3.5643,-3.5643,-3.5419,-3.4982,-3.4982,-3.4538,-3.3719,-3.3708,-3.3244,-3.2452,-3.2008,-3.1574,-3.1139,-3.0753,-3.0559,-3.0559,-3.0569,-3.0347,-2.9844,-2.8975,-2.8328,-2.7865,-2.7065,-2.6439,-2.5986,-2.5618,0.0,0.0,0.0,0.0,0.0,0.0,0.0,0.0,0.0,0.0,-2.2726,-2.1947,-2.165,-2.2083,-2.2102,-2.266,-2.3909,-2.4034,-2.3658,-2.2782,-2.4322,-2.5964,-2.7567,-3.0081,-3.1116,-2.9927,-3.0873,-3.1648,-3.1686,-3.2776,-3.3545,-3.3622,-3.4314,-3.4834,-3.4872,-3.5238,-3.5507,-3.5507,-3.5507,-3.5507,-3.5507,-3.5507,-3.5507,-3.5493,-3.5417,-3.5383,-3.5493,-3.5432,-3.5354,-3.5339,-3.5174,-3.5035,-3.5016,-3.4889,-3.4773,-3.4812,-3.4672,-3.4548,-3.4461,-3.4454,-3.4431,-3.4316,-3.4269,-3.4245,-3.4245,-3.424,-3.4216,-3.4197,-3.3881,-3.3584,-4.0365,-3.9746,-3.9739,-3.9321,-3.8644,-3.8489,-3.8353,-3.8102,0.0,0.0,0.0,-3.6149,-3.6071,-3.5916,-3.5916,-3.5839,-3.5704,-3.5704,-3.5704,-3.5704,-3.5704,-3.5704,-3.5704,-3.5704,-3.5317,-3.464,-3.4621,-3.4195,-3.3344,-3.2609,-3.2184,-3.199,-3.1217,-3.0733,-3.0617,-3.0617,-3.0588,-3.0482,-2.9786,-2.9351,-2.9197,-2.7865,-2.7016,-2.6698,-2.6011,-2.5567,-2.5395,-2.5393,-2.5065,-2.4373,-2.4334,-2.4336,-2.4319,-2.4338,-2.4629,-2.5265,-2.5332,-2.5332,-2.5313,-2.5447,-2.5601,-2.5755,-2.6563,-2.6746,-2.6025,-2.716,-2.8364,-2.9457,-3.16,-3.2628,-3.1988,-3.2648,-3.3122,-3.3141,-3.3891,-3.443,-3.4468,-3.5045,-3.5449,-3.5507,-3.5488,-3.5507,-3.5507,-3.5507,-3.5507,-3.5507,-3.5507,-3.5507,-3.5507,-3.5493,-3.5474,-3.5493,-3.5474,-3.5474,-3.5474,-3.5383,-3.527,-3.5266,-3.51,-3.4978,-3.5015,-3.498,-3.4851,-3.4674,-3.4649,-3.4539,-3.434,-3.4269,-3.4245,-3.4221,-3.4221,-3.4216,-3.4216,-3.4197,-3.416,-4.0713,-4.0597,-4.0597,-4.0539,-4.0384,-3.963,-3.8914,-3.8199,-3.7947,-3.7851,-3.7862,-3.7862,-3.7425,-3.6737,-3.674,-3.6353,-3.5723,-3.5704,-3.5704,-3.5704,-3.5704,-3.5704,-3.5704,-3.5704,-3.5626,-3.551,-3.553,-3.5046,-3.4272,-3.406,-3.3673,-3.2889,-3.2068,-3.1294,-3.0656,-3.0617,-3.0598,-3.0569,-3.0404,-2.9979,-2.9303,-2.9072,-2.8212,-2.6785,-2.6588,-2.6152,-2.544,-2.5401,-2.5363,-2.5219,-2.523,-2.5213,-2.5213,-2.5195,-2.5283,-2.537,-2.5389,-2.5389,-2.5408,-2.6034,-2.6737,-2.7486,-2.8294,-2.867,-2.8557,-2.8161,-2.8844,-3.106,-3.2307,-3.2865,-3.2787,-3.3519,-3.4026,-3.4064,-3.4795,-3.5315,-3.5257,-3.5411,-3.5507,-3.5507,-3.5507,-3.5507,-3.5565,-3.5545,-3.5584,-3.5545,-3.579,-3.5584,-3.5661,-3.5507,-3.5507,-3.5507,-3.5507,-3.5501,-3.5509,-3.5489,-3.5476,-3.5534,-3.5374,-3.5251,-3.5266,-3.5136,-3.498,-3.4812,-3.4793,-3.4732,-3.4542,-3.445,-3.4386,-3.4363,-3.4269,-3.4221,-3.4221,-3.4197,-3.4216,-4.079,-4.079,-4.0829,-4.0829,-4.0771,-4.0404,-4.0055,-3.9727,-3.9707,-3.9146,-3.8288,-3.8268,-3.8044,-3.7735,-3.7699,-3.7265,-3.645,-3.645,-3.6218,-3.5762,-3.5704,-3.5723,-3.5742,-3.5704,-3.5704,-3.5704,-3.5704,-3.5491,-3.5085,-3.464,-3.4195,-3.3712,-3.2474,-3.1623,-3.1255,-3.081,-3.0617,-3.0617,-3.0588,-3.0366,-3.0008,-2.9535,-2.8916,-2.8115,-2.7243,-2.6528,-2.6133,-2.5688,-2.5456,-2.5456,-2.5448,-2.544,-2.5404,-2.5395,-2.5387,-2.5416,-2.5841,-2.6111,-2.6111,-2.6853,-2.7701,-2.8539,-2.8944,-2.9357,-2.9825,-2.9498,-2.996,-3.1588,-3.325,-3.4095,-3.3703,-3.4403,-3.4911,-3.4911,-3.5276,-3.5488,-3.5507,-3.5507,-3.5507,-3.5488,-3.5482,-3.5688,-3.615,-3.6183,-3.6427,-3.6774,-3.6909,-3.6889,-3.687,-3.6889,-3.6543,-3.574,-3.5509,-3.5554,-3.5566,-3.554,-3.5572,-3.5577,-3.5509,-3.5483,-3.5502,-3.5416,-3.5277,-3.5114,-3.5066,-3.4963,-3.4713,-3.4609,-3.4524,-3.4409,-3.4381,-3.4293,-3.4269,-3.4221,-3.4197,-4.0804,-4.0823,-4.0895,-4.0856,-4.0837,-4.0876,-4.0945,-4.0983,-4.0983,-4.0188,-3.9015,-3.8914,-3.8833,-3.8694,-3.8703,-3.8218,-3.7453,-3.7395,-3.692,-3.6135,-3.6057,-3.595,-3.5792,-3.5756,-3.5737,-3.5734,-3.5704,-3.5704,-3.5607,-3.5007,-3.4582,-3.4292,-3.3054,-3.23,-3.2058,-3.1294,-3.0868,-3.0868,-3.0675,-3.0617,-3.0578,-2.994,-2.9515,-2.9224,-2.8025,-2.7194,-2.7,-2.6401,-2.6052,-2.6072,-2.6052,-2.6044,-2.5989,-2.6,-2.5992,-2.6051,-2.6611,-2.7093,-2.7306,-2.7846,-2.8579,-2.9418,-2.9476,-2.9871,-3.0656,-3.0568,-3.0876,-3.2042,-3.4103,-3.5193,-3.4718,-3.5078,-3.5515,-3.5501,-3.552,-3.5534,-3.5534,-3.552,-3.552,-3.5534,-3.5663,-3.6074,-3.6646,-3.6967,-3.7328,-3.7848,-3.808,-3.808,-3.808,-3.8112,-3.7482,-3.662,-3.6151,-3.6247,-3.6183,-3.626,-3.6272,-3.6211,-3.625,-3.6346,-3.6319,-3.6145,-3.5854,-3.5685,-3.5436,-3.5203,-3.4889,-3.4793,-3.4714,-3.4567,-3.4498,-3.4435,-3.434,-3.4293,-3.4221,-4.089,-4.0894,-4.0902,-4.0886,-4.0905,-4.09,-4.09,-4.0925,-4.0905,-4.0881,-4.0671,-4.0752,-4.0267,-3.963,-3.9585,-3.9117,-3.8324,-3.8279,-3.7812,-3.7007,-3.6988,-3.655,-3.5834,-3.5791,-3.5803,-3.5785,-3.5725,-3.5706,-3.5704,-3.5607,-3.5162,-3.4496,-3.4234,-3.3731,-3.2977,-3.2126,-3.169,-3.1661,-3.0965,-3.0617,-3.0617,-3.052,-3.0095,-2.9321,-2.9147,-2.8683,-2.7929,-2.7802,-2.7763,-2.7782,-2.7696,-2.7735,-2.7716,-2.7728,-2.7719,-2.7691,-2.7816,-2.8212,-2.8946,-2.9062,-2.9458,-3.0258,-3.0374,-3.0721,-3.1504,-3.0953,-3.1182,-3.2771,-3.4538,-3.5463,-3.5463,-3.554,-3.5598,-3.5579,-3.5579,-3.5591,-3.5579,-3.5591,-3.5591,-3.5591,-3.6222,-3.6729,-3.7,-3.763,-3.8074,-3.8344,-3.8421,-3.8421,-3.8382,-3.8428,-3.8421,-3.8041,-3.7913,-3.7855,-3.781,-3.7938,-3.7738,-3.78,-3.7897,-3.7762,-3.7568,-3.7181,-3.674,-3.6556,-3.6059,-3.5609,-3.5337,-3.503,-3.5038,-3.5153,-3.5015,-3.4722,-3.4491,-3.4512,-3.4521,-4.0889,-4.09,-4.0949,-4.0982,-4.1015,-4.0984,-4.0986,-4.1015,-4.1016,-4.1035,-4.1074,-4.1062,-4.0857,-4.053,-4.0565,-4.0095,-3.9322,-3.9283,-3.8522,-3.729,-3.7172,-3.6732,-3.5981,-3.5836,-3.5836,-3.5831,-3.5788,-3.5735,-3.5706,-3.5704,-3.553,-3.5201,-3.4737,-3.4281,-3.3875,-3.3044,-3.2309,-3.1816,-3.1487,-3.1081,-3.0675,-3.0617,-3.0424,-3.0075,-2.9573,-2.9166,-2.876,-2.8296,-2.7987,-2.7987,-2.7987,-2.7987,-2.7987,-2.7978,-2.7997,-2.8017,-2.85,-2.9148,-2.9999,-3.0037,-3.0173,-3.053,-3.0994,-3.1448,-3.1768,-3.1932,-3.2549,-3.3716,-3.4963,-3.5631,-3.5631,-3.5616,-3.5623,-3.5623,-3.5623,-3.5623,-3.5623,-3.5623,-3.5746,-3.6228,-3.6626,-3.7302,-3.8202,-3.9116,-3.9631,-3.9689,-3.967,-3.9612,-3.9651,-3.9721,-3.9734,-3.9734,-3.9702,-3.9187,-3.8542,-3.8214,-3.8245,-3.8226,-3.8218,-3.8218,-3.8218,-3.8005,-3.7653,-3.7585,-3.7167,-3.6883,-3.6891,-3.6731,-3.6648,-3.6441,-3.631,-3.6166,-3.596,-3.5909,-3.5861,-4.1169,-4.0982,-4.1029,-4.1054,-4.1094,-4.1054,-4.1053,-4.1111,-4.1108,-4.1108,-4.1108,-4.1108,-4.1101,-4.1111,-4.1152,-4.082,-4.0293,-4.0254,-3.9453,-3.8105,-3.7969,-3.7519,-3.6758,-3.6348,-3.6231,-3.6228,-3.5974,-3.5781,-3.5727,-3.5718,-3.5757,-3.5698,-3.5127,-3.4845,-3.4726,-3.3914,-3.3151,-3.2532,-3.2087,-3.1507,-3.1004,-3.0714,-3.0617,-3.0559,-2.9998,-2.965,-2.9631,-2.9031,-2.8702,-2.8702,-2.8722,-2.873,-2.8702,-2.8702,-2.8702,-2.876,-2.9282,-2.9921,-3.0578,-3.0617,-3.0694,-3.0946,-3.1507,-3.201,-3.2445,-3.2861,-3.3585,-3.4668,-3.5325,-3.5684,-3.5646,-3.5631,-3.5628,-3.5628,-3.5647,-3.5628,-3.5647,-3.577,-3.6188,-3.6728,-3.7339,-3.8143,-3.9489,-4.0314,-4.0674,-4.0674,-4.0732,-4.079,-4.079,-4.0732,-4.0732,-4.079,-4.0771,-4.0268,-3.9166,-3.9069,-3.8914,-3.8914,-3.905,-3.9088,-3.8837,-3.8779,-3.8566,-3.8491,-3.838,-3.8117,-3.77,-3.7795,-3.7896,-3.7704,-3.749,-3.727,-3.6836,-3.6953,-3.6906,-4.1853,-4.1155,-4.1094,-4.1114,-4.1111,-4.1114,-4.1094,-4.1108,-4.1108,-4.1108,-4.1108,-4.1108,-4.1111,-4.1114,-4.1111,-4.1094,-4.1035,-4.1055,-4.0547,-3.9687,-3.9648,-3.9297,-3.8476,-3.7637,-3.7226,-3.7051,-3.6367,-3.5931,-3.5824,-3.5811,-3.5805,-3.578,-3.5652,-3.5627,-3.5474,-3.4756,-3.4311,-3.3982,-3.2725,-3.1816,-3.1642,-3.1004,-3.0656,-3.0598,-3.0559,-3.0482,-3.0501,-3.0482,-3.0424,-3.0462,-3.0366,-3.0404,-3.0443,-3.0424,-3.0366,-3.0404,-3.0482,-3.054,-3.0636,-3.0675,-3.0965,-3.1623,-3.1932,-3.2532,-3.3819,-3.3634,-3.4002,-3.5452,-3.5626,-3.5704,-3.5704,-3.5693,-3.5693,-3.5693,-3.5704,-3.5684,-3.5742,-3.6369,-3.6787,-3.724,-3.8373,-3.9514,-4.0558,-4.0771,-4.079,-4.079,-4.079,-4.079,-4.079,-4.079,-4.079,-4.079,-4.079,-4.0752,-4.0636,-4.0268,-4.0365,-4.0326,-4.0113,-4.0462,-4.0326,-4.0113,-3.9707,-3.9301,-3.8953,-3.8624,-3.8322,-3.8196,-3.8224,-3.8112,-3.8001,-3.7772,-3.7841,-3.7333,-3.7361,-4.272,-4.1888,-4.1322,-4.1108,-4.1108,-4.1108,-4.1108,-4.1108,-4.1108,-4.1108,-4.1108,-4.1108,-4.1108,-4.1111,-4.1099,-4.111,-4.1113,-4.1133,-4.0684,-3.9941,-3.9883,-3.9434,-3.8633,-3.8262,-3.7812,-3.7305,-3.6934,-3.6479,-3.5966,-3.5891,-3.5892,-3.5918,-3.5862,-3.5797,-3.5708,-3.5414,-3.4969,-3.4408,-3.3731,-3.2938,-3.1932,-3.1526,-3.1159,-3.0636,-3.0617,-3.0617,-3.0617,-3.0617,-3.0617,-3.0617,-3.0617,-3.0617,-3.0617,-3.0617,-3.0617,-3.0617,-3.0617,-3.081,-3.1275,-3.1352,-3.1739,-3.256,-3.317,-3.3634,-3.4292,-3.4601,-3.5046,-3.5549,-3.5704,-3.5704,-3.5704,-3.5704,-3.5704,-3.5704,-3.5723,-3.5936,-3.6381,-3.6767,-3.729,-3.8431,-3.9642,-4.0442,-4.0674,-4.079,-4.079,-4.079,-4.079,-4.079,-4.079,-4.079,-4.079,-4.079,-4.079,-4.079,-4.079,-4.0771,-4.0771,-4.0771,-4.0732,-4.0694,-4.0597,-4.0558,-4.023,-4.0133,-3.9707,-3.9611,-3.9514,-3.9521,-3.9392,-3.9281,-3.9101,-3.8785,-3.898,-3.8531,-3.8535,-4.2942,-4.2298,-4.1459,-4.1108,-4.1108,-4.1108,-4.1108,-4.1108,-4.1108,-4.1108,-4.1108,-4.1108,-4.1108,-4.1108,-4.1108,-4.1099,-4.1111,-4.1113,-4.0801,-4.0332,-4.0292,-3.998,-3.9433,-3.914,-3.871,-3.8086,-3.7538,-3.6972,-3.6426,-3.6075,-3.5942,-3.6015,-3.5936,-3.5877,-3.5838,-3.5756,-3.5394,-3.4872,-3.4563,-3.3808,-3.2734,-3.2348,-3.1971,-3.1526,-3.141,-3.112,-3.0656,-3.0617,-3.0617,-3.0617,-3.0617,-3.0617,-3.0617,-3.0617,-3.0617,-3.0617,-3.0617,-3.0946,-3.1661,-3.1797,-3.23,-3.3421,-3.404,-3.4485,-3.4795,-3.5375,-3.5646,-3.5704,-3.5695,-3.5764,-3.6054,-3.6123,-3.6093,-3.6102,-3.6091,-3.6419,-3.7193,-3.758,-3.8411,-3.9591,-4.0346,-4.0732,-4.079,-4.079,-4.079,-4.079,-4.079,-4.079,-4.079,-4.079,-4.079,-4.079,-4.079,-4.079,-4.079,-4.079,-4.079,-4.079,-4.079,-4.079,-4.079,-4.079,-4.079,-4.079,-4.079,-4.079,-4.079,-4.079,-4.0706,-4.0554,-4.0194,-3.9752,-3.9795,-3.974,-3.9517,-4.2513,-4.2415,-4.1479,-4.1205,-4.1225,-4.1127,-4.1108,-4.1108,-4.1108,-4.1108,-4.1108,-4.1108,-4.1108,-4.1108,-4.1108,-4.1111,-4.1114,-4.1103,-4.1068,-4.099,-4.1009,-4.099,-4.0834,-4.0189,-3.9818,-3.9584,-3.8119,-3.7339,-3.7144,-3.6484,-3.6092,-3.5995,-3.5948,-3.5907,-3.5884,-3.5826,-3.5755,-3.5484,-3.4961,-3.4496,-3.4309,-3.3519,-3.3055,-3.2968,-3.2919,-3.2242,-3.0829,-3.0723,-3.0694,-3.0617,-3.0617,-3.0617,-3.0694,-3.0714,-3.0694,-3.083,-3.0733,-3.1101,-3.1816,-3.201,-3.2832,-3.407,-3.4457,-3.4863,-3.5424,-3.5637,-3.5715,-3.5715,-3.5813,-3.6066,-3.6754,-3.6978,-3.6987,-3.6933,-3.6933,-3.729,-3.8102,-3.8972,-3.9816,-4.052,-4.0771,-4.079,-4.079,-4.079,-4.079,-4.079,-4.079,-4.079,-4.079,-4.079,-4.079,-4.079,-4.079,-4.079,-4.079,-4.079,-4.079,-4.079,-4.079,-4.079,-4.079,-4.079,-4.079,-4.079,-4.079,-4.079,-4.079,-4.079,-4.0733,-4.0598,-4.0519,-4.0422,-4.0232,-4.0021,-3.9848,-4.4192,-4.3997,-4.2611,-4.2006,-4.1908,-4.1361,-4.1108,-4.1108,-4.1108,-4.1108,-4.1108,-4.1108,-4.1108,-4.1108,-4.1108,-4.1108,-4.1111,-4.1114,-4.1116,-4.1116,-4.1116,-4.1116,-4.1038,-4.0843,-4.0413,-3.9786,-3.8751,-3.7873,-3.7387,-3.7036,-3.6626,-3.6101,-3.5992,-3.5956,-3.5901,-3.5873,-3.583,-3.5741,-3.5528,-3.5139,-3.4598,-3.427,-3.3866,-3.3301,-3.32,-3.2873,-3.2407,-3.1775,-3.1178,-3.0694,-3.0617,-3.0878,-3.1352,-3.1496,-3.1787,-3.229,-3.2387,-3.2745,-3.3451,-3.3577,-3.4013,-3.502,-3.5291,-3.5398,-3.564,-3.5698,-3.5707,-3.5783,-3.6221,-3.6755,-3.7017,-3.7579,-3.785,-3.7846,-3.7865,-3.8183,-3.9004,-3.9823,-4.0442,-4.0713,-4.079,-4.079,-4.079,-4.079,-4.079,-4.079,-4.079,-4.079,-4.079,-4.079,-4.079,-4.079,-4.079,-4.079,-4.079,-4.079,-4.079,-4.079,-4.079,-4.079,-4.079,-4.079,-4.079,-4.079,-4.079,-4.079,-4.079,-4.0778,-4.0733,-4.0733,-4.0673,-4.0534,-4.0356,-4.0177,-4.002,-4.5012,-4.4816,-4.3118,-4.2396,-4.2298,-4.1479,-4.1108,-4.1108,-4.1108,-4.1108,-4.1108,-4.1108,-4.1108,-4.1108,-4.1108,-4.1108,-4.1108,-4.1108,-4.1108,-4.1108,-4.1108,-4.1108,-4.1108,-4.1108,-4.0873,-4.0288,-3.9468,-3.8765,-3.8219,-3.7594,-3.7009,-3.656,-3.6166,-3.5986,-3.5957,-3.5937,-3.5914,-3.5837,-3.5812,-3.5575,-3.5165,-3.5041,-3.478,-3.4308,-3.4188,-3.4016,-3.3716,-3.3106,-3.2432,-3.166,-3.1283,-3.1505,-3.2259,-3.2124,-3.2279,-3.2985,-3.3248,-3.3529,-3.4294,-3.4362,-3.4798,-3.5505,-3.5698,-3.5708,-3.5699,-3.5708,-3.5708,-3.5843,-3.6183,-3.6823,-3.7462,-3.7967,-3.854,-3.9245,-3.8955,-3.9165,-3.9867,-4.0447,-4.0745,-4.0803,-4.079,-4.079,-4.079,-4.079,-4.079,-4.079,-4.079,-4.079,-4.079,-4.079,-4.079,-4.079,-4.079,-4.079,-4.079,-4.079,-4.079,-4.079,-4.079,-4.079,-4.079,-4.079,-4.079,-4.079,-4.079,-4.079,-4.079,-4.079,-4.0778,-4.079,-4.079,-4.0646,-4.0473,-4.0389,-4.0251,-4.507,-4.4797,-4.3177,-4.2474,-4.2298,-4.1459,-4.1108,-4.1108,-4.1108,-4.1108,-4.1108,-4.1108,-4.1108,-4.1108,-4.1108,-4.1108,-4.1108,-4.1108,-4.1108,-4.1108,-4.1108,-4.1108,-4.1108,-4.1108,-4.1049,-4.0873,-4.0229,-3.9819,-3.9449,-3.818,-3.734,-3.7145,-3.6404,-3.6013,-3.5999,-3.6013,-3.5979,-3.5909,-3.5898,-3.584,-3.5732,-3.5757,-3.5747,-3.5669,-3.5597,-3.5315,-3.4737,-3.4506,-3.4049,-3.3231,-3.2341,-3.2344,-3.2915,-3.246,-3.2615,-3.3497,-3.341,-3.3876,-3.4409,-3.47,-3.4952,-3.5611,-3.5708,-3.5708,-3.5698,-3.5718,-3.5737,-3.5815,-3.6105,-3.6774,-3.7995,-3.8645,-3.9335,-4.0441,-4.0052,-4.004,-4.0637,-4.0781,-4.0788,-4.0803,-4.079,-4.0803,-4.0803,-4.079,-4.0803,-4.079,-4.079,-4.079,-4.079,-4.079,-4.079,-4.079,-4.079,-4.079,-4.079,-4.079,-4.079,-4.079,-4.079,-4.079,-4.079,-4.079,-4.079,-4.079,-4.079,-4.079,-4.079,-4.079,-4.079,-4.079,-4.0765,-4.0673,-4.0598,-4.0519,-4.0406,-4.5578,-4.4894,-4.3821,-4.3001,-4.2337,-4.1479,-4.1108,-4.1108,-4.1108,-4.1108,-4.1108,-4.1108,-4.1108,-4.1108,-4.1108,-4.1108,-4.1108,-4.1108,-4.1108,-4.1108,-4.1108,-4.1108,-4.1108,-4.1108,-4.1108,-4.1049,-4.0795,-4.0405,-3.9761,-3.8707,-3.7906,-3.7282,-3.6443,-3.601,-3.601,-3.601,-3.5991,-3.5971,-3.5982,-3.5966,-3.596,-3.5948,-3.5934,-3.5935,-3.5896,-3.5762,-3.5566,-3.5542,-3.4796,-3.3405,-3.3043,-3.3157,-3.3777,-3.3774,-3.4046,-3.4783,-3.5047,-3.5126,-3.5291,-3.5397,-3.5581,-3.5736,-3.5756,-3.5756,-3.5773,-3.5773,-3.5773,-3.6015,-3.6839,-3.7819,-3.849,-3.947,-4.0374,-4.0714,-4.0567,-4.0516,-4.0738,-4.0815,-4.0792,-4.0815,-4.08,-4.08,-4.0796,-4.0815,-4.0796,-4.0803,-4.079,-4.079,-4.079,-4.079,-4.079,-4.079,-4.079,-4.079,-4.079,-4.079,-4.079,-4.079,-4.079,-4.079,-4.079,-4.079,-4.079,-4.079,-4.079,-4.079,-4.079,-4.079,-4.079,-4.079,-4.0778,-4.0733,-4.0687,-4.0612,-4.0519,-4.5441,-4.4894,-4.3665,-4.2864,-4.2298,-4.1459,-4.1108,-4.1108,-4.1108,-4.1108,-4.1108,-4.1108,-4.1108,-4.1108,-4.1108,-4.1108,-4.1108,-4.1108,-4.1108,-4.1108,-4.1108,-4.1108,-4.1108,-4.1108,-4.1108,-4.1108,-4.1108,-4.0581,-3.98,-3.9,-3.816,-3.7301,-3.644,-3.603,-3.601,-3.601,-3.601,-3.601,-3.601,-3.601,-3.601,-3.601,-3.6013,-3.5999,-3.5937,-3.5898,-3.5898,-3.5876,-3.5378,-3.4518,-3.4067,-3.4105,-3.4725,-3.4627,-3.4948,-3.5721,-3.5801,-3.5765,-3.5765,-3.5793,-3.5793,-3.5793,-3.5793,-3.5801,-3.5791,-3.5791,-3.5791,-3.5926,-3.7128,-3.7897,-3.8606,-3.9917,-4.0752,-4.0878,-4.0859,-4.0839,-4.0848,-4.0867,-4.0846,-4.0823,-4.0804,-4.0807,-4.0843,-4.0812,-4.0808,-4.0796,-4.0803,-4.0803,-4.079,-4.079,-4.079,-4.079,-4.079,-4.079,-4.079,-4.079,-4.079,-4.079,-4.079,-4.079,-4.079,-4.079,-4.079,-4.079,-4.079,-4.079,-4.079,-4.079,-4.079,-4.079,-4.079,-4.079,-4.0746,-4.07,-4.0612,-4.4816,-4.4602,-4.304,-4.2357,-4.2123,-4.1439,-4.1108,-4.1108,-4.1108,-4.1108,-4.1108,-4.1108,-4.1108,-4.1108,-4.1108,-4.1108,-4.1108,-4.1108,-4.1108,-4.1108,-4.1108,-4.1108,-4.1108,-4.1108,-4.1108,-4.1108,-4.1108,-4.0698,-3.9976,-3.9117,-3.8238,-3.7458,-3.656,-3.6049,-3.601,-3.601,-3.601,-3.601,-3.601,-3.601,-3.601,-3.601,-3.601,-3.5996,-3.5957,-3.5918,-3.5918,-3.5918,-3.582,-3.5886,-3.514,-3.5149,-3.5678,-3.51,-3.5113,-3.5648,-3.5807,-3.5815,-3.5799,-3.5807,-3.5807,-3.5799,-3.5791,-3.5791,-3.5791,-3.5791,-3.5868,-3.609,-3.674,-3.7838,-3.8898,-4.016,-4.0752,-4.0888,-4.0888,-4.0898,-4.0898,-4.0888,-4.0877,-4.0798,-4.0818,-4.0849,-4.0868,-4.0848,-4.08,-4.0796,-4.0803,-4.0803,-4.0803,-4.079,-4.079,-4.079,-4.079,-4.079,-4.079,-4.079,-4.079,-4.079,-4.079,-4.079,-4.079,-4.079,-4.079,-4.079,-4.079,-4.079,-4.079,-4.079,-4.079,-4.079,-4.079,-4.079,-4.079,-4.0778,-4.072,-4.3587,-4.2923,-4.2572,-4.2006,-4.142,-4.1186,-4.1108,-4.1108,-4.1108,-4.1108,-4.1108,-4.1108,-4.1108,-4.1108,-4.1108,-4.1108,-4.1108,-4.1108,-4.1108,-4.1108,-4.1108,-4.1108,-4.1108,-4.1108,-4.1108,-4.1108,-4.1108,-4.0971,-4.0464,-3.9292,-3.8492,-3.8102,-3.6735,-3.601,-3.601,-3.601,-3.601,-3.601,-3.601,-3.601,-3.601,-3.601,-3.601,-3.5994,-3.5979,-3.5982,-3.5962,-3.5982,-3.5984,-3.5915,-3.576,-3.5698,-3.5839,-3.5715,-3.5644,-3.5735,-3.5846,-3.5866,-3.5823,-3.5859,-3.5866,-3.5823,-3.5815,-3.5791,-3.5799,-3.5838,-3.6168,-3.674,-3.7622,-3.8721,-3.9975,-4.0616,-4.0869,-4.0888,-4.0888,-4.0888,-4.0898,-4.0898,-4.0888,-4.0888,-4.0869,-4.0878,-4.0898,-4.0898,-4.0846,-4.0808,-4.0815,-4.0796,-4.0803,-4.0803,-4.079,-4.079,-4.079,-4.079,-4.079,-4.079,-4.079,-4.079,-4.079,-4.079,-4.079,-4.079,-4.079,-4.079,-4.079,-4.079,-4.079,-4.079,-4.079,-4.079,-4.079,-4.079,-4.079,-4.079,-4.079,-4.2825,-4.2357,-4.1967,-4.1518,-4.1147,-4.1108,-4.1108,-4.1108,-4.1108,-4.1108,-4.1108,-4.1108,-4.1108,-4.1108,-4.1108,-4.1108,-4.1108,-4.1108,-4.1108,-4.1108,-4.1108,-4.1108,-4.1108,-4.1108,-4.1108,-4.1108,-4.1108,-4.0932,-4.0249,-3.9292,-3.8375,-3.7926,-3.6638,-3.6069,-3.601,-3.601,-3.601,-3.601,-3.601,-3.601,-3.601,-3.601,-3.601,-3.601,-3.601,-3.601,-3.6013,-3.6013,-3.601,-3.5999,-3.5974,-3.5976,-3.5966,-3.5956,-3.588,-3.586,-3.5866,-3.5895,-3.588,-3.5885,-3.5895,-3.5864,-3.5839,-3.584,-3.5983,-3.6144,-3.6577,-3.7242,-3.8244,-3.9565,-4.0713,-4.0888,-4.0888,-4.0888,-4.0888,-4.0888,-4.0888,-4.0888,-4.0888,-4.0888,-4.0888,-4.0888,-4.0898,-4.0898,-4.0877,-4.0854,-4.0808,-4.0808,-4.0796,-4.0815,-4.0803,-4.079,-4.079,-4.079,-4.079,-4.079,-4.079,-4.079,-4.079,-4.079,-4.079,-4.079,-4.079,-4.079,-4.079,-4.079,-4.079,-4.079,-4.079,-4.079,-4.079,-4.079,-4.079,-4.079,-4.079,-4.2181,-4.2162,-4.14,-4.1108,-4.1108,-4.1108,-4.1108,-4.1108,-4.1108,-4.1108,-4.1108,-4.1108,-4.1108,-4.1108,-4.1108,-4.1108,-4.1108,-4.1108,-4.1108,-4.1108,-4.1108,-4.1108,-4.1108,-4.1108,-4.1108,-4.1108,-4.1108,-4.0698,-3.9878,-3.898,-3.8199,-3.734,-3.6462,-3.6049,-3.601,-3.601,-3.601,-3.601,-3.601,-3.601,-3.601,-3.601,-3.601,-3.601,-3.601,-3.601,-3.601,-3.601,-3.601,-3.601,-3.601,-3.601,-3.5979,-3.5934,-3.5898,-3.5906,-3.5906,-3.5893,-3.5887,-3.5893,-3.5899,-3.5896,-3.5893,-3.59,-3.6026,-3.6557,-3.7092,-3.786,-3.8838,-4.014,-4.083,-4.0907,-4.0907,-4.0888,-4.0888,-4.0888,-4.0888,-4.0888,-4.0888,-4.0888,-4.0888,-4.0888,-4.0898,-4.0888,-4.0898,-4.0897,-4.0834,-4.08,-4.0808,-4.0796,-4.0803,-4.079,-4.079,-4.079,-4.079,-4.079,-4.079,-4.079,-4.079,-4.079,-4.079,-4.079,-4.079,-4.079,-4.079,-4.079,-4.079,-4.079,-4.079,-4.079,-4.079,-4.079,-4.079,-4.079,-4.079,-4.1322,-4.1303,-4.1147,-4.1108,-4.1108,-4.1108,-4.1108,-4.1108,-4.1108,-4.1108,-4.1108,-4.1108,-4.1108,-4.1108,-4.1108,-4.1108,-4.1108,-4.1108,-4.1108,-4.1108,-4.1108,-4.1108,-4.1108,-4.1108,-4.1108,-4.1108,-4.1069,-4.0639,-3.9819,-3.9,-3.8141,-3.7282,-3.642,-3.601,-3.601,-3.601,-3.601,-3.601,-3.601,-3.601,-3.601,-3.601,-3.601,-3.601,-3.601,-3.601,-3.601,-3.601,-3.601,-3.601,-3.601,-3.601,-3.5996,-3.5954,-3.5936,-3.5954,-3.5918,-3.5896,-3.5908,-3.5914,-3.5891,-3.5882,-3.5899,-3.5899,-3.6085,-3.6762,-3.76,-3.8595,-3.9682,-4.0809,-4.0946,-4.0954,-4.0897,-4.0897,-4.0897,-4.0897,-4.0897,-4.0888,-4.0888,-4.0888,-4.0888,-4.0888,-4.0898,-4.0898,-4.0888,-4.0898,-4.0867,-4.0834,-4.0812,-4.0788,-4.0796,-4.0803,-4.079,-4.079,-4.079,-4.079,-4.079,-4.079,-4.079,-4.079,-4.079,-4.079,-4.079,-4.079,-4.079,-4.079,-4.079,-4.079,-4.079,-4.079,-4.079,-4.079,-4.079,-4.079,-4.079,-4.1108,-4.1108,-4.1108,-4.1108,-4.1108,-4.1108,-4.1108,-4.1108,-4.1108,-4.1108,-4.1108,-4.1108,-4.1108,-4.1108,-4.1108,-4.1108,-4.1108,-4.1108,-4.1108,-4.1108,-4.1108,-4.1108,-4.1108,-4.1108,-4.1108,-4.1108,-4.1049,-4.0639,-3.98,-3.9,-3.8121,-3.7282,-3.642,-3.601,-3.601,-3.601,-3.601,-3.601,-3.601,-3.601,-3.601,-3.601,-3.601,-3.601,-3.601,-3.601,-3.601,-3.601,-3.601,-3.601,-3.601,-3.601,-3.5996,-3.5982,-3.5947,-3.5979,-3.5966,-3.5953,-3.5957,-3.5954,-3.5954,-3.5937,-3.5957,-3.5937,-3.6246,-3.7077,-3.8358,-3.9597,-4.0207,-4.0978,-4.0986,-4.0955,-4.0941,-4.0955,-4.0948,-4.0937,-4.0949,-4.0935,-4.0917,-4.0888,-4.0888,-4.0888,-4.0888,-4.0898,-4.0898,-4.0888,-4.0898,-4.0867,-4.0804,-4.0812,-4.0788,-4.0803,-4.079,-4.079,-4.079,-4.079,-4.079,-4.079,-4.079,-4.079,-4.079,-4.079,-4.079,-4.079,-4.079,-4.079,-4.079,-4.079,-4.079,-4.079,-4.079,-4.079,-4.079,-4.079,-4.079,-4.1108,-4.1108,-4.1108,-4.1108,-4.1108,-4.1108,-4.1108,-4.1108,-4.1108,-4.1108,-4.1108,-4.1108,-4.1108,-4.1108,-4.1108,-4.1108,-4.1108,-4.1108,-4.1108,-4.1108,-4.1108,-4.1108,-4.1108,-4.1108,-4.1108,-4.1108,-4.1088,-4.0561,-3.9527,-3.8902,-3.8063,-3.7067,-3.6245,-3.601,-3.601,-3.601,-3.601,-3.601,-3.601,-3.601,-3.601,-3.601,-3.601,-3.601,-3.601,-3.601,-3.601,-3.601,-3.601,-3.601,-3.601,-3.601,-3.601,-3.601,-3.601,-3.601,-3.601,-3.601,-3.5994,-3.5994,-3.5999,-3.6001,-3.6013,-3.6064,-3.6657,-3.7812,-3.9346,-4.0657,-4.1027,-4.1011,-4.1023,-4.1016,-4.0991,-4.098,-4.0974,-4.0986,-4.0974,-4.0964,-4.0924,-4.0906,-4.0897,-4.0888,-4.0897,-4.0888,-4.0898,-4.0898,-4.0888,-4.0888,-4.0856,-4.0804,-4.08,-4.0815,-4.079,-4.079,-4.079,-4.079,-4.079,-4.079,-4.079,-4.079,-4.079,-4.079,-4.079,-4.079,-4.079,-4.079,-4.079,-4.079,-4.079,-4.079,-4.079,-4.079,-4.079,-4.079,-4.079,-4.1108,-4.1108,-4.1108,-4.1108,-4.1108,-4.1108,-4.1108,-4.1108,-4.1108,-4.1108,-4.1108,-4.1108,-4.1108,-4.1108,-4.1108,-4.1108,-4.1108,-4.1108,-4.1108,-4.1108,-4.1108,-4.1108,-4.1108,-4.1108,-4.1108,-4.1108,-4.1108,-4.0151,-3.9273,-3.8824,-3.7789,-3.6618,-3.6323,-3.601,-3.601,-3.601,-3.601,-3.601,-3.601,-3.601,-3.601,-3.601,-3.601,-3.601,-3.601,-3.601,-3.601,-3.601,-3.601,-3.601,-3.601,-3.601,-3.601,-3.601,-3.601,-3.601,-3.601,-3.601,-3.601,-3.601,-3.6108,-3.6127,-3.6127,-3.6423,-3.7368,-3.8522,-3.9896,-4.0928,-4.1093,-4.1074,-4.1073,-4.1033,-4.1001,-4.0996,-4.1013,-4.1007,-4.0998,-4.0986,-4.0948,-4.0945,-4.0926,-4.0932,-4.0906,-4.0897,-4.0888,-4.0888,-4.0898,-4.0898,-4.0877,-4.0846,-4.0812,-4.0815,-4.079,-4.079,-4.079,-4.079,-4.079,-4.079,-4.079,-4.079,-4.079,-4.079,-4.079,-4.079,-4.079,-4.079,-4.079,-4.079,-4.079,-4.079,-4.079,-4.079,-4.079,-4.079,-4.079,-4.1108,-4.1108,-4.1108,-4.1108,-4.1108,-4.1108,-4.1108,-4.1108,-4.1108,-4.1108,-4.1108,-4.1108,-4.1108,-4.1108,-4.1108,-4.1108,-4.1108,-4.1108,-4.1108,-4.1108,-4.1108,-4.1108,-4.1108,-4.1108,-4.1108,-4.1108,-4.101,-4.0522,-3.9585,-3.9117,-3.8394,-3.6989,-3.6677,-3.6462,-3.6127,-3.603,-3.601,-3.601,-3.601,-3.601,-3.601,-3.601,-3.601,-3.601,-3.601,-3.601,-3.601,-3.601,-3.601,-3.601,-3.601,-3.601,-3.601,-3.601,-3.601,-3.601,-3.601,-3.601,-3.601,-3.601,-3.6245,-3.6638,-3.6833,-3.736,-3.8434,-3.9234,-4.0073,-4.1013,-4.1103,-4.1103,-4.1114,-4.1089,-4.1073,-4.1054,-4.1033,-4.1047,-4.1049,-4.0992,-4.0979,-4.0959,-4.0961,-4.0954,-4.0937,-4.0924,-4.0906,-4.0888,-4.0898,-4.0888,-4.0877,-4.0834,-4.082,-4.0803,-4.079,-4.079,-4.079,-4.079,-4.079,-4.079,-4.079,-4.079,-4.079,-4.079,-4.079,-4.079,-4.079,-4.079,-4.079,-4.079,-4.079,-4.079,-4.079,-4.079,-4.079,-4.079,-4.079,-4.1108,-4.1108,-4.1108,-4.1108,-4.1108,-4.1108,-4.1108,-4.1108,-4.1108,-4.1108,-4.1108,-4.1108,-4.1108,-4.1108,-4.1108,-4.1108,-4.1108,-4.1108,-4.1108,-4.1108,-4.1108,-4.1108,-4.1104,-4.1104,-4.1104,-4.1101,-4.1097,-4.0727,-4.0379,-3.9953,-3.9292,-3.7672,-3.7282,-3.697,-3.6462,-3.6127,-3.601,-3.601,-3.601,-3.601,-3.601,-3.601,-3.601,-3.601,-3.601,-3.601,-3.601,-3.601,-3.601,-3.601,-3.601,-3.601,-3.601,-3.601,-3.601,-3.601,-3.601,-3.601,-3.601,-3.6088,-3.6501,-3.7106,-3.7887,-3.8492,-3.9373,-3.9722,-4.0034,-4.1069,-4.1091,-4.1111,-4.1111,-4.1111,-4.1097,-4.1103,-4.1089,-4.1112,-4.1094,-4.1048,-4.1013,-4.0972,-4.0983,-4.0983,-4.0972,-4.0953,-4.0932,-4.0897,-4.0898,-4.0898,-4.0877,-4.0834,-4.0831,-4.0796,-4.0803,-4.079,-4.079,-4.079,-4.079,-4.079,-4.079,-4.079,-4.079,-4.079,-4.079,-4.079,-4.079,-4.079,-4.079,-4.079,-4.079,-4.079,-4.079,-4.079,-4.079,-4.079,-4.079,-4.1108,-4.1108,-4.1108,-4.1108,-4.1108,-4.1108,-4.1108,-4.1108,-4.1108,-4.1108,-4.1108,-4.1108,-4.1108,-4.1108,-4.1108,-4.1108,-4.1108,-4.1108,-4.1108,-4.1108,-4.1108,-4.1101,-4.1117,-4.1113,-4.1109,-4.11,-4.11,-4.1061,-4.0964,-4.0766,-3.9894,-3.8687,-3.8096,-3.7513,-3.6947,-3.6498,-3.6342,-3.6323,-3.6284,-3.6166,-3.6108,-3.6069,-3.601,-3.601,-3.601,-3.601,-3.601,-3.601,-3.601,-3.601,-3.601,-3.601,-3.601,-3.601,-3.601,-3.601,-3.601,-3.6069,-3.6166,-3.6264,-3.656,-3.7477,-3.859,-3.9566,-3.9998,-4.0639,-4.0991,-4.1049,-4.1108,-4.1108,-4.1108,-4.1108,-4.1108,-4.1111,-4.1099,-4.1105,-4.111,-4.1112,-4.1052,-4.0999,-4.0994,-4.1001,-4.101,-4.1018,-4.0974,-4.0948,-4.0924,-4.0915,-4.0878,-4.0856,-4.0823,-4.08,-4.0803,-4.0803,-4.079,-4.079,-4.079,-4.079,-4.079,-4.079,-4.079,-4.079,-4.079,-4.079,-4.079,-4.079,-4.079,-4.079,-4.079,-4.079,-4.079,-4.079,-4.079,-4.079,-4.079,-4.1108,-4.1108,-4.1108,-4.1108,-4.1108,-4.1108,-4.1108,-4.1108,-4.1108,-4.1108,-4.1108,-4.1108,-4.1108,-4.1108,-4.1108,-4.1108,-4.1108,-4.1101,-4.1101,-4.1117,-4.1113,-4.1105,-4.11,-4.11,-4.11,-4.1111,-4.1111,-4.1115,-4.1076,-4.1105,-4.0871,-3.9977,-3.9099,-3.812,-3.748,-3.7077,-3.7081,-3.724,-3.7045,-3.6807,-3.6693,-3.6222,-3.6007,-3.601,-3.601,-3.601,-3.601,-3.601,-3.601,-3.601,-3.601,-3.601,-3.601,-3.601,-3.601,-3.603,-3.6049,-3.6303,-3.6716,-3.6872,-3.7399,-3.8765,-3.9878,-4.0561,-4.0506,-4.0932,-4.1069,-4.1108,-4.1108,-4.1108,-4.1108,-4.1108,-4.1108,-4.1108,-4.1111,-4.1119,-4.1101,-4.1107,-4.111,-4.1054,-4.1055,-4.1054,-4.1073,-4.1066,-4.1026,-4.0974,-4.0968,-4.0949,-4.0917,-4.0867,-4.0815,-4.0812,-4.0796,-4.0803,-4.079,-4.079,-4.079,-4.079,-4.079,-4.079,-4.079,-4.079,-4.079,-4.079,-4.079,-4.079,-4.079,-4.079,-4.079,-4.079,-4.079,-4.079,-4.079,-4.079,-4.079,-4.1108,-4.1108,-4.1108,-4.1108,-4.1108,-4.1108,-4.1108,-4.1108,-4.1108,-4.1108,-4.1108,-4.1108,-4.1108,-4.1104,-4.1104,-4.1101,-4.1117,-4.1109,-4.1109,-4.1105,-4.11,-4.1111,-4.1111,-4.1106,-4.1106,-4.11,-4.11,-4.11,-4.11,-4.11,-4.1003,-4.073,-4.0223,-3.9019,-3.8385,-3.7745,-3.7874,-3.7917,-3.7975,-3.7448,-3.7256,-3.6768,-3.6183,-3.6108,-3.601,-3.601,-3.601,-3.601,-3.601,-3.601,-3.601,-3.601,-3.601,-3.601,-3.601,-3.6069,-3.6303,-3.6696,-3.7184,-3.7965,-3.8512,-3.9527,-4.0444,-4.0932,-4.1108,-4.1108,-4.1108,-4.1108,-4.1108,-4.1108,-4.1108,-4.1108,-4.1108,-4.1108,-4.1108,-4.1114,-4.1114,-4.1116,-4.1116,-4.1099,-4.1099,-4.1082,-4.1087,-4.1093,-4.105,-4.1007,-4.0986,-4.096,-4.0949,-4.0888,-4.0837,-4.0823,-4.0788,-4.0796,-4.0803,-4.079,-4.079,-4.079,-4.079,-4.079,-4.079,-4.079,-4.079,-4.079,-4.079,-4.079,-4.079,-4.079,-4.079,-4.079,-4.079,-4.079,-4.079,-4.079,-4.079,-4.1108,-4.1108,-4.1108,-4.1108,-4.1108,-4.1108,-4.1108,-4.1108,-4.1108,-4.1108,-4.1108,-4.1108,-4.1101,-4.1113,-4.1113,-4.1109,-4.11,-4.1115,-4.1115,-4.1111,-4.1106,-4.1106,-4.11,-4.1114,-4.1109,-4.1117,-4.1117,-4.1097,-4.1117,-4.1097,-4.1117,-4.0707,-4.0012,-3.9477,-3.955,-3.8829,-3.8049,-3.7488,-3.8081,-3.7773,-3.7386,-3.7042,-3.6534,-3.6381,-3.6049,-3.601,-3.6264,-3.6049,-3.603,-3.601,-3.601,-3.601,-3.601,-3.601,-3.601,-3.603,-3.6774,-3.7204,-3.7477,-3.8863,-3.9585,-3.9956,-4.0795,-4.1069,-4.1108,-4.1108,-4.1108,-4.1108,-4.1108,-4.1108,-4.1108,-4.1108,-4.1108,-4.1108,-4.1108,-4.1108,-4.1108,-4.1108,-4.1108,-4.1108,-4.1108,-4.1111,-4.1111,-4.1099,-4.1054,-4.1027,-4.0998,-4.0974,-4.0961,-4.0921,-4.0859,-4.0848,-4.0815,-4.0796,-4.0803,-4.0803,-4.079,-4.079,-4.079,-4.079,-4.079,-4.079,-4.079,-4.079,-4.079,-4.079,-4.079,-4.079,-4.079,-4.079,-4.079,-4.079,-4.079,-4.079,-4.079,-4.1108,-4.1108,-4.1108,-4.1108,-4.1108,-4.1108,-4.1108,-4.1108,-4.1108,-4.1104,-4.1101,-4.1097,-4.1113,-4.1105,-4.11,-4.1115,-4.1111,-4.11,-4.11,-4.11,-4.1114,-4.1103,-4.1097,-4.1097,-4.1117,-4.111,-4.111,-4.111,-4.111,-4.111,-4.0682,-4.0175,-3.9415,-3.8979,-3.8683,-3.8181,-3.7596,-3.7917,-3.7878,-3.7488,-3.7265,-3.6817,-3.6606,-3.6732,-3.6323,-3.6323,-3.6755,-3.6462,-3.6127,-3.6088,-3.6088,-3.601,-3.601,-3.601,-3.601,-3.6166,-3.6833,-3.7867,-3.857,-3.9644,-4.0054,-4.0483,-4.0854,-4.1108,-4.1108,-4.1108,-4.1108,-4.1108,-4.1108,-4.1108,-4.1108,-4.1108,-4.1108,-4.1108,-4.1108,-4.1108,-4.1108,-4.1108,-4.1108,-4.1108,-4.1108,-4.1108,-4.1108,-4.1108,-4.1087,-4.1073,-4.1048,-4.1007,-4.0992,-4.0935,-4.089,-4.0878,-4.0849,-4.0812,-4.0803,-4.0803,-4.079,-4.079,-4.079,-4.079,-4.079,-4.079,-4.079,-4.079,-4.079,-4.079,-4.079,-4.079,-4.079,-4.079,-4.079,-4.079,-4.079,-4.079,-4.079,-4.0483,-4.0249,-4.0232,-4.0405,-4.0678,-4.0971,-4.1108,-4.1108,-4.1104,-4.1101,-4.1113,-4.1109,-4.11,-4.1111,-4.1106,-4.11,-4.11,-4.1109,-4.1109,-4.1103,-4.1117,-4.111,-4.111,-4.111,-4.111,-4.111,-4.111,-4.111,-4.111,-4.111,-4.0429,-3.9402,-3.848,-3.7901,-3.7659,-3.7522,-3.7761,-3.7961,-3.7727,-3.7639,-3.7277,-3.6914,-3.6781,-3.6967,-3.6911,-3.6852,-3.7243,-3.7048,-3.644,-3.6362,-3.6186,-3.6049,-3.601,-3.601,-3.601,-3.6245,-3.6872,-3.7965,-3.8902,-3.9253,-3.9663,-4.0405,-4.0854,-4.1088,-4.1108,-4.1108,-4.1108,-4.1108,-4.1108,-4.1108,-4.1108,-4.1108,-4.1108,-4.1108,-4.1108,-4.1108,-4.1108,-4.1108,-4.1108,-4.1108,-4.1108,-4.1108,-4.1108,-4.1108,-4.1097,-4.1101,-4.1105,-4.1055,-4.1027,-4.0976,-4.0916,-4.0894,-4.0867,-4.0839,-4.0812,-4.0803,-4.0803,-4.079,-4.079,-4.079,-4.079,-4.079,-4.079,-4.079,-4.079,-4.079,-4.079,-4.079,-4.079,-4.079,-4.079,-4.079,-4.079,-4.079,-4.079,-3.9312,-3.8648,-3.8609,-3.9097,-3.9839,-4.0522,-4.0932,-4.1088,-4.1117,-4.1113,-4.1109,-4.1115,-4.1106,-4.1114,-4.1114,-4.1109,-4.1117,-4.111,-4.111,-4.111,-4.111,-4.111,-4.111,-4.111,-4.111,-4.111,-4.1071,-4.1013,-4.1033,-4.0331,-3.9519,-3.8603,-3.7584,-3.6966,-3.683,-3.7122,-3.7473,-3.7342,-3.7444,-3.7396,-3.7156,-3.7184,-3.7351,-3.7552,-3.7594,-3.7848,-3.8024,-3.7711,-3.7282,-3.6911,-3.6482,-3.6166,-3.601,-3.601,-3.601,-3.6284,-3.6931,-3.7594,-3.8512,-3.8746,-3.9156,-3.9937,-4.0561,-4.0912,-4.1108,-4.1108,-4.1108,-4.1108,-4.1108,-4.1108,-4.1108,-4.1108,-4.1108,-4.1108,-4.1108,-4.1108,-4.1108,-4.1108,-4.1108,-4.1108,-4.1108,-4.1108,-4.1108,-4.1108,-4.1108,-4.1111,-4.1119,-4.1105,-4.1074,-4.1027,-4.098,-4.0914,-4.0901,-4.0867,-4.0849,-4.0812,-4.0803,-4.0803,-4.079,-4.079,-4.079,-4.079,-4.079,-4.079,-4.079,-4.079,-4.079,-4.079,-4.079,-4.079,-4.079,-4.079,-4.079,-4.079,-4.079,-3.8804,-3.8609,-3.8609,-3.8746,-3.8961,-3.9169,-3.9927,-4.1019,-4.1113,-4.1105,-4.1106,-4.1106,-4.0998,-4.1097,-4.1117,-4.1052,-4.1071,-4.111,-4.111,-4.1071,-4.0916,-4.1052,-4.1091,-4.1071,-4.1091,-4.1091,-4.1013,-4.0721,-3.9961,-3.9279,-3.8422,-3.7492,-3.6824,-3.622,-3.6181,-3.6415,-3.6454,-3.6532,-3.6771,-3.6923,-3.7113,-3.718,-3.7718,-3.8274,-3.8355,-3.8707,-3.8902,-3.8043,-3.7516,-3.7223,-3.6482,-3.603,-3.601,-3.603,-3.6127,-3.6813,-3.6872,-3.695,-3.8141,-3.8024,-3.8258,-3.9409,-4.0073,-4.0522,-4.0854,-4.1108,-4.1108,-4.1108,-4.1108,-4.1108,-4.1108,-4.1108,-4.1108,-4.1108,-4.1108,-4.1108,-4.1108,-4.1108,-4.1108,-4.1108,-4.1108,-4.1108,-4.1108,-4.1108,-4.1108,-4.1108,-4.1111,-4.1116,-4.1103,-4.1074,-4.1048,-4.0968,-4.093,-4.0909,-4.0839,-4.0809,-4.0812,-4.0803,-4.0803,-4.079,-4.079,-4.079,-4.079,-4.079,-4.079,-4.079,-4.079,-4.079,-4.079,-4.079,-4.079,-4.079,-4.079,-4.079,-4.079,-3.7761,-3.7469,-3.7449,-3.7654,-3.8038,-3.8374,-3.9173,-3.9989,-4.0086,-4.0213,-4.053,-4.0173,-4.0435,-4.0916,-4.0409,-4.0156,-4.0487,-4.0039,-3.9902,-3.9961,-4.0448,-4.0487,-4.0604,-4.0896,-4.1091,-4.1033,-4.0701,-4.0253,-3.9357,-3.8188,-3.7233,-3.718,-3.6337,-3.6006,-3.5947,-3.6025,-3.5967,-3.5967,-3.605,-3.626,-3.6621,-3.7043,-3.7952,-3.8645,-3.8726,-3.937,-3.9527,-3.8297,-3.7887,-3.7575,-3.6774,-3.603,-3.601,-3.603,-3.6088,-3.6579,-3.6401,-3.6521,-3.7223,-3.7458,-3.8121,-3.898,-3.9644,-4.0288,-4.0756,-4.1108,-4.1108,-4.1108,-4.1108,-4.1108,-4.1108,-4.1108,-4.1108,-4.1108,-4.1108,-4.1108,-4.1108,-4.1108,-4.1108,-4.1108,-4.1108,-4.1108,-4.1108,-4.1108,-4.1108,-4.1108,-4.1108,-4.1111,-4.1116,-4.1103,-4.1074,-4.1032,-4.0991,-4.0935,-4.087,-4.082,-4.0819,-4.0812,-4.0803,-4.0803,-4.079,-4.079,-4.079,-4.079,-4.079,-4.079,-4.079,-4.079,-4.079,-4.079,-4.079,-4.079,-4.079,-4.079,-4.079,-3.6459,-3.5771,-3.5713,-3.6312,-3.7053,-3.782,-3.8215,-3.8307,-3.8312,-3.8834,-3.9394,-3.8895,-3.9454,-4.0136,-3.9435,-3.924,-3.9396,-3.9162,-3.8967,-3.8578,-3.9376,-3.9688,-3.9922,-4.0409,-4.0351,-4.0429,-4.0175,-3.9474,-3.9045,-3.7876,-3.6863,-3.7044,-3.6317,-3.5908,-3.5889,-3.5889,-3.5908,-3.5928,-3.6089,-3.6348,-3.6445,-3.6809,-3.7304,-3.7786,-3.8668,-3.9605,-3.9429,-3.898,-3.8492,-3.7906,-3.7126,-3.6088,-3.601,-3.601,-3.6069,-3.6069,-3.6049,-3.6147,-3.656,-3.6931,-3.775,-3.8609,-3.9351,-4.0171,-4.0756,-4.1069,-4.1108,-4.1108,-4.1108,-4.1108,-4.1108,-4.1108,-4.1108,-4.1108,-4.1108,-4.1108,-4.1108,-4.1108,-4.1108,-4.1108,-4.1108,-4.1108,-4.1108,-4.1108,-4.1108,-4.1108,-4.1108,-4.1108,-4.1111,-4.1114,-4.1103,-4.1073,-4.1051,-4.0994,-4.094,-4.0896,-4.0837,-4.0829,-4.0815,-4.0815,-4.0796,-4.0803,-4.079,-4.079,-4.079,-4.079,-4.079,-4.079,-4.079,-4.079,-4.079,-4.079,-4.079,-4.079,-4.079,-3.5909,-3.5708,-3.5697,-3.5893,-3.6119,-3.634,-3.6514,-3.6537,-3.6518,-3.7434,-3.8564,-3.8597,-3.8714,-3.9045,-3.8636,-3.8519,-3.8597,-3.8363,-3.85,-3.8402,-3.8714,-3.8811,-3.885,-3.9221,-3.9279,-3.9065,-3.8811,-3.85,-3.7812,-3.6883,-3.624,-3.622,-3.5908,-3.5889,-3.5889,-3.5889,-3.5928,-3.6084,-3.6493,-3.6776,-3.6986,-3.7117,-3.7476,-3.7975,-3.8818,-3.8921,-3.8668,-3.8141,-3.775,-3.734,-3.6579,-3.6088,-3.601,-3.601,-3.601,-3.601,-3.601,-3.601,-3.6225,-3.6794,-3.7672,-3.8512,-3.9351,-4.0171,-4.0756,-4.0991,-4.1108,-4.1108,-4.1108,-4.1108,-4.1108,-4.1108,-4.1108,-4.1108,-4.1108,-4.1108,-4.1108,-4.1108,-4.1108,-4.1108,-4.1108,-4.1108,-4.1108,-4.1108,-4.1108,-4.1108,-4.1108,-4.1108,-4.1108,-4.1111,-4.1111,-4.1105,-4.1093,-4.1051,-4.0996,-4.0949,-4.0896,-4.0852,-4.0839,-4.0819,-4.08,-4.0815,-4.079,-4.079,-4.079,-4.079,-4.079,-4.079,-4.079,-4.079,-4.079,-4.079,-4.079,-4.079,-4.079,-3.5615,-3.5612,-3.5629,-3.5679,-3.5735,-3.5764,-3.582,-3.5859,-3.5889,-3.644,-3.7233,-3.7389,-3.772,-3.8052,-3.774,-3.7701,-3.7759,-3.7467,-3.7233,-3.7311,-3.7818,-3.7915,-3.8013,-3.8227,-3.8597,-3.848,-3.7993,-3.7487,-3.6707,-3.6298,-3.5928,-3.5889,-3.5889,-3.5889,-3.5889,-3.5908,-3.6123,-3.6498,-3.7019,-3.7395,-3.7659,-3.7825,-3.7394,-3.7773,-3.8014,-3.8216,-3.7965,-3.7516,-3.7419,-3.7087,-3.6462,-3.6108,-3.601,-3.601,-3.601,-3.601,-3.601,-3.601,-3.6245,-3.6794,-3.7653,-3.8453,-3.9331,-4.0171,-4.0873,-4.1108,-4.1108,-4.1108,-4.1108,-4.1108,-4.1108,-4.1108,-4.1108,-4.1108,-4.1108,-4.1108,-4.1108,-4.1108,-4.1108,-4.1108,-4.1108,-4.1108,-4.1108,-4.1108,-4.1108,-4.1108,-4.1108,-4.1108,-4.1108,-4.1108,-4.1108,-4.1114,-4.1107,-4.1093,-4.1052,-4.1001,-4.0964,-4.0925,-4.0889,-4.083,-4.0815,-4.0808,-4.079,-4.079,-4.079,-4.079,-4.079,-4.079,-4.079,-4.079,-4.079,-4.079,-4.079,-4.079,-4.079,-3.5507,-3.5501,-3.554,-3.5589,-3.5604,-3.5715,-3.5779,-3.5806,-3.5864,-3.5899,-3.6025,-3.6045,-3.6883,-3.7136,-3.6785,-3.6785,-3.6707,-3.6571,-3.6181,-3.6279,-3.6785,-3.696,-3.7292,-3.7662,-3.7759,-3.7662,-3.7272,-3.6707,-3.6064,-3.5889,-3.5889,-3.5889,-3.5889,-3.5889,-3.5908,-3.6123,-3.6434,-3.7019,-3.7545,-3.7954,-3.8272,-3.8511,-3.7737,-3.7437,-3.7445,-3.7878,-3.7513,-3.7184,-3.7165,-3.6872,-3.6401,-3.6166,-3.601,-3.601,-3.601,-3.601,-3.601,-3.601,-3.6186,-3.6794,-3.7575,-3.8355,-3.9253,-4.0054,-4.0737,-4.1069,-4.1069,-4.1108,-4.1108,-4.1108,-4.1108,-4.1108,-4.1108,-4.1108,-4.1108,-4.1108,-4.1108,-4.1108,-4.1108,-4.1108,-4.1108,-4.1108,-4.1108,-4.1108,-4.1108,-4.1108,-4.1108,-4.1108,-4.1108,-4.1108,-4.1108,-4.1108,-4.1116,-4.1089,-4.1093,-4.1054,-4.1012,-4.0996,-4.0959,-4.0879,-4.0839,-4.0823,-4.0796,-4.079,-4.079,-4.079,-4.079,-4.079,-4.079,-4.079,-4.079,-4.079,-4.079,-4.079,-4.079,-3.5507,-3.5493,-3.5407,-3.5424,-3.5507,-3.5609,-3.566,-3.5729,-3.5846,-3.5889,-3.5889,-3.5908,-3.6201,-3.6415,-3.6162,-3.6123,-3.622,-3.5947,-3.5928,-3.6025,-3.622,-3.6201,-3.6317,-3.6727,-3.6454,-3.6415,-3.6415,-3.6103,-3.5889,-3.5889,-3.5889,-3.5889,-3.5889,-3.5928,-3.6025,-3.6376,-3.698,-3.7564,-3.8422,-3.9045,-3.8597,-3.8628,-3.8429,-3.8053,-3.7671,-3.7546,-3.7162,-3.6576,-3.6342,-3.6186,-3.6147,-3.6049,-3.601,-3.601,-3.601,-3.601,-3.601,-3.601,-3.6264,-3.6716,-3.736,-3.777,-3.8668,-3.9722,-4.0346,-4.0893,-4.0952,-4.1088,-4.1108,-4.1108,-4.1108,-4.1108,-4.1108,-4.1108,-4.1108,-4.1108,-4.1108,-4.1108,-4.1108,-4.1108,-4.1108,-4.1108,-4.1108,-4.1108,-4.1108,-4.1108,-4.1108,-4.1108,-4.1108,-4.1108,-4.1108,-4.1108,-4.1108,-4.1108,-4.1097,-4.1101,-4.1071,-4.1054,-4.1021,-4.0939,-4.0855,-4.0818,-4.0812,-4.0796,-4.0803,-4.079,-4.079,-4.079,-4.079,-4.079,-4.079,-4.079,-4.079,-4.079,-4.079]}]]